Time,TemperatureF,DewpointF,PressureIn,WindDirection,WindDirectionDegrees,WindSpeedMPH,WindSpeedGustMPH,Humidity,HourlyPrecipIn,Conditions,Clouds,dailyrainin,SoftwareType,DateUTC
2013-04-06 00:00:00,40.2,24.0,30.11,ESE,112,17.4,17.4,52,0.00,,,0.00,VWS V14.01,2013-04-06 05:00:00,
2013-04-06 00:01:00,40.2,23.5,30.10,ESE,112,17.4,17.4,51,0.00,,,0.00,VWS V14.01,2013-04-06 05:01:00,
2013-04-06 00:02:00,40.2,24.0,30.11,ESE,112,17.4,17.4,52,0.00,,,0.00,VWS V14.01,2013-04-06 05:02:00,
2013-04-06 00:03:00,40.2,23.5,30.11,ESE,112,17.4,17.4,51,0.00,,,0.00,VWS V14.01,2013-04-06 05:03:00,
2013-04-06 00:04:00,40.1,23.4,30.11,ESE,112,17.2,17.4,51,0.00,,,0.00,VWS V14.01,2013-04-06 05:04:00,
2013-04-06 00:05:00,40.1,23.4,30.11,ESE,112,17.2,17.2,51,0.00,,,0.00,VWS V14.01,2013-04-06 05:05:00,
2013-04-06 00:06:00,40.1,23.0,30.11,East,90,16.1,17.2,50,0.00,,,0.00,VWS V14.01,2013-04-06 05:06:00,
2013-04-06 00:07:00,40.1,23.4,30.11,ESE,112,17.2,17.2,51,0.00,,,0.00,VWS V14.01,2013-04-06 05:07:00,
2013-04-06 00:08:00,40.1,22.5,30.11,East,90,13.1,16.1,49,0.00,,,0.00,VWS V14.01,2013-04-06 05:08:00,
2013-04-06 00:09:00,40.1,22.5,30.11,East,90,13.1,13.1,49,0.00,,,0.00,VWS V14.01,2013-04-06 05:09:00,
2013-04-06 00:10:00,40.1,22.5,30.11,ESE,112,13.4,13.4,49,0.00,,,0.00,VWS V14.01,2013-04-06 05:10:00,
2013-04-06 00:11:00,40.1,22.5,30.11,ESE,112,13.4,13.4,49,0.00,,,0.00,VWS V14.01,2013-04-06 05:11:00,
2013-04-06 00:12:00,40.1,22.5,30.11,ESE,112,13.4,13.4,49,0.00,,,0.00,VWS V14.01,2013-04-06 05:12:00,
2013-04-06 00:13:00,39.9,22.3,30.11,SE,135,15.4,15.4,49,0.00,,,0.00,VWS V14.01,2013-04-06 05:13:00,
2013-04-06 00:14:00,39.9,22.3,30.11,ESE,112,16.7,16.7,49,0.00,,,0.00,VWS V14.01,2013-04-06 05:14:00,
2013-04-06 00:15:00,39.9,22.3,30.11,ESE,112,16.7,16.7,49,0.00,,,0.00,VWS V14.01,2013-04-06 05:15:00,
2013-04-06 00:16:00,39.9,22.3,30.11,ESE,112,11.1,16.7,49,0.00,,,0.00,VWS V14.01,2013-04-06 05:16:00,
2013-04-06 00:17:00,39.9,22.3,30.11,ESE,112,11.1,16.7,49,0.00,,,0.00,VWS V14.01,2013-04-06 05:17:00,
2013-04-06 00:18:00,39.9,21.8,30.11,ESE,112,15.2,15.2,48,0.00,,,0.00,VWS V14.01,2013-04-06 05:18:00,
2013-04-06 00:19:00,39.9,21.8,30.11,ESE,112,15.2,15.2,48,0.00,,,0.00,VWS V14.01,2013-04-06 05:19:00,
2013-04-06 00:20:00,39.9,21.8,30.11,ESE,112,15.2,15.2,48,0.00,,,0.00,VWS V14.01,2013-04-06 05:20:00,
2013-04-06 00:21:00,39.9,21.8,30.11,ESE,112,13.6,15.2,48,0.00,,,0.00,VWS V14.01,2013-04-06 05:21:00,
2013-04-06 00:22:00,39.9,21.8,30.11,ESE,112,13.6,13.6,48,0.00,,,0.00,VWS V14.01,2013-04-06 05:22:00,
2013-04-06 00:23:00,39.9,21.8,30.11,ESE,112,11.1,13.6,48,0.00,,,0.00,VWS V14.01,2013-04-06 05:23:00,
2013-04-06 00:24:00,39.9,21.8,30.11,ESE,112,11.1,11.1,48,0.00,,,0.00,VWS V14.01,2013-04-06 05:24:00,
2013-04-06 00:25:00,39.9,21.8,30.11,ESE,112,15.4,15.4,48,0.00,,,0.00,VWS V14.01,2013-04-06 05:25:00,
2013-04-06 00:26:00,39.9,21.8,30.11,ESE,112,15.4,15.4,48,0.00,,,0.00,VWS V14.01,2013-04-06 05:26:00,
2013-04-06 00:27:00,39.9,21.8,30.11,ESE,112,15.4,15.4,48,0.00,,,0.00,VWS V14.01,2013-04-06 05:27:00,
2013-04-06 00:28:00,39.7,21.6,30.11,ESE,112,15.8,15.8,48,0.00,,,0.00,VWS V14.01,2013-04-06 05:28:00,
2013-04-06 00:29:00,39.7,21.6,30.11,ESE,112,12.9,15.8,48,0.00,,,0.00,VWS V14.01,2013-04-06 05:29:00,
2013-04-06 00:30:00,39.7,21.6,30.11,ESE,112,12.9,12.9,48,0.00,,,0.00,VWS V14.01,2013-04-06 05:30:00,
2013-04-06 00:31:00,39.7,22.1,30.11,ESE,112,17.2,17.2,49,0.00,,,0.00,VWS V14.01,2013-04-06 05:31:00,
2013-04-06 00:32:00,39.7,22.1,30.11,ESE,112,17.2,17.2,49,0.00,,,0.00,VWS V14.01,2013-04-06 05:32:00,
2013-04-06 00:33:00,39.5,21.9,30.11,ESE,112,15.2,17.2,49,0.00,,,0.00,VWS V14.01,2013-04-06 05:33:00,
2013-04-06 00:34:00,39.5,21.5,30.11,ESE,112,15.2,15.2,48,0.00,,,0.00,VWS V14.01,2013-04-06 05:34:00,
2013-04-06 00:35:00,39.5,21.5,30.11,ESE,112,15.2,15.2,48,0.00,,,0.00,VWS V14.01,2013-04-06 05:35:00,
2013-04-06 00:36:00,39.5,21.9,30.11,ESE,112,10.7,15.2,49,0.00,,,0.00,VWS V14.01,2013-04-06 05:36:00,
2013-04-06 00:37:00,39.5,21.9,30.11,ESE,112,10.7,10.7,49,0.00,,,0.00,VWS V14.01,2013-04-06 05:37:00,
2013-04-06 00:38:00,39.3,21.8,30.11,SE,135,17.4,17.4,49,0.00,,,0.00,VWS V14.01,2013-04-06 05:38:00,
2013-04-06 00:39:00,39.3,21.8,30.11,SE,135,17.4,17.4,49,0.00,,,0.00,VWS V14.01,2013-04-06 05:39:00,
2013-04-06 00:40:00,39.3,21.8,30.11,SE,135,13.1,17.4,49,0.00,,,0.00,VWS V14.01,2013-04-06 05:40:00,
2013-04-06 00:41:00,39.3,21.8,30.10,SE,135,13.1,13.1,49,0.00,,,0.00,VWS V14.01,2013-04-06 05:41:00,
2013-04-06 00:42:00,39.3,21.8,30.10,SE,135,13.1,13.1,49,0.00,,,0.00,VWS V14.01,2013-04-06 05:42:00,
2013-04-06 00:43:00,39.3,21.8,30.10,ESE,112,15.6,15.6,49,0.00,,,0.00,VWS V14.01,2013-04-06 05:43:00,
2013-04-06 00:44:00,39.3,21.8,30.10,ESE,112,11.4,15.6,49,0.00,,,0.00,VWS V14.01,2013-04-06 05:44:00,
2013-04-06 00:45:00,39.3,21.8,30.10,ESE,112,11.4,11.4,49,0.00,,,0.00,VWS V14.01,2013-04-06 05:45:00,
2013-04-06 00:46:00,39.3,21.8,30.10,SE,135,14.5,14.5,49,0.00,,,0.00,VWS V14.01,2013-04-06 05:46:00,
2013-04-06 00:47:00,39.3,21.8,30.10,SE,135,14.5,14.5,49,0.00,,,0.00,VWS V14.01,2013-04-06 05:47:00,
2013-04-06 00:48:00,39.3,21.8,30.10,ESE,112,10.7,14.5,49,0.00,,,0.00,VWS V14.01,2013-04-06 05:48:00,
2013-04-06 00:49:00,39.3,21.8,30.10,ESE,112,10.7,10.7,49,0.00,,,0.00,VWS V14.01,2013-04-06 05:49:00,
2013-04-06 00:50:00,39.3,21.8,30.10,ESE,112,10.7,10.7,49,0.00,,,0.00,VWS V14.01,2013-04-06 05:50:00,
2013-04-06 00:51:00,39.3,21.8,30.10,SE,135,13.6,13.6,49,0.00,,,0.00,VWS V14.01,2013-04-06 05:51:00,
2013-04-06 00:52:00,39.3,21.8,30.10,SE,135,13.6,13.6,49,0.00,,,0.00,VWS V14.01,2013-04-06 05:52:00,
2013-04-06 00:53:00,39.3,22.2,30.10,ESE,112,11.8,13.6,50,0.00,,,0.00,VWS V14.01,2013-04-06 05:53:00,
2013-04-06 00:54:00,39.3,22.2,30.10,ESE,112,11.8,11.8,50,0.00,,,0.00,VWS V14.01,2013-04-06 05:54:00,
2013-04-06 00:55:00,39.0,22.0,30.10,ESE,112,15.6,15.6,50,0.00,,,0.00,VWS V14.01,2013-04-06 05:55:00,
2013-04-06 00:56:00,39.0,22.0,30.10,ESE,112,15.6,15.6,50,0.00,,,0.00,VWS V14.01,2013-04-06 05:56:00,
2013-04-06 00:57:00,39.0,22.0,30.10,ESE,112,15.6,15.6,50,0.00,,,0.00,VWS V14.01,2013-04-06 05:57:00,
2013-04-06 00:58:00,39.0,22.0,30.10,SE,135,13.6,13.6,50,0.00,,,0.00,VWS V14.01,2013-04-06 05:58:00,
2013-04-06 00:59:00,39.0,22.0,30.10,SE,135,13.6,13.6,50,0.00,,,0.00,VWS V14.01,2013-04-06 05:59:00,
2013-04-06 01:00:00,39.0,22.0,30.10,SE,135,13.6,13.6,50,0.00,,,0.00,VWS V14.01,2013-04-06 06:00:00,
2013-04-06 01:01:00,39.0,22.0,30.10,SE,135,13.6,13.6,50,0.00,,,0.00,VWS V14.01,2013-04-06 06:01:00,
2013-04-06 01:02:00,39.0,22.0,30.10,SE,135,13.6,13.6,50,0.00,,,0.00,VWS V14.01,2013-04-06 06:02:00,
2013-04-06 01:03:00,39.0,22.0,30.10,SE,135,13.6,13.6,50,0.00,,,0.00,VWS V14.01,2013-04-06 06:03:00,
2013-04-06 01:04:00,39.0,22.0,30.10,ESE,112,18.1,18.1,50,0.00,,,0.00,VWS V14.01,2013-04-06 06:04:00,
2013-04-06 01:05:00,39.0,22.0,30.10,ESE,112,18.1,18.1,50,0.00,,,0.00,VWS V14.01,2013-04-06 06:05:00,
2013-04-06 01:06:00,39.0,22.0,30.10,ESE,112,11.4,18.1,50,0.00,,,0.00,VWS V14.01,2013-04-06 06:06:00,
2013-04-06 01:07:00,39.0,22.0,30.10,ESE,112,11.4,11.4,50,0.00,,,0.00,VWS V14.01,2013-04-06 06:07:00,
2013-04-06 01:08:00,39.0,22.0,30.10,ESE,112,14.0,14.0,50,0.00,,,0.00,VWS V14.01,2013-04-06 06:08:00,
2013-04-06 01:09:00,39.0,22.0,30.10,ESE,112,14.0,14.0,50,0.00,,,0.00,VWS V14.01,2013-04-06 06:09:00,
2013-04-06 01:10:00,39.0,22.0,30.10,ESE,112,8.2,14.0,50,0.00,,,0.00,VWS V14.01,2013-04-06 06:10:00,
2013-04-06 01:11:00,39.0,22.0,30.10,ESE,112,8.2,8.2,50,0.00,,,0.00,VWS V14.01,2013-04-06 06:11:00,
2013-04-06 01:12:00,39.0,22.0,30.10,ESE,112,8.2,8.2,50,0.00,,,0.00,VWS V14.01,2013-04-06 06:12:00,
2013-04-06 01:13:00,39.0,21.5,30.10,ESE,112,14.3,14.3,49,0.00,,,0.00,VWS V14.01,2013-04-06 06:13:00,
2013-04-06 01:14:00,39.0,21.5,30.10,ESE,112,14.3,14.3,49,0.00,,,0.00,VWS V14.01,2013-04-06 06:14:00,
2013-04-06 01:15:00,39.0,21.5,30.10,ESE,112,12.9,14.3,49,0.00,,,0.00,VWS V14.01,2013-04-06 06:15:00,
2013-04-06 01:16:00,39.0,21.5,30.10,ESE,112,12.9,12.9,49,0.00,,,0.00,VWS V14.01,2013-04-06 06:16:00,
2013-04-06 01:17:00,39.0,21.5,30.10,ESE,112,12.9,12.9,49,0.00,,,0.00,VWS V14.01,2013-04-06 06:17:00,
2013-04-06 01:18:00,39.0,21.5,30.10,ESE,112,14.3,14.3,49,0.00,,,0.00,VWS V14.01,2013-04-06 06:18:00,
2013-04-06 01:19:00,39.0,21.5,30.10,ESE,112,12.7,14.3,49,0.00,,,0.00,VWS V14.01,2013-04-06 06:19:00,
2013-04-06 01:20:00,39.0,21.0,30.10,ESE,112,12.7,12.7,48,0.00,,,0.00,VWS V14.01,2013-04-06 06:20:00,
2013-04-06 01:21:00,39.0,21.5,30.09,SE,135,15.6,15.6,49,0.00,,,0.00,VWS V14.01,2013-04-06 06:21:00,
2013-04-06 01:22:00,39.0,21.5,30.09,SE,135,15.6,15.6,49,0.00,,,0.00,VWS V14.01,2013-04-06 06:22:00,
2013-04-06 01:23:00,38.8,20.8,30.09,SE,135,16.3,16.3,48,0.00,,,0.00,VWS V14.01,2013-04-06 06:23:00,
2013-04-06 01:24:00,38.8,20.8,30.09,SE,135,16.3,16.3,48,0.00,,,0.00,VWS V14.01,2013-04-06 06:24:00,
2013-04-06 01:25:00,38.8,20.8,30.09,ESE,112,11.8,16.3,48,0.00,,,0.00,VWS V14.01,2013-04-06 06:25:00,
2013-04-06 01:26:00,38.8,20.8,30.10,ESE,112,11.8,11.8,48,0.00,,,0.00,VWS V14.01,2013-04-06 06:26:00,
2013-04-06 01:27:00,38.8,20.8,30.10,ESE,112,11.8,11.8,48,0.00,,,0.00,VWS V14.01,2013-04-06 06:27:00,
2013-04-06 01:28:00,38.8,20.3,30.09,SE,135,17.2,17.2,47,0.00,,,0.00,VWS V14.01,2013-04-06 06:28:00,
2013-04-06 01:29:00,38.8,20.3,30.09,SE,135,17.2,17.2,47,0.00,,,0.00,VWS V14.01,2013-04-06 06:29:00,
2013-04-06 01:30:00,38.8,20.8,30.09,ESE,112,13.8,17.2,48,0.00,,,0.00,VWS V14.01,2013-04-06 06:30:00,
2013-04-06 01:31:00,38.8,20.8,30.09,ESE,112,13.8,13.8,48,0.00,,,0.00,VWS V14.01,2013-04-06 06:31:00,
2013-04-06 01:32:00,38.8,20.8,30.09,ESE,112,13.8,13.8,48,0.00,,,0.00,VWS V14.01,2013-04-06 06:32:00,
2013-04-06 01:33:00,38.8,20.3,30.09,SE,135,9.8,9.8,47,0.00,,,0.00,VWS V14.01,2013-04-06 06:33:00,
2013-04-06 01:34:00,38.8,20.3,30.09,ESE,112,18.1,18.1,47,0.00,,,0.00,VWS V14.01,2013-04-06 06:34:00,
2013-04-06 01:35:00,38.8,20.3,30.09,ESE,112,18.1,18.1,47,0.00,,,0.00,VWS V14.01,2013-04-06 06:35:00,
2013-04-06 01:36:00,38.8,20.3,30.09,SE,135,13.6,18.1,47,0.00,,,0.00,VWS V14.01,2013-04-06 06:36:00,
2013-04-06 01:37:00,38.8,20.3,30.09,SE,135,13.6,13.6,47,0.00,,,0.00,VWS V14.01,2013-04-06 06:37:00,
2013-04-06 01:38:00,38.8,20.3,30.09,SE,135,14.9,14.9,47,0.00,,,0.00,VWS V14.01,2013-04-06 06:38:00,
2013-04-06 01:39:00,38.8,20.3,30.09,SE,135,14.9,14.9,47,0.00,,,0.00,VWS V14.01,2013-04-06 06:39:00,
2013-04-06 01:40:00,38.8,20.3,30.09,ESE,112,17.4,17.4,47,0.00,,,0.00,VWS V14.01,2013-04-06 06:40:00,
2013-04-06 01:41:00,38.8,20.8,30.09,ESE,112,17.4,17.4,48,0.00,,,0.00,VWS V14.01,2013-04-06 06:41:00,
2013-04-06 01:42:00,38.8,20.8,30.09,ESE,112,17.4,17.4,48,0.00,,,0.00,VWS V14.01,2013-04-06 06:42:00,
2013-04-06 01:43:00,38.6,20.1,30.09,ESE,112,12.7,17.4,47,0.00,,,0.00,VWS V14.01,2013-04-06 06:43:00,
2013-04-06 01:44:00,38.6,20.1,30.09,ESE,112,12.7,12.7,47,0.00,,,0.00,VWS V14.01,2013-04-06 06:44:00,
2013-04-06 01:45:00,38.8,20.3,30.09,ESE,112,15.4,15.4,47,0.00,,,0.00,VWS V14.01,2013-04-06 06:45:00,
2013-04-06 01:46:00,38.8,20.3,30.09,ESE,112,15.4,15.4,47,0.00,,,0.00,VWS V14.01,2013-04-06 06:46:00,
2013-04-06 01:47:00,38.8,20.3,30.09,ESE,112,15.4,15.4,47,0.00,,,0.00,VWS V14.01,2013-04-06 06:47:00,
2013-04-06 01:48:00,38.6,20.1,30.09,ESE,112,15.2,15.2,47,0.00,,,0.00,VWS V14.01,2013-04-06 06:48:00,
2013-04-06 01:49:00,38.4,19.9,30.09,ESE,112,20.3,20.3,47,0.00,,,0.00,VWS V14.01,2013-04-06 06:49:00,
2013-04-06 01:50:00,38.4,19.9,30.09,ESE,112,20.3,20.3,47,0.00,,,0.00,VWS V14.01,2013-04-06 06:50:00,
2013-04-06 01:51:00,38.4,20.4,30.09,SE,135,15.8,20.3,48,0.00,,,0.00,VWS V14.01,2013-04-06 06:51:00,
2013-04-06 01:52:00,38.4,20.4,30.09,SE,135,15.8,15.8,48,0.00,,,0.00,VWS V14.01,2013-04-06 06:52:00,
2013-04-06 01:53:00,38.4,20.4,30.09,SE,135,15.8,15.8,48,0.00,,,0.00,VWS V14.01,2013-04-06 06:53:00,
2013-04-06 01:54:00,38.4,20.4,30.09,East,90,13.6,15.8,48,0.00,,,0.00,VWS V14.01,2013-04-06 06:54:00,
2013-04-06 01:55:00,38.4,20.4,30.09,ESE,112,10.2,13.6,48,0.00,,,0.00,VWS V14.01,2013-04-06 06:55:00,
2013-04-06 01:56:00,38.3,20.4,30.08,ESE,112,10.2,10.2,48,0.00,,,0.00,VWS V14.01,2013-04-06 06:56:00,
2013-04-06 01:57:00,38.3,20.4,30.08,ESE,112,10.2,10.2,48,0.00,,,0.00,VWS V14.01,2013-04-06 06:57:00,
2013-04-06 01:58:00,38.3,20.8,30.08,ESE,112,10.5,10.5,49,0.00,,,0.00,VWS V14.01,2013-04-06 06:58:00,
2013-04-06 01:59:00,38.3,20.8,30.08,ESE,112,10.5,10.5,49,0.00,,,0.00,VWS V14.01,2013-04-06 06:59:00,
2013-04-06 02:00:00,38.3,20.8,30.08,ESE,112,10.5,10.5,49,0.00,,,0.00,VWS V14.01,2013-04-06 07:00:00,
2013-04-06 02:01:00,38.3,20.8,30.08,SE,135,12.7,12.7,49,0.00,,,0.00,VWS V14.01,2013-04-06 07:01:00,
2013-04-06 02:02:00,38.3,20.4,30.08,ESE,112,12.7,12.7,48,0.00,,,0.00,VWS V14.01,2013-04-06 07:02:00,
2013-04-06 02:03:00,38.3,20.4,30.08,ESE,112,12.7,12.7,48,0.00,,,0.00,VWS V14.01,2013-04-06 07:03:00,
2013-04-06 02:04:00,38.1,20.6,30.08,SE,135,15.2,15.2,49,0.00,,,0.00,VWS V14.01,2013-04-06 07:04:00,
2013-04-06 02:05:00,38.1,20.6,30.08,SE,135,15.2,15.2,49,0.00,,,0.00,VWS V14.01,2013-04-06 07:05:00,
2013-04-06 02:06:00,38.1,20.6,30.08,ESE,112,14.3,15.2,49,0.00,,,0.00,VWS V14.01,2013-04-06 07:06:00,
2013-04-06 02:07:00,38.1,20.6,30.08,ESE,112,14.3,14.3,49,0.00,,,0.00,VWS V14.01,2013-04-06 07:07:00,
2013-04-06 02:08:00,38.1,20.6,30.07,SE,135,18.1,18.1,49,0.00,,,0.00,VWS V14.01,2013-04-06 07:08:00,
2013-04-06 02:09:00,38.1,20.6,30.07,SE,135,18.1,18.1,49,0.00,,,0.00,VWS V14.01,2013-04-06 07:09:00,
2013-04-06 02:10:00,38.1,20.6,30.08,ESE,112,17.4,18.1,49,0.00,,,0.00,VWS V14.01,2013-04-06 07:10:00,
2013-04-06 02:11:00,38.1,20.6,30.08,ESE,112,17.4,17.4,49,0.00,,,0.00,VWS V14.01,2013-04-06 07:11:00,
2013-04-06 02:12:00,38.1,20.6,30.08,ESE,112,17.4,17.4,49,0.00,,,0.00,VWS V14.01,2013-04-06 07:12:00,
2013-04-06 02:13:00,37.9,20.9,30.08,ESE,112,13.6,17.4,50,0.00,,,0.00,VWS V14.01,2013-04-06 07:13:00,
2013-04-06 02:14:00,37.9,20.9,30.08,ESE,112,13.6,13.6,50,0.00,,,0.00,VWS V14.01,2013-04-06 07:14:00,
2013-04-06 02:15:00,37.9,20.9,30.08,ESE,112,10.5,13.6,50,0.00,,,0.00,VWS V14.01,2013-04-06 07:15:00,
2013-04-06 02:16:00,37.9,20.9,30.08,ESE,112,10.5,10.5,50,0.00,,,0.00,VWS V14.01,2013-04-06 07:16:00,
2013-04-06 02:17:00,37.9,20.9,30.08,ESE,112,12.9,12.9,50,0.00,,,0.00,VWS V14.01,2013-04-06 07:17:00,
2013-04-06 02:18:00,37.9,20.9,30.07,ESE,112,12.9,12.9,50,0.00,,,0.00,VWS V14.01,2013-04-06 07:18:00,
2013-04-06 02:19:00,37.9,20.9,30.07,East,90,11.4,12.9,50,0.00,,,0.00,VWS V14.01,2013-04-06 07:19:00,
2013-04-06 02:20:00,37.9,20.9,30.07,East,90,11.4,11.4,50,0.00,,,0.00,VWS V14.01,2013-04-06 07:20:00,
2013-04-06 02:21:00,37.9,20.9,30.07,ESE,112,16.1,16.1,50,0.00,,,0.00,VWS V14.01,2013-04-06 07:21:00,
2013-04-06 02:22:00,37.9,20.9,30.07,ESE,112,16.1,16.1,50,0.00,,,0.00,VWS V14.01,2013-04-06 07:22:00,
2013-04-06 02:23:00,37.9,20.9,30.07,ESE,112,8.0,16.1,50,0.00,,,0.00,VWS V14.01,2013-04-06 07:23:00,
2013-04-06 02:24:00,37.9,20.9,30.07,ESE,112,8.0,8.0,50,0.00,,,0.00,VWS V14.01,2013-04-06 07:24:00,
2013-04-06 02:25:00,37.9,20.9,30.07,ESE,112,12.0,12.0,50,0.00,,,0.00,VWS V14.01,2013-04-06 07:25:00,
2013-04-06 02:26:00,37.9,20.9,30.07,ESE,112,12.0,12.0,50,0.00,,,0.00,VWS V14.01,2013-04-06 07:26:00,
2013-04-06 02:27:00,37.9,20.9,30.07,ESE,112,12.0,12.0,50,0.00,,,0.00,VWS V14.01,2013-04-06 07:27:00,
2013-04-06 02:28:00,37.7,21.2,30.07,ESE,112,10.5,12.0,51,0.00,,,0.00,VWS V14.01,2013-04-06 07:28:00,
2013-04-06 02:29:00,37.7,21.2,30.07,ESE,112,10.5,10.5,51,0.00,,,0.00,VWS V14.01,2013-04-06 07:29:00,
2013-04-06 02:30:00,37.7,21.2,30.07,ESE,112,11.6,11.6,51,0.00,,,0.00,VWS V14.01,2013-04-06 07:30:00,
2013-04-06 02:31:00,37.7,21.2,30.07,ESE,112,11.6,11.6,51,0.00,,,0.00,VWS V14.01,2013-04-06 07:31:00,
2013-04-06 02:32:00,37.7,21.2,30.07,ESE,112,10.7,10.7,51,0.00,,,0.00,VWS V14.01,2013-04-06 07:32:00,
2013-04-06 02:33:00,37.7,21.2,30.07,ESE,112,10.7,10.7,51,0.00,,,0.00,VWS V14.01,2013-04-06 07:33:00,
2013-04-06 02:34:00,37.5,21.0,30.07,ESE,112,11.8,11.8,51,0.00,,,0.00,VWS V14.01,2013-04-06 07:34:00,
2013-04-06 02:35:00,37.5,21.0,30.07,ESE,112,11.8,11.8,51,0.00,,,0.00,VWS V14.01,2013-04-06 07:35:00,
2013-04-06 02:36:00,37.5,21.5,30.07,ESE,112,10.9,11.8,52,0.00,,,0.00,VWS V14.01,2013-04-06 07:36:00,
2013-04-06 02:37:00,37.5,21.5,30.07,ESE,112,10.9,10.9,52,0.00,,,0.00,VWS V14.01,2013-04-06 07:37:00,
2013-04-06 02:38:00,37.5,21.5,30.06,ESE,112,16.3,16.3,52,0.00,,,0.00,VWS V14.01,2013-04-06 07:38:00,
2013-04-06 02:39:00,37.5,21.5,30.06,ESE,112,16.3,16.3,52,0.00,,,0.00,VWS V14.01,2013-04-06 07:39:00,
2013-04-06 02:40:00,37.5,21.5,30.06,ESE,112,15.8,16.3,52,0.00,,,0.00,VWS V14.01,2013-04-06 07:40:00,
2013-04-06 02:41:00,37.5,21.5,30.06,ESE,112,15.8,15.8,52,0.00,,,0.00,VWS V14.01,2013-04-06 07:41:00,
2013-04-06 02:42:00,37.5,21.5,30.07,ESE,112,15.8,15.8,52,0.00,,,0.00,VWS V14.01,2013-04-06 07:42:00,
2013-04-06 02:43:00,37.5,21.5,30.07,ESE,112,13.6,15.8,52,0.00,,,0.00,VWS V14.01,2013-04-06 07:43:00,
2013-04-06 02:44:00,37.5,21.5,30.07,ESE,112,13.6,13.6,52,0.00,,,0.00,VWS V14.01,2013-04-06 07:44:00,
2013-04-06 02:45:00,37.5,21.5,30.06,SE,135,13.4,13.6,52,0.00,,,0.00,VWS V14.01,2013-04-06 07:45:00,
2013-04-06 02:46:00,37.5,21.5,30.06,SE,135,13.4,13.4,52,0.00,,,0.00,VWS V14.01,2013-04-06 07:46:00,
2013-04-06 02:47:00,37.5,21.5,30.07,ESE,112,12.7,12.7,52,0.00,,,0.00,VWS V14.01,2013-04-06 07:47:00,
2013-04-06 02:48:00,37.5,21.5,30.07,ESE,112,12.7,12.7,52,0.00,,,0.00,VWS V14.01,2013-04-06 07:48:00,
2013-04-06 02:49:00,37.5,21.5,30.07,ESE,112,12.3,12.7,52,0.00,,,0.00,VWS V14.01,2013-04-06 07:49:00,
2013-04-06 02:50:00,37.5,21.5,30.07,ESE,112,12.3,12.3,52,0.00,,,0.00,VWS V14.01,2013-04-06 07:50:00,
2013-04-06 02:51:00,37.5,21.5,30.07,ESE,112,12.0,12.3,52,0.00,,,0.00,VWS V14.01,2013-04-06 07:51:00,
2013-04-06 02:52:00,37.5,21.5,30.07,ESE,112,12.0,12.0,52,0.00,,,0.00,VWS V14.01,2013-04-06 07:52:00,
2013-04-06 02:53:00,37.4,21.4,30.06,SE,135,10.5,12.0,52,0.00,,,0.00,VWS V14.01,2013-04-06 07:53:00,
2013-04-06 02:54:00,37.4,21.4,30.07,SE,135,10.5,10.5,52,0.00,,,0.00,VWS V14.01,2013-04-06 07:54:00,
2013-04-06 02:55:00,37.4,21.4,30.07,ESE,112,12.9,12.9,52,0.00,,,0.00,VWS V14.01,2013-04-06 07:55:00,
2013-04-06 02:56:00,37.4,21.4,30.06,ESE,112,12.9,12.9,52,0.00,,,0.00,VWS V14.01,2013-04-06 07:56:00,
2013-04-06 02:57:00,37.4,21.4,30.07,ESE,112,12.9,12.9,52,0.00,,,0.00,VWS V14.01,2013-04-06 07:57:00,
2013-04-06 02:58:00,37.4,21.4,30.06,ESE,112,12.9,12.9,52,0.00,,,0.00,VWS V14.01,2013-04-06 07:58:00,
2013-04-06 02:59:00,37.4,21.4,30.07,ESE,112,12.9,12.9,52,0.00,,,0.00,VWS V14.01,2013-04-06 07:59:00,
2013-04-06 03:00:00,37.4,21.4,30.07,ESE,112,13.6,13.6,52,0.00,,,0.00,VWS V14.01,2013-04-06 08:00:00,
2013-04-06 03:01:00,37.4,21.9,30.07,ESE,112,13.6,13.6,53,0.00,,,0.00,VWS V14.01,2013-04-06 08:01:00,
2013-04-06 03:02:00,37.4,21.4,30.06,ESE,112,7.8,7.8,52,0.00,,,0.00,VWS V14.01,2013-04-06 08:02:00,
2013-04-06 03:03:00,37.4,21.4,30.06,ESE,112,7.8,7.8,52,0.00,,,0.00,VWS V14.01,2013-04-06 08:03:00,
2013-04-06 03:04:00,37.2,21.2,30.06,SE,135,14.0,14.0,52,0.00,,,0.00,VWS V14.01,2013-04-06 08:04:00,
2013-04-06 03:05:00,37.2,21.2,30.06,SE,135,14.0,14.0,52,0.00,,,0.00,VWS V14.01,2013-04-06 08:05:00,
2013-04-06 03:06:00,37.4,21.4,30.06,ESE,112,15.6,15.6,52,0.00,,,0.00,VWS V14.01,2013-04-06 08:06:00,
2013-04-06 03:07:00,37.4,21.4,30.06,ESE,112,15.6,15.6,52,0.00,,,0.00,VWS V14.01,2013-04-06 08:07:00,
2013-04-06 03:08:00,37.2,21.2,30.06,SE,135,16.3,16.3,52,0.00,,,0.00,VWS V14.01,2013-04-06 08:08:00,
2013-04-06 03:09:00,37.2,21.2,30.06,SE,135,16.3,16.3,52,0.00,,,0.00,VWS V14.01,2013-04-06 08:09:00,
2013-04-06 03:10:00,37.2,21.2,30.06,East,90,11.8,16.3,52,0.00,,,0.00,VWS V14.01,2013-04-06 08:10:00,
2013-04-06 03:11:00,37.2,21.2,30.06,East,90,11.8,11.8,52,0.00,,,0.00,VWS V14.01,2013-04-06 08:11:00,
2013-04-06 03:12:00,37.2,21.7,30.06,ESE,112,12.7,12.7,53,0.00,,,0.00,VWS V14.01,2013-04-06 08:12:00,
2013-04-06 03:13:00,37.2,21.7,30.06,ESE,112,12.7,12.7,53,0.00,,,0.00,VWS V14.01,2013-04-06 08:13:00,
2013-04-06 03:14:00,37.2,21.7,30.06,ESE,112,12.7,12.7,53,0.00,,,0.00,VWS V14.01,2013-04-06 08:14:00,
2013-04-06 03:15:00,37.2,21.2,30.06,ESE,112,16.1,16.1,52,0.00,,,0.00,VWS V14.01,2013-04-06 08:15:00,
2013-04-06 03:16:00,37.2,21.2,30.06,ESE,112,16.1,16.1,52,0.00,,,0.00,VWS V14.01,2013-04-06 08:16:00,
2013-04-06 03:17:00,37.2,21.2,30.06,SE,135,18.3,18.3,52,0.00,,,0.00,VWS V14.01,2013-04-06 08:17:00,
2013-04-06 03:18:00,37.2,21.2,30.06,SE,135,18.3,18.3,52,0.00,,,0.00,VWS V14.01,2013-04-06 08:18:00,
2013-04-06 03:19:00,37.2,21.2,30.06,SE,135,15.8,18.3,52,0.00,,,0.00,VWS V14.01,2013-04-06 08:19:00,
2013-04-06 03:20:00,37.2,21.2,30.06,SE,135,15.8,15.8,52,0.00,,,0.00,VWS V14.01,2013-04-06 08:20:00,
2013-04-06 03:21:00,37.2,21.2,30.06,SE,135,21.4,21.4,52,0.00,,,0.00,VWS V14.01,2013-04-06 08:21:00,
2013-04-06 03:22:00,37.2,21.2,30.06,SE,135,21.4,21.4,52,0.00,,,0.00,VWS V14.01,2013-04-06 08:22:00,
2013-04-06 03:23:00,37.2,21.2,30.06,ESE,112,14.0,21.4,52,0.00,,,0.00,VWS V14.01,2013-04-06 08:23:00,
2013-04-06 03:24:00,37.2,21.2,30.06,ESE,112,14.0,14.0,52,0.00,,,0.00,VWS V14.01,2013-04-06 08:24:00,
2013-04-06 03:25:00,37.2,21.2,30.06,SSE,158,18.3,18.3,52,0.00,,,0.00,VWS V14.01,2013-04-06 08:25:00,
2013-04-06 03:26:00,37.2,21.2,30.06,SSE,158,18.3,18.3,52,0.00,,,0.00,VWS V14.01,2013-04-06 08:26:00,
2013-04-06 03:27:00,37.2,21.2,30.06,SSE,158,18.3,18.3,52,0.00,,,0.00,VWS V14.01,2013-04-06 08:27:00,
2013-04-06 03:28:00,37.2,21.2,30.06,ESE,112,14.5,18.3,52,0.00,,,0.00,VWS V14.01,2013-04-06 08:28:00,
2013-04-06 03:29:00,37.2,21.2,30.05,ESE,112,14.5,14.5,52,0.00,,,0.00,VWS V14.01,2013-04-06 08:29:00,
2013-04-06 03:30:00,37.2,21.7,30.05,SE,135,9.8,14.5,53,0.00,,,0.00,VWS V14.01,2013-04-06 08:30:00,
2013-04-06 03:31:00,37.2,21.7,30.05,SE,135,9.8,9.8,53,0.00,,,0.00,VWS V14.01,2013-04-06 08:31:00,
2013-04-06 03:32:00,37.2,21.7,30.06,ESE,112,13.8,13.8,53,0.00,,,0.00,VWS V14.01,2013-04-06 08:32:00,
2013-04-06 03:33:00,37.2,21.7,30.06,ESE,112,13.8,13.8,53,0.00,,,0.00,VWS V14.01,2013-04-06 08:33:00,
2013-04-06 03:34:00,37.0,21.5,30.05,ESE,112,12.0,13.8,53,0.00,,,0.00,VWS V14.01,2013-04-06 08:34:00,
2013-04-06 03:35:00,37.0,21.5,30.06,ESE,112,12.0,12.0,53,0.00,,,0.00,VWS V14.01,2013-04-06 08:35:00,
2013-04-06 03:36:00,36.8,21.7,30.06,SE,135,15.6,15.6,54,0.00,,,0.00,VWS V14.01,2013-04-06 08:36:00,
2013-04-06 03:37:00,36.8,21.7,30.05,SE,135,15.6,15.6,54,0.00,,,0.00,VWS V14.01,2013-04-06 08:37:00,
2013-04-06 03:38:00,36.8,21.7,30.06,ESE,112,13.6,15.6,54,0.00,,,0.00,VWS V14.01,2013-04-06 08:38:00,
2013-04-06 03:39:00,36.8,21.7,30.05,ESE,112,13.6,13.6,54,0.00,,,0.00,VWS V14.01,2013-04-06 08:39:00,
2013-04-06 03:40:00,36.8,21.7,30.06,ESE,112,13.6,13.6,54,0.00,,,0.00,VWS V14.01,2013-04-06 08:40:00,
2013-04-06 03:41:00,36.8,21.7,30.06,SE,135,14.5,14.5,54,0.00,,,0.00,VWS V14.01,2013-04-06 08:41:00,
2013-04-06 03:42:00,36.8,21.7,30.05,SE,135,14.5,14.5,54,0.00,,,0.00,VWS V14.01,2013-04-06 08:42:00,
2013-04-06 03:43:00,36.8,21.7,30.05,ESE,112,14.3,14.5,54,0.00,,,0.00,VWS V14.01,2013-04-06 08:43:00,
2013-04-06 03:44:00,36.8,21.7,30.06,ESE,112,14.3,14.3,54,0.00,,,0.00,VWS V14.01,2013-04-06 08:44:00,
2013-04-06 03:45:00,36.8,21.7,30.05,ESE,112,18.3,18.3,54,0.00,,,0.00,VWS V14.01,2013-04-06 08:45:00,
2013-04-06 03:46:00,36.8,21.7,30.05,ESE,112,18.3,18.3,54,0.00,,,0.00,VWS V14.01,2013-04-06 08:46:00,
2013-04-06 03:47:00,36.6,21.5,30.05,ESE,112,14.5,14.5,54,0.00,,,0.00,VWS V14.01,2013-04-06 08:47:00,
2013-04-06 03:48:00,36.6,21.5,30.05,ESE,112,14.5,14.5,54,0.00,,,0.00,VWS V14.01,2013-04-06 08:48:00,
2013-04-06 03:49:00,36.6,22.0,30.05,SE,135,17.2,17.2,55,0.00,,,0.00,VWS V14.01,2013-04-06 08:49:00,
2013-04-06 03:50:00,36.6,22.0,30.05,SE,135,17.2,17.2,55,0.00,,,0.00,VWS V14.01,2013-04-06 08:50:00,
2013-04-06 03:51:00,36.6,22.0,30.05,SE,135,15.4,17.2,55,0.00,,,0.00,VWS V14.01,2013-04-06 08:51:00,
2013-04-06 03:52:00,36.6,22.0,30.05,SE,135,15.4,15.4,55,0.00,,,0.00,VWS V14.01,2013-04-06 08:52:00,
2013-04-06 03:53:00,36.6,22.0,30.05,SE,135,14.3,15.4,55,0.00,,,0.00,VWS V14.01,2013-04-06 08:53:00,
2013-04-06 03:54:00,36.6,22.0,30.05,SE,135,14.3,14.3,55,0.00,,,0.00,VWS V14.01,2013-04-06 08:54:00,
2013-04-06 03:55:00,36.6,22.0,30.05,ESE,112,13.4,14.3,55,0.00,,,0.00,VWS V14.01,2013-04-06 08:55:00,
2013-04-06 03:56:00,36.6,22.0,30.05,ESE,112,13.4,13.4,55,0.00,,,0.00,VWS V14.01,2013-04-06 08:56:00,
2013-04-06 03:57:00,36.5,21.9,30.05,SE,135,14.9,14.9,55,0.00,,,0.00,VWS V14.01,2013-04-06 08:57:00,
2013-04-06 03:58:00,36.5,21.9,30.05,SE,135,14.9,14.9,55,0.00,,,0.00,VWS V14.01,2013-04-06 08:58:00,
2013-04-06 03:59:00,36.5,21.9,30.05,SE,135,14.9,14.9,55,0.00,,,0.00,VWS V14.01,2013-04-06 08:59:00,
2013-04-06 04:00:00,36.5,21.9,30.05,ESE,112,12.7,14.9,55,0.00,,,0.00,VWS V14.01,2013-04-06 09:00:00,
2013-04-06 04:01:00,36.5,22.3,30.05,ESE,112,12.7,12.7,56,0.00,,,0.00,VWS V14.01,2013-04-06 09:01:00,
2013-04-06 04:02:00,36.5,22.3,30.05,SE,135,9.6,9.6,56,0.00,,,0.00,VWS V14.01,2013-04-06 09:02:00,
2013-04-06 04:03:00,36.5,22.3,30.05,SE,135,9.6,9.6,56,0.00,,,0.00,VWS V14.01,2013-04-06 09:03:00,
2013-04-06 04:04:00,36.5,22.3,30.05,SSE,158,11.8,11.8,56,0.00,,,0.00,VWS V14.01,2013-04-06 09:04:00,
2013-04-06 04:05:00,36.5,22.3,30.05,SSE,158,11.8,11.8,56,0.00,,,0.00,VWS V14.01,2013-04-06 09:05:00,
2013-04-06 04:06:00,36.3,22.1,30.05,SSE,158,17.4,17.4,56,0.00,,,0.00,VWS V14.01,2013-04-06 09:06:00,
2013-04-06 04:07:00,36.3,22.1,30.05,SSE,158,17.4,17.4,56,0.00,,,0.00,VWS V14.01,2013-04-06 09:07:00,
2013-04-06 04:08:00,36.5,22.3,30.05,ESE,112,13.1,17.4,56,0.00,,,0.00,VWS V14.01,2013-04-06 09:08:00,
2013-04-06 04:09:00,36.5,22.3,30.05,ESE,112,13.1,13.1,56,0.00,,,0.00,VWS V14.01,2013-04-06 09:09:00,
2013-04-06 04:10:00,36.3,22.1,30.04,ESE,112,14.5,14.5,56,0.00,,,0.00,VWS V14.01,2013-04-06 09:10:00,
2013-04-06 04:11:00,36.3,22.1,30.04,ESE,112,14.5,14.5,56,0.00,,,0.00,VWS V14.01,2013-04-06 09:11:00,
2013-04-06 04:12:00,36.3,22.1,30.04,ESE,112,14.7,14.7,56,0.00,,,0.00,VWS V14.01,2013-04-06 09:12:00,
2013-04-06 04:13:00,36.3,22.5,30.04,ESE,112,14.7,14.7,57,0.00,,,0.00,VWS V14.01,2013-04-06 09:13:00,
2013-04-06 04:14:00,36.3,22.5,30.04,ESE,112,14.7,14.7,57,0.00,,,0.00,VWS V14.01,2013-04-06 09:14:00,
2013-04-06 04:15:00,36.3,22.5,30.05,SE,135,14.0,14.7,57,0.00,,,0.00,VWS V14.01,2013-04-06 09:15:00,
2013-04-06 04:16:00,36.3,22.5,30.05,SE,135,14.0,14.0,57,0.00,,,0.00,VWS V14.01,2013-04-06 09:16:00,
2013-04-06 04:17:00,36.3,22.5,30.05,SE,135,14.3,14.3,57,0.00,,,0.00,VWS V14.01,2013-04-06 09:17:00,
2013-04-06 04:18:00,36.3,22.5,30.04,SE,135,14.3,14.3,57,0.00,,,0.00,VWS V14.01,2013-04-06 09:18:00,
2013-04-06 04:19:00,36.3,22.5,30.04,ESE,112,12.0,14.3,57,0.00,,,0.00,VWS V14.01,2013-04-06 09:19:00,
2013-04-06 04:20:00,36.3,22.5,30.04,ESE,112,12.0,12.0,57,0.00,,,0.00,VWS V14.01,2013-04-06 09:20:00,
2013-04-06 04:21:00,36.3,22.5,30.04,SE,135,13.4,13.4,57,0.00,,,0.00,VWS V14.01,2013-04-06 09:21:00,
2013-04-06 04:22:00,36.3,22.5,30.04,SE,135,13.4,13.4,57,0.00,,,0.00,VWS V14.01,2013-04-06 09:22:00,
2013-04-06 04:23:00,36.1,22.4,30.04,SE,135,19.4,19.4,57,0.00,,,0.00,VWS V14.01,2013-04-06 09:23:00,
2013-04-06 04:24:00,36.1,22.4,30.04,SE,135,19.4,19.4,57,0.00,,,0.00,VWS V14.01,2013-04-06 09:24:00,
2013-04-06 04:25:00,36.3,22.5,30.04,ESE,112,10.2,19.4,57,0.00,,,0.00,VWS V14.01,2013-04-06 09:25:00,
2013-04-06 04:26:00,36.3,22.5,30.04,ESE,112,10.2,10.2,57,0.00,,,0.00,VWS V14.01,2013-04-06 09:26:00,
2013-04-06 04:27:00,36.1,22.4,30.04,ESE,112,17.8,17.8,57,0.00,,,0.00,VWS V14.01,2013-04-06 09:27:00,
2013-04-06 04:28:00,36.1,22.4,30.04,ESE,112,17.8,17.8,57,0.00,,,0.00,VWS V14.01,2013-04-06 09:28:00,
2013-04-06 04:29:00,36.1,22.4,30.04,ESE,112,17.8,17.8,57,0.00,,,0.00,VWS V14.01,2013-04-06 09:29:00,
2013-04-06 04:30:00,36.1,22.4,30.04,SE,135,13.6,17.8,57,0.00,,,0.00,VWS V14.01,2013-04-06 09:30:00,
2013-04-06 04:31:00,36.1,22.4,30.03,SE,135,13.6,13.6,57,0.00,,,0.00,VWS V14.01,2013-04-06 09:31:00,
2013-04-06 04:32:00,36.1,22.4,30.03,SE,135,11.6,11.6,57,0.00,,,0.00,VWS V14.01,2013-04-06 09:32:00,
2013-04-06 04:33:00,36.1,22.8,30.03,SE,135,11.6,11.6,58,0.00,,,0.00,VWS V14.01,2013-04-06 09:33:00,
2013-04-06 04:34:00,35.9,22.6,30.03,ESE,112,12.3,12.3,58,0.00,,,0.00,VWS V14.01,2013-04-06 09:34:00,
2013-04-06 04:35:00,35.9,22.6,30.03,ESE,112,12.3,12.3,58,0.00,,,0.00,VWS V14.01,2013-04-06 09:35:00,
2013-04-06 04:36:00,35.9,23.0,30.04,ESE,112,8.9,12.3,59,0.00,,,0.00,VWS V14.01,2013-04-06 09:36:00,
2013-04-06 04:37:00,35.9,23.0,30.03,ESE,112,8.9,8.9,59,0.00,,,0.00,VWS V14.01,2013-04-06 09:37:00,
2013-04-06 04:38:00,35.7,22.8,30.03,SE,135,13.8,13.8,59,0.00,,,0.00,VWS V14.01,2013-04-06 09:38:00,
2013-04-06 04:39:00,35.7,22.8,30.04,SE,135,13.8,13.8,59,0.00,,,0.00,VWS V14.01,2013-04-06 09:39:00,
2013-04-06 04:40:00,35.9,23.0,30.04,ESE,112,12.5,13.8,59,0.00,,,0.00,VWS V14.01,2013-04-06 09:40:00,
2013-04-06 04:41:00,35.9,23.0,30.03,ESE,112,12.5,12.5,59,0.00,,,0.00,VWS V14.01,2013-04-06 09:41:00,
2013-04-06 04:42:00,35.9,23.0,30.03,ESE,112,17.6,17.6,59,0.00,,,0.00,VWS V14.01,2013-04-06 09:42:00,
2013-04-06 04:43:00,35.9,23.0,30.03,ESE,112,17.6,17.6,59,0.00,,,0.00,VWS V14.01,2013-04-06 09:43:00,
2013-04-06 04:44:00,35.9,23.0,30.04,ESE,112,17.6,17.6,59,0.00,,,0.00,VWS V14.01,2013-04-06 09:44:00,
2013-04-06 04:45:00,35.9,23.0,30.03,ESE,112,13.6,17.6,59,0.00,,,0.00,VWS V14.01,2013-04-06 09:45:00,
2013-04-06 04:46:00,35.9,23.0,30.03,ESE,112,13.6,13.6,59,0.00,,,0.00,VWS V14.01,2013-04-06 09:46:00,
2013-04-06 04:47:00,35.9,23.0,30.03,SE,135,17.4,17.4,59,0.00,,,0.00,VWS V14.01,2013-04-06 09:47:00,
2013-04-06 04:48:00,35.9,23.0,30.03,SE,135,17.4,17.4,59,0.00,,,0.00,VWS V14.01,2013-04-06 09:48:00,
2013-04-06 04:49:00,35.9,23.4,30.03,ESE,112,11.4,17.4,60,0.00,,,0.00,VWS V14.01,2013-04-06 09:49:00,
2013-04-06 04:50:00,35.9,23.4,30.03,ESE,112,11.4,11.4,60,0.00,,,0.00,VWS V14.01,2013-04-06 09:50:00,
2013-04-06 04:51:00,35.7,23.2,30.03,ESE,112,14.3,14.3,60,0.00,,,0.00,VWS V14.01,2013-04-06 09:51:00,
2013-04-06 04:52:00,35.7,23.2,30.03,ESE,112,14.3,14.3,60,0.00,,,0.00,VWS V14.01,2013-04-06 09:52:00,
2013-04-06 04:53:00,35.9,23.0,30.03,SE,135,13.6,14.3,59,0.00,,,0.00,VWS V14.01,2013-04-06 09:53:00,
2013-04-06 04:54:00,35.9,23.0,30.03,SE,135,13.6,13.6,59,0.00,,,0.00,VWS V14.01,2013-04-06 09:54:00,
2013-04-06 04:55:00,35.7,23.2,30.04,ESE,112,10.7,13.6,60,0.00,,,0.00,VWS V14.01,2013-04-06 09:55:00,
2013-04-06 04:56:00,35.7,23.2,30.03,ESE,112,10.7,10.7,60,0.00,,,0.00,VWS V14.01,2013-04-06 09:56:00,
2013-04-06 04:57:00,35.7,23.2,30.03,SE,135,10.9,10.9,60,0.00,,,0.00,VWS V14.01,2013-04-06 09:57:00,
2013-04-06 04:58:00,35.7,23.2,30.03,SE,135,10.9,10.9,60,0.00,,,0.00,VWS V14.01,2013-04-06 09:58:00,
2013-04-06 04:59:00,35.7,23.2,30.03,SE,135,10.9,10.9,60,0.00,,,0.00,VWS V14.01,2013-04-06 09:59:00,
2013-04-06 05:00:00,35.7,23.2,30.03,SE,135,13.4,13.4,60,0.00,,,0.00,VWS V14.01,2013-04-06 10:00:00,
2013-04-06 05:01:00,35.7,23.2,30.03,SE,135,13.4,13.4,60,0.00,,,0.00,VWS V14.01,2013-04-06 10:01:00,
2013-04-06 05:02:00,35.7,23.2,30.03,ESE,112,17.4,17.4,60,0.00,,,0.00,VWS V14.01,2013-04-06 10:02:00,
2013-04-06 05:03:00,35.7,23.2,30.03,ESE,112,17.4,17.4,60,0.00,,,0.00,VWS V14.01,2013-04-06 10:03:00,
2013-04-06 05:04:00,35.7,23.2,30.03,ESE,112,12.3,17.4,60,0.00,,,0.00,VWS V14.01,2013-04-06 10:04:00,
2013-04-06 05:05:00,35.7,23.2,30.03,ESE,112,12.3,12.3,60,0.00,,,0.00,VWS V14.01,2013-04-06 10:05:00,
2013-04-06 05:06:00,35.7,23.6,30.03,ESE,112,16.1,16.1,61,0.00,,,0.00,VWS V14.01,2013-04-06 10:06:00,
2013-04-06 05:07:00,35.7,23.6,30.03,ESE,112,16.1,16.1,61,0.00,,,0.00,VWS V14.01,2013-04-06 10:07:00,
2013-04-06 05:08:00,35.7,23.6,30.03,SE,135,14.0,16.1,61,0.00,,,0.00,VWS V14.01,2013-04-06 10:08:00,
2013-04-06 05:09:00,35.7,23.6,30.03,SE,135,14.0,14.0,61,0.00,,,0.00,VWS V14.01,2013-04-06 10:09:00,
2013-04-06 05:10:00,35.7,23.6,30.02,SE,135,12.0,14.0,61,0.00,,,0.00,VWS V14.01,2013-04-06 10:10:00,
2013-04-06 05:11:00,35.7,23.6,30.02,SE,135,12.0,12.0,61,0.00,,,0.00,VWS V14.01,2013-04-06 10:11:00,
2013-04-06 05:12:00,35.7,23.6,30.02,SE,135,12.0,12.0,61,0.00,,,0.00,VWS V14.01,2013-04-06 10:12:00,
2013-04-06 05:13:00,35.7,23.6,30.02,ESE,112,10.5,12.0,61,0.00,,,0.00,VWS V14.01,2013-04-06 10:13:00,
2013-04-06 05:14:00,35.7,23.6,30.02,ESE,112,10.5,10.5,61,0.00,,,0.00,VWS V14.01,2013-04-06 10:14:00,
2013-04-06 05:15:00,35.7,23.6,30.02,SSE,158,14.3,14.3,61,0.00,,,0.00,VWS V14.01,2013-04-06 10:15:00,
2013-04-06 05:16:00,35.7,23.6,30.02,SSE,158,14.3,14.3,61,0.00,,,0.00,VWS V14.01,2013-04-06 10:16:00,
2013-04-06 05:17:00,36.1,24.0,30.02,SE,135,13.1,13.1,61,0.00,,,0.00,VWS V14.01,2013-04-06 10:17:00,
2013-04-06 05:18:00,36.1,24.0,30.02,SE,135,13.1,13.1,61,0.00,,,0.00,VWS V14.01,2013-04-06 10:18:00,
2013-04-06 05:19:00,35.9,23.8,30.02,ESE,112,15.4,15.4,61,0.00,,,0.00,VWS V14.01,2013-04-06 10:19:00,
2013-04-06 05:20:00,35.9,23.8,30.02,ESE,112,15.4,15.4,61,0.00,,,0.00,VWS V14.01,2013-04-06 10:20:00,
2013-04-06 05:21:00,35.9,23.8,30.02,SE,135,10.7,15.4,61,0.00,,,0.00,VWS V14.01,2013-04-06 10:21:00,
2013-04-06 05:22:00,35.9,23.8,30.02,SE,135,10.7,10.7,61,0.00,,,0.00,VWS V14.01,2013-04-06 10:22:00,
2013-04-06 05:23:00,35.9,23.8,30.02,SE,135,15.2,15.2,61,0.00,,,0.00,VWS V14.01,2013-04-06 10:23:00,
2013-04-06 05:24:00,35.9,23.8,30.02,SE,135,15.2,15.2,61,0.00,,,0.00,VWS V14.01,2013-04-06 10:24:00,
2013-04-06 05:25:00,35.9,23.8,30.02,SE,135,13.4,15.2,61,0.00,,,0.00,VWS V14.01,2013-04-06 10:25:00,
2013-04-06 05:26:00,35.9,23.8,30.02,SE,135,13.4,13.4,61,0.00,,,0.00,VWS V14.01,2013-04-06 10:26:00,
2013-04-06 05:27:00,35.9,23.8,30.02,ESE,112,12.0,12.0,61,0.00,,,0.00,VWS V14.01,2013-04-06 10:27:00,
2013-04-06 05:28:00,35.9,23.8,30.02,ESE,112,12.0,12.0,61,0.00,,,0.00,VWS V14.01,2013-04-06 10:28:00,
2013-04-06 05:29:00,35.9,23.8,30.02,ESE,112,15.2,15.2,61,0.00,,,0.00,VWS V14.01,2013-04-06 10:29:00,
2013-04-06 05:30:00,35.7,23.6,30.02,ESE,112,15.2,15.2,61,0.00,,,0.00,VWS V14.01,2013-04-06 10:30:00,
2013-04-06 05:31:00,35.7,23.6,30.02,ESE,112,15.2,15.2,61,0.00,,,0.00,VWS V14.01,2013-04-06 10:31:00,
2013-04-06 05:32:00,35.9,23.8,30.02,SE,135,14.3,14.3,61,0.00,,,0.00,VWS V14.01,2013-04-06 10:32:00,
2013-04-06 05:33:00,35.9,23.8,30.02,SE,135,14.3,14.3,61,0.00,,,0.00,VWS V14.01,2013-04-06 10:33:00,
2013-04-06 05:34:00,35.9,23.8,30.01,ESE,112,14.5,14.5,61,0.00,,,0.00,VWS V14.01,2013-04-06 10:34:00,
2013-04-06 05:35:00,35.9,23.8,30.02,ESE,112,14.5,14.5,61,0.00,,,0.00,VWS V14.01,2013-04-06 10:35:00,
2013-04-06 05:36:00,36.1,24.0,30.01,SE,135,9.8,14.5,61,0.00,,,0.00,VWS V14.01,2013-04-06 10:36:00,
2013-04-06 05:37:00,36.1,24.0,30.01,SE,135,9.8,9.8,61,0.00,,,0.00,VWS V14.01,2013-04-06 10:37:00,
2013-04-06 05:38:00,36.1,24.0,30.01,SE,135,13.8,13.8,61,0.00,,,0.00,VWS V14.01,2013-04-06 10:38:00,
2013-04-06 05:39:00,36.1,24.0,30.01,SE,135,13.8,13.8,61,0.00,,,0.00,VWS V14.01,2013-04-06 10:39:00,
2013-04-06 05:40:00,36.1,24.0,30.01,SE,135,14.0,14.0,61,0.00,,,0.00,VWS V14.01,2013-04-06 10:40:00,
2013-04-06 05:41:00,36.1,24.0,30.01,SE,135,14.0,14.0,61,0.00,,,0.00,VWS V14.01,2013-04-06 10:41:00,
2013-04-06 05:42:00,36.3,24.1,30.01,SE,135,17.8,17.8,61,0.00,,,0.00,VWS V14.01,2013-04-06 10:42:00,
2013-04-06 05:43:00,36.3,24.2,30.01,SE,135,17.8,17.8,61,0.00,,,0.00,VWS V14.01,2013-04-06 10:43:00,
2013-04-06 05:44:00,36.3,24.2,30.01,ESE,112,14.3,17.8,61,0.00,,,0.00,VWS V14.01,2013-04-06 10:44:00,
2013-04-06 05:45:00,36.3,24.2,30.01,ESE,112,14.3,14.3,61,0.00,,,0.00,VWS V14.01,2013-04-06 10:45:00,
2013-04-06 05:46:00,36.3,24.2,30.01,ESE,112,14.3,14.3,61,0.00,,,0.00,VWS V14.01,2013-04-06 10:46:00,
2013-04-06 05:47:00,36.3,24.1,30.01,SE,135,7.8,7.8,61,0.00,,,0.00,VWS V14.01,2013-04-06 10:47:00,
2013-04-06 05:48:00,36.3,24.2,30.01,SE,135,7.8,7.8,61,0.00,,,0.00,VWS V14.01,2013-04-06 10:48:00,
2013-04-06 05:49:00,36.3,24.2,30.01,SSE,158,14.0,14.0,61,0.00,,,0.00,VWS V14.01,2013-04-06 10:49:00,
2013-04-06 05:50:00,36.3,24.2,30.00,SSE,158,14.0,14.0,61,0.00,,,0.00,VWS V14.01,2013-04-06 10:50:00,
2013-04-06 05:51:00,36.5,24.3,30.00,SE,135,12.7,14.0,61,0.00,,,0.00,VWS V14.01,2013-04-06 10:51:00,
2013-04-06 05:52:00,36.5,24.3,30.00,SE,135,12.7,12.7,61,0.00,,,0.00,VWS V14.01,2013-04-06 10:52:00,
2013-04-06 05:53:00,36.5,24.3,30.00,ESE,112,14.3,14.3,61,0.00,,,0.00,VWS V14.01,2013-04-06 10:53:00,
2013-04-06 05:54:00,36.5,24.3,30.00,ESE,112,14.3,14.3,61,0.00,,,0.00,VWS V14.01,2013-04-06 10:54:00,
2013-04-06 05:55:00,36.5,24.3,30.00,SE,135,15.2,15.2,61,0.00,,,0.00,VWS V14.01,2013-04-06 10:55:00,
2013-04-06 05:56:00,36.5,24.3,30.00,SE,135,15.2,15.2,61,0.00,,,0.00,VWS V14.01,2013-04-06 10:56:00,
2013-04-06 05:57:00,36.5,24.3,30.00,SE,135,10.9,10.9,61,0.00,,,0.00,VWS V14.01,2013-04-06 10:57:00,
2013-04-06 05:58:00,36.5,24.3,30.00,SE,135,10.9,10.9,61,0.00,,,0.00,VWS V14.01,2013-04-06 10:58:00,
2013-04-06 05:59:00,36.5,24.7,30.00,SE,135,10.9,10.9,62,0.00,,,0.00,VWS V14.01,2013-04-06 10:59:00,
2013-04-06 06:00:00,36.5,24.7,30.00,ESE,112,15.8,15.8,62,0.00,,,0.00,VWS V14.01,2013-04-06 11:00:00,
2013-04-06 06:01:00,36.5,24.7,30.00,ESE,112,15.8,15.8,62,0.00,,,0.00,VWS V14.01,2013-04-06 11:01:00,
2013-04-06 06:02:00,36.3,24.5,30.00,SSE,158,13.8,13.8,62,0.00,,,0.00,VWS V14.01,2013-04-06 11:02:00,
2013-04-06 06:03:00,36.3,24.5,30.00,SSE,158,13.8,13.8,62,0.00,,,0.00,VWS V14.01,2013-04-06 11:03:00,
2013-04-06 06:04:00,36.5,24.7,30.00,SSE,158,12.0,13.8,62,0.00,,,0.00,VWS V14.01,2013-04-06 11:04:00,
2013-04-06 06:05:00,36.5,24.7,30.00,SSE,158,12.0,12.0,62,0.00,,,0.00,VWS V14.01,2013-04-06 11:05:00,
2013-04-06 06:06:00,36.5,24.7,30.00,ESE,112,9.6,12.0,62,0.00,,,0.00,VWS V14.01,2013-04-06 11:06:00,
2013-04-06 06:07:00,36.5,24.7,30.00,ESE,112,9.6,9.6,62,0.00,,,0.00,VWS V14.01,2013-04-06 11:07:00,
2013-04-06 06:08:00,36.5,24.7,30.00,SE,135,14.3,14.3,62,0.00,,,0.00,VWS V14.01,2013-04-06 11:08:00,
2013-04-06 06:09:00,36.5,24.7,30.00,SE,135,14.3,14.3,62,0.00,,,0.00,VWS V14.01,2013-04-06 11:09:00,
2013-04-06 06:10:00,36.5,24.7,30.00,SE,135,13.8,14.3,62,0.00,,,0.00,VWS V14.01,2013-04-06 11:10:00,
2013-04-06 06:11:00,36.5,24.7,30.00,SE,135,13.8,13.8,62,0.00,,,0.00,VWS V14.01,2013-04-06 11:11:00,
2013-04-06 06:12:00,36.5,24.7,30.00,SE,135,13.8,13.8,62,0.00,,,0.00,VWS V14.01,2013-04-06 11:12:00,
2013-04-06 06:13:00,36.5,24.7,30.00,SE,135,5.5,13.8,62,0.00,,,0.00,VWS V14.01,2013-04-06 11:13:00,
2013-04-06 06:14:00,36.5,24.7,30.00,ESE,112,12.0,12.0,62,0.00,,,0.00,VWS V14.01,2013-04-06 11:14:00,
2013-04-06 06:15:00,36.5,24.7,30.00,ESE,112,12.0,12.0,62,0.00,,,0.00,VWS V14.01,2013-04-06 11:15:00,
2013-04-06 06:16:00,36.5,24.7,30.00,ESE,112,12.0,12.0,62,0.00,,,0.00,VWS V14.01,2013-04-06 11:16:00,
2013-04-06 06:17:00,36.5,24.7,30.00,SE,135,17.0,17.0,62,0.00,,,0.00,VWS V14.01,2013-04-06 11:17:00,
2013-04-06 06:18:00,36.5,24.7,30.00,SE,135,17.0,17.0,62,0.00,,,0.00,VWS V14.01,2013-04-06 11:18:00,
2013-04-06 06:19:00,36.5,24.7,29.99,SE,135,15.4,17.0,62,0.00,,,0.00,VWS V14.01,2013-04-06 11:19:00,
2013-04-06 06:20:00,36.5,24.7,29.99,SE,135,15.4,15.4,62,0.00,,,0.00,VWS V14.01,2013-04-06 11:20:00,
2013-04-06 06:21:00,36.5,25.1,29.99,ESE,112,7.6,15.4,63,0.00,,,0.00,VWS V14.01,2013-04-06 11:21:00,
2013-04-06 06:22:00,36.5,25.1,30.00,ESE,112,7.6,7.6,63,0.00,,,0.00,VWS V14.01,2013-04-06 11:22:00,
2013-04-06 06:23:00,36.5,25.1,29.99,SE,135,10.5,10.5,63,0.00,,,0.00,VWS V14.01,2013-04-06 11:23:00,
2013-04-06 06:24:00,36.5,25.1,29.99,SE,135,10.5,10.5,63,0.00,,,0.00,VWS V14.01,2013-04-06 11:24:00,
2013-04-06 06:25:00,36.5,25.1,29.99,SE,135,12.7,12.7,63,0.00,,,0.00,VWS V14.01,2013-04-06 11:25:00,
2013-04-06 06:26:00,36.5,25.1,29.99,SE,135,12.7,12.7,63,0.00,,,0.00,VWS V14.01,2013-04-06 11:26:00,
2013-04-06 06:27:00,36.5,25.1,29.99,SE,135,11.1,11.1,63,0.00,,,0.00,VWS V14.01,2013-04-06 11:27:00,
2013-04-06 06:28:00,36.5,25.1,29.99,SE,135,11.1,11.1,63,0.00,,,0.00,VWS V14.01,2013-04-06 11:28:00,
2013-04-06 06:29:00,36.5,25.1,29.99,SE,135,13.6,13.6,63,0.00,,,0.00,VWS V14.01,2013-04-06 11:29:00,
2013-04-06 06:30:00,36.5,25.1,29.99,SE,135,13.6,13.6,63,0.00,,,0.00,VWS V14.01,2013-04-06 11:30:00,
2013-04-06 06:31:00,36.5,25.1,29.99,SE,135,13.6,13.6,63,0.00,,,0.00,VWS V14.01,2013-04-06 11:31:00,
2013-04-06 06:32:00,36.5,25.1,29.99,ESE,112,12.9,12.9,63,0.00,,,0.00,VWS V14.01,2013-04-06 11:32:00,
2013-04-06 06:33:00,36.5,25.1,29.99,ESE,112,12.9,12.9,63,0.00,,,0.00,VWS V14.01,2013-04-06 11:33:00,
2013-04-06 06:34:00,36.5,25.1,29.99,ESE,112,7.1,12.9,63,0.00,,,0.00,VWS V14.01,2013-04-06 11:34:00,
2013-04-06 06:35:00,36.5,25.1,29.99,ESE,112,7.1,7.1,63,0.00,,,0.00,VWS V14.01,2013-04-06 11:35:00,
2013-04-06 06:36:00,36.5,25.5,29.99,ESE,112,8.7,8.7,64,0.00,,,0.00,VWS V14.01,2013-04-06 11:36:00,
2013-04-06 06:37:00,36.5,25.5,29.99,ESE,112,8.7,8.7,64,0.00,,,0.00,VWS V14.01,2013-04-06 11:37:00,
2013-04-06 06:38:00,36.5,25.5,29.99,ESE,112,8.7,8.7,64,0.00,,,0.00,VWS V14.01,2013-04-06 11:38:00,
2013-04-06 06:39:00,36.5,25.5,29.99,ESE,112,9.3,9.3,64,0.00,,,0.00,VWS V14.01,2013-04-06 11:39:00,
2013-04-06 06:40:00,36.5,25.5,29.99,ESE,112,10.7,10.7,64,0.00,,,0.00,VWS V14.01,2013-04-06 11:40:00,
2013-04-06 06:41:00,36.5,25.5,29.99,ESE,112,10.7,10.7,64,0.00,,,0.00,VWS V14.01,2013-04-06 11:41:00,
2013-04-06 06:42:00,36.5,25.5,29.99,ESE,112,10.9,10.9,64,0.00,,,0.00,VWS V14.01,2013-04-06 11:42:00,
2013-04-06 06:43:00,36.5,25.5,29.99,ESE,112,10.9,10.9,64,0.00,,,0.00,VWS V14.01,2013-04-06 11:43:00,
2013-04-06 06:44:00,36.5,25.5,29.99,ESE,112,10.9,10.9,64,0.00,,,0.00,VWS V14.01,2013-04-06 11:44:00,
2013-04-06 06:45:00,36.5,25.5,29.99,ESE,112,9.1,10.9,64,0.00,,,0.00,VWS V14.01,2013-04-06 11:45:00,
2013-04-06 06:46:00,36.5,25.5,29.99,ESE,112,9.1,9.1,64,0.00,,,0.00,VWS V14.01,2013-04-06 11:46:00,
2013-04-06 06:47:00,36.6,25.6,29.99,SE,135,6.7,9.1,64,0.00,,,0.00,VWS V14.01,2013-04-06 11:47:00,
2013-04-06 06:48:00,36.6,25.6,29.99,SE,135,6.7,6.7,64,0.00,,,0.00,VWS V14.01,2013-04-06 11:48:00,
2013-04-06 06:49:00,36.5,25.5,29.98,ESE,112,8.0,8.0,64,0.00,,,0.00,VWS V14.01,2013-04-06 11:49:00,
2013-04-06 06:50:00,36.5,25.5,29.98,ESE,112,8.0,8.0,64,0.00,,,0.00,VWS V14.01,2013-04-06 11:50:00,
2013-04-06 06:51:00,36.6,26.0,29.99,SE,135,9.3,9.3,65,0.00,,,0.00,VWS V14.01,2013-04-06 11:51:00,
2013-04-06 06:52:00,36.6,26.0,29.99,SE,135,9.3,9.3,65,0.00,,,0.00,VWS V14.01,2013-04-06 11:52:00,
2013-04-06 06:53:00,36.6,26.0,29.99,SE,135,9.3,9.3,65,0.00,,,0.00,VWS V14.01,2013-04-06 11:53:00,
2013-04-06 06:54:00,36.6,26.0,29.99,SE,135,11.4,11.4,65,0.00,,,0.00,VWS V14.01,2013-04-06 11:54:00,
2013-04-06 06:55:00,36.6,26.0,29.99,SE,135,8.2,11.4,65,0.00,,,0.00,VWS V14.01,2013-04-06 11:55:00,
2013-04-06 06:56:00,36.6,26.0,29.99,SE,135,8.2,8.2,65,0.00,,,0.00,VWS V14.01,2013-04-06 11:56:00,
2013-04-06 06:57:00,36.6,26.0,29.98,ESE,112,10.0,10.0,65,0.00,,,0.00,VWS V14.01,2013-04-06 11:57:00,
2013-04-06 06:58:00,36.6,26.0,29.98,ESE,112,10.0,10.0,65,0.00,,,0.00,VWS V14.01,2013-04-06 11:58:00,
2013-04-06 06:59:00,37.0,26.3,29.99,SE,135,10.9,10.9,65,0.00,,,0.00,VWS V14.01,2013-04-06 11:59:00,
2013-04-06 07:00:00,37.0,26.3,29.99,SE,135,10.9,10.9,65,0.00,,,0.00,VWS V14.01,2013-04-06 12:00:00,
2013-04-06 07:01:00,37.0,26.3,29.99,SE,135,10.9,10.9,65,0.00,,,0.00,VWS V14.01,2013-04-06 12:01:00,
2013-04-06 07:02:00,37.2,26.5,29.98,SE,135,11.8,11.8,65,0.00,,,0.00,VWS V14.01,2013-04-06 12:02:00,
2013-04-06 07:03:00,37.2,26.5,29.98,SE,135,11.8,11.8,65,0.00,,,0.00,VWS V14.01,2013-04-06 12:03:00,
2013-04-06 07:04:00,37.2,26.5,29.98,ESE,112,12.7,12.7,65,0.00,,,0.00,VWS V14.01,2013-04-06 12:04:00,
2013-04-06 07:05:00,37.2,26.5,29.98,ESE,112,12.7,12.7,65,0.00,,,0.00,VWS V14.01,2013-04-06 12:05:00,
2013-04-06 07:06:00,37.4,26.4,29.99,SE,135,10.0,12.7,64,0.00,,,0.00,VWS V14.01,2013-04-06 12:06:00,
2013-04-06 07:07:00,37.4,26.4,29.98,SE,135,10.0,10.0,64,0.00,,,0.00,VWS V14.01,2013-04-06 12:07:00,
2013-04-06 07:08:00,37.4,26.4,29.98,SE,135,10.0,10.0,64,0.00,,,0.00,VWS V14.01,2013-04-06 12:08:00,
2013-04-06 07:09:00,37.5,26.5,29.98,SE,135,7.8,7.8,64,0.00,,,0.00,VWS V14.01,2013-04-06 12:09:00,
2013-04-06 07:10:00,37.5,26.8,29.98,SE,135,7.1,7.8,65,0.00,,,0.00,VWS V14.01,2013-04-06 12:10:00,
2013-04-06 07:11:00,37.5,26.8,29.98,SE,135,7.1,7.1,65,0.00,,,0.00,VWS V14.01,2013-04-06 12:11:00,
2013-04-06 07:12:00,37.5,26.5,29.98,SE,135,6.4,7.1,64,0.00,,,0.00,VWS V14.01,2013-04-06 12:12:00,
2013-04-06 07:13:00,37.5,26.5,29.98,SE,135,6.4,6.4,64,0.00,,,0.00,VWS V14.01,2013-04-06 12:13:00,
2013-04-06 07:14:00,37.5,26.5,29.98,SE,135,9.1,9.1,64,0.00,,,0.00,VWS V14.01,2013-04-06 12:14:00,
2013-04-06 07:15:00,37.7,26.6,29.98,SE,135,9.1,9.1,64,0.00,,,0.00,VWS V14.01,2013-04-06 12:15:00,
2013-04-06 07:16:00,37.7,26.6,29.99,SE,135,9.1,9.1,64,0.00,,,0.00,VWS V14.01,2013-04-06 12:16:00,
2013-04-06 07:17:00,37.7,26.6,29.98,SE,135,8.2,9.1,64,0.00,,,0.00,VWS V14.01,2013-04-06 12:17:00,
2013-04-06 07:18:00,37.7,26.6,29.98,SE,135,8.2,8.2,64,0.00,,,0.00,VWS V14.01,2013-04-06 12:18:00,
2013-04-06 07:19:00,37.9,26.8,29.98,ESE,112,10.5,10.5,64,0.00,,,0.00,VWS V14.01,2013-04-06 12:19:00,
2013-04-06 07:20:00,37.9,26.8,29.98,ESE,112,10.5,10.5,64,0.00,,,0.00,VWS V14.01,2013-04-06 12:20:00,
2013-04-06 07:21:00,37.9,26.8,29.98,SE,135,11.1,11.1,64,0.00,,,0.00,VWS V14.01,2013-04-06 12:21:00,
2013-04-06 07:22:00,37.9,26.8,29.98,SE,135,11.1,11.1,64,0.00,,,0.00,VWS V14.01,2013-04-06 12:22:00,
2013-04-06 07:23:00,37.9,26.8,29.98,SE,135,11.1,11.1,64,0.00,,,0.00,VWS V14.01,2013-04-06 12:23:00,
2013-04-06 07:24:00,37.9,26.8,29.98,SE,135,3.8,3.8,64,0.00,,,0.00,VWS V14.01,2013-04-06 12:24:00,
2013-04-06 07:25:00,37.9,26.8,29.98,SE,135,10.7,10.7,64,0.00,,,0.00,VWS V14.01,2013-04-06 12:25:00,
2013-04-06 07:26:00,37.9,26.8,29.98,SE,135,10.7,10.7,64,0.00,,,0.00,VWS V14.01,2013-04-06 12:26:00,
2013-04-06 07:27:00,38.1,27.0,29.98,SE,135,10.0,10.7,64,0.00,,,0.00,VWS V14.01,2013-04-06 12:27:00,
2013-04-06 07:28:00,38.1,27.0,29.98,SE,135,10.0,10.0,64,0.00,,,0.00,VWS V14.01,2013-04-06 12:28:00,
2013-04-06 07:29:00,38.1,27.0,29.98,SE,135,10.7,10.7,64,0.00,,,0.00,VWS V14.01,2013-04-06 12:29:00,
2013-04-06 07:30:00,38.1,27.0,29.98,SE,135,10.7,10.7,64,0.00,,,0.00,VWS V14.01,2013-04-06 12:30:00,
2013-04-06 07:31:00,38.1,27.0,29.98,SE,135,10.2,10.7,64,0.00,,,0.00,VWS V14.01,2013-04-06 12:31:00,
2013-04-06 07:32:00,38.1,27.0,29.98,SE,135,10.2,10.2,64,0.00,,,0.00,VWS V14.01,2013-04-06 12:32:00,
2013-04-06 07:33:00,38.1,27.0,29.98,SE,135,10.2,10.2,64,0.00,,,0.00,VWS V14.01,2013-04-06 12:33:00,
2013-04-06 07:34:00,38.3,26.8,29.98,SSE,158,8.7,10.2,63,0.00,,,0.00,VWS V14.01,2013-04-06 12:34:00,
2013-04-06 07:35:00,38.3,26.8,29.97,SSE,158,8.7,8.7,63,0.00,,,0.00,VWS V14.01,2013-04-06 12:35:00,
2013-04-06 07:36:00,38.3,26.8,29.98,SSE,158,12.9,12.9,63,0.00,,,0.00,VWS V14.01,2013-04-06 12:36:00,
2013-04-06 07:37:00,38.3,26.8,29.97,SSE,158,12.9,12.9,63,0.00,,,0.00,VWS V14.01,2013-04-06 12:37:00,
2013-04-06 07:38:00,38.3,27.2,29.97,SE,135,10.5,12.9,64,0.00,,,0.00,VWS V14.01,2013-04-06 12:38:00,
2013-04-06 07:39:00,38.3,27.2,29.97,SE,135,10.5,10.5,64,0.00,,,0.00,VWS V14.01,2013-04-06 12:39:00,
2013-04-06 07:40:00,38.4,27.3,29.97,SSE,158,5.5,10.5,64,0.00,,,0.00,VWS V14.01,2013-04-06 12:40:00,
2013-04-06 07:41:00,38.4,27.3,29.97,SSE,158,5.5,5.5,64,0.00,,,0.00,VWS V14.01,2013-04-06 12:41:00,
2013-04-06 07:42:00,38.4,27.3,29.96,SE,135,8.7,8.7,64,0.00,,,0.00,VWS V14.01,2013-04-06 12:42:00,
2013-04-06 07:43:00,38.4,27.3,29.96,SE,135,8.7,8.7,64,0.00,,,0.00,VWS V14.01,2013-04-06 12:43:00,
2013-04-06 07:44:00,38.4,27.3,29.96,SE,135,6.7,8.7,64,0.00,,,0.00,VWS V14.01,2013-04-06 12:44:00,
2013-04-06 07:45:00,38.4,27.3,29.96,SE,135,6.7,6.7,64,0.00,,,0.00,VWS V14.01,2013-04-06 12:45:00,
2013-04-06 07:46:00,38.4,27.3,29.96,SE,135,13.4,13.4,64,0.00,,,0.00,VWS V14.01,2013-04-06 12:46:00,
2013-04-06 07:47:00,38.4,27.3,29.96,SE,135,13.4,13.4,64,0.00,,,0.00,VWS V14.01,2013-04-06 12:47:00,
2013-04-06 07:48:00,38.4,27.3,29.95,SE,135,13.4,13.4,64,0.00,,,0.00,VWS V14.01,2013-04-06 12:48:00,
2013-04-06 07:49:00,38.8,27.7,29.95,SE,135,13.1,13.4,64,0.00,,,0.00,VWS V14.01,2013-04-06 12:49:00,
2013-04-06 07:50:00,38.8,27.7,29.95,SE,135,13.1,13.1,64,0.00,,,0.00,VWS V14.01,2013-04-06 12:50:00,
2013-04-06 07:51:00,38.8,27.7,29.95,SE,135,10.9,13.1,64,0.00,,,0.00,VWS V14.01,2013-04-06 12:51:00,
2013-04-06 07:52:00,38.8,27.7,29.95,SE,135,10.9,10.9,64,0.00,,,0.00,VWS V14.01,2013-04-06 12:52:00,
2013-04-06 07:53:00,38.8,27.7,29.95,ESE,112,12.0,12.0,64,0.00,,,0.00,VWS V14.01,2013-04-06 12:53:00,
2013-04-06 07:54:00,38.8,27.7,29.95,ESE,112,12.0,12.0,64,0.00,,,0.00,VWS V14.01,2013-04-06 12:54:00,
2013-04-06 07:55:00,38.8,28.1,29.95,SE,135,4.9,12.0,65,0.00,,,0.00,VWS V14.01,2013-04-06 12:55:00,
2013-04-06 07:56:00,38.8,28.1,29.95,SE,135,4.9,4.9,65,0.00,,,0.00,VWS V14.01,2013-04-06 12:56:00,
2013-04-06 07:57:00,38.8,27.7,29.95,SSE,158,18.3,18.3,64,0.00,,,0.00,VWS V14.01,2013-04-06 12:57:00,
2013-04-06 07:58:00,38.8,27.7,29.94,SSE,158,18.3,18.3,64,0.00,,,0.00,VWS V14.01,2013-04-06 12:58:00,
2013-04-06 07:59:00,39.0,27.9,29.94,SE,135,15.6,18.3,64,0.00,,,0.00,VWS V14.01,2013-04-06 12:59:00,
2013-04-06 08:00:00,39.0,27.9,29.95,SE,135,15.6,15.6,64,0.00,,,0.00,VWS V14.01,2013-04-06 13:00:00,
2013-04-06 08:01:00,38.8,27.7,29.94,SE,135,10.9,15.6,64,0.00,,,0.00,VWS V14.01,2013-04-06 13:01:00,
2013-04-06 08:02:00,38.8,27.7,29.94,SE,135,10.9,10.9,64,0.00,,,0.00,VWS V14.01,2013-04-06 13:02:00,
2013-04-06 08:03:00,38.8,27.7,29.94,SE,135,10.9,10.9,64,0.00,,,0.00,VWS V14.01,2013-04-06 13:03:00,
2013-04-06 08:04:00,38.8,27.7,29.95,SE,135,10.2,10.9,64,0.00,,,0.00,VWS V14.01,2013-04-06 13:04:00,
2013-04-06 08:05:00,38.8,27.7,29.94,SE,135,10.2,10.2,64,0.00,,,0.00,VWS V14.01,2013-04-06 13:05:00,
2013-04-06 08:06:00,38.8,27.7,29.95,ESE,112,7.6,10.2,64,0.00,,,0.00,VWS V14.01,2013-04-06 13:06:00,
2013-04-06 08:07:00,38.8,27.7,29.94,ESE,112,7.6,7.6,64,0.00,,,0.00,VWS V14.01,2013-04-06 13:07:00,
2013-04-06 08:08:00,38.8,27.7,29.94,SE,135,15.2,15.2,64,0.00,,,0.00,VWS V14.01,2013-04-06 13:08:00,
2013-04-06 08:09:00,38.8,27.7,29.94,SE,135,15.2,15.2,64,0.00,,,0.00,VWS V14.01,2013-04-06 13:09:00,
2013-04-06 08:10:00,39.0,28.2,29.94,SE,135,6.4,15.2,65,0.00,,,0.00,VWS V14.01,2013-04-06 13:10:00,
2013-04-06 08:11:00,39.0,28.2,29.93,SE,135,6.4,6.4,65,0.00,,,0.00,VWS V14.01,2013-04-06 13:11:00,
2013-04-06 08:12:00,39.0,28.2,29.93,SE,135,10.2,10.2,65,0.00,,,0.00,VWS V14.01,2013-04-06 13:12:00,
2013-04-06 08:13:00,39.0,28.2,29.93,SE,135,10.2,10.2,65,0.00,,,0.00,VWS V14.01,2013-04-06 13:13:00,
2013-04-06 08:14:00,39.2,28.1,29.93,SE,135,9.6,10.2,64,0.00,,,0.00,VWS V14.01,2013-04-06 13:14:00,
2013-04-06 08:15:00,39.2,28.1,29.92,SE,135,9.6,9.6,64,0.00,,,0.00,VWS V14.01,2013-04-06 13:15:00,
2013-04-06 08:16:00,39.3,28.2,29.92,SE,135,10.9,10.9,64,0.00,,,0.00,VWS V14.01,2013-04-06 13:16:00,
2013-04-06 08:17:00,39.3,28.2,29.92,SE,135,10.9,10.9,64,0.00,,,0.00,VWS V14.01,2013-04-06 13:17:00,
2013-04-06 08:18:00,39.3,28.2,29.93,SE,135,9.8,9.8,64,0.00,,,0.00,VWS V14.01,2013-04-06 13:18:00,
2013-04-06 08:19:00,39.5,28.4,29.93,SE,135,9.8,9.8,64,0.00,,,0.00,VWS V14.01,2013-04-06 13:19:00,
2013-04-06 08:20:00,39.5,28.4,29.92,SE,135,9.8,9.8,64,0.00,,,0.00,VWS V14.01,2013-04-06 13:20:00,
2013-04-06 08:21:00,39.7,28.5,29.92,SE,135,5.1,9.8,64,0.00,,,0.00,VWS V14.01,2013-04-06 13:21:00,
2013-04-06 08:22:00,39.7,28.5,29.92,SE,135,5.1,5.1,64,0.00,,,0.00,VWS V14.01,2013-04-06 13:22:00,
2013-04-06 08:23:00,39.9,28.7,29.92,SE,135,12.9,12.9,64,0.00,,,0.00,VWS V14.01,2013-04-06 13:23:00,
2013-04-06 08:24:00,39.9,28.7,29.92,SE,135,12.9,12.9,64,0.00,,,0.00,VWS V14.01,2013-04-06 13:24:00,
2013-04-06 08:25:00,40.1,28.9,29.93,SE,135,10.9,12.9,64,0.00,,,0.00,VWS V14.01,2013-04-06 13:25:00,
2013-04-06 08:26:00,40.1,28.9,29.93,SE,135,10.9,10.9,64,0.00,,,0.00,VWS V14.01,2013-04-06 13:26:00,
2013-04-06 08:27:00,40.2,29.0,29.93,SE,135,9.6,10.9,64,0.00,,,0.00,VWS V14.01,2013-04-06 13:27:00,
2013-04-06 08:28:00,40.2,29.0,29.92,SE,135,9.6,9.6,64,0.00,,,0.00,VWS V14.01,2013-04-06 13:28:00,
2013-04-06 08:29:00,40.6,29.0,29.92,SE,135,10.5,10.5,63,0.00,,,0.00,VWS V14.01,2013-04-06 13:29:00,
2013-04-06 08:30:00,40.6,29.0,29.93,SE,135,10.5,10.5,63,0.00,,,0.00,VWS V14.01,2013-04-06 13:30:00,
2013-04-06 08:31:00,40.6,29.0,29.92,SE,135,10.5,10.5,63,0.00,,,0.00,VWS V14.01,2013-04-06 13:31:00,
2013-04-06 08:32:00,40.8,29.2,29.92,SE,135,8.9,10.5,63,0.00,,,0.00,VWS V14.01,2013-04-06 13:32:00,
2013-04-06 08:33:00,40.8,29.2,29.92,SSE,158,15.4,15.4,63,0.00,,,0.00,VWS V14.01,2013-04-06 13:33:00,
2013-04-06 08:34:00,40.8,29.2,29.92,SSE,158,15.4,15.4,63,0.00,,,0.00,VWS V14.01,2013-04-06 13:34:00,
2013-04-06 08:35:00,40.8,29.2,29.93,SSE,158,15.4,15.4,63,0.00,,,0.00,VWS V14.01,2013-04-06 13:35:00,
2013-04-06 08:36:00,40.8,28.8,29.92,SSE,158,9.6,15.4,62,0.00,,,0.00,VWS V14.01,2013-04-06 13:36:00,
2013-04-06 08:37:00,40.8,28.8,29.92,SSE,158,9.6,9.6,62,0.00,,,0.00,VWS V14.01,2013-04-06 13:37:00,
2013-04-06 08:38:00,41.1,29.1,29.92,SSE,158,10.5,10.5,62,0.00,,,0.00,VWS V14.01,2013-04-06 13:38:00,
2013-04-06 08:39:00,41.1,29.1,29.92,SSE,158,10.5,10.5,62,0.00,,,0.00,VWS V14.01,2013-04-06 13:39:00,
2013-04-06 08:40:00,41.1,29.1,29.92,SE,135,12.5,12.5,62,0.00,,,0.00,VWS V14.01,2013-04-06 13:40:00,
2013-04-06 08:41:00,41.1,29.1,29.92,SE,135,12.5,12.5,62,0.00,,,0.00,VWS V14.01,2013-04-06 13:41:00,
2013-04-06 08:42:00,41.3,29.3,29.92,SSE,158,8.2,12.5,62,0.00,,,0.00,VWS V14.01,2013-04-06 13:42:00,
2013-04-06 08:43:00,41.3,29.3,29.92,SSE,158,8.2,8.2,62,0.00,,,0.00,VWS V14.01,2013-04-06 13:43:00,
2013-04-06 08:44:00,41.3,29.3,29.92,SSE,158,5.5,8.2,62,0.00,,,0.00,VWS V14.01,2013-04-06 13:44:00,
2013-04-06 08:45:00,41.3,29.3,29.92,SSE,158,5.5,5.5,62,0.00,,,0.00,VWS V14.01,2013-04-06 13:45:00,
2013-04-06 08:46:00,41.5,29.5,29.92,SE,135,12.9,12.9,62,0.00,,,0.00,VWS V14.01,2013-04-06 13:46:00,
2013-04-06 08:47:00,41.5,29.5,29.92,SE,135,12.9,12.9,62,0.00,,,0.00,VWS V14.01,2013-04-06 13:47:00,
2013-04-06 08:48:00,41.5,29.5,29.92,SE,135,12.9,12.9,62,0.00,,,0.00,VWS V14.01,2013-04-06 13:48:00,
2013-04-06 08:49:00,41.5,29.5,29.92,SE,135,8.5,12.9,62,0.00,,,0.00,VWS V14.01,2013-04-06 13:49:00,
2013-04-06 08:50:00,41.5,29.5,29.92,SE,135,8.5,8.5,62,0.00,,,0.00,VWS V14.01,2013-04-06 13:50:00,
2013-04-06 08:51:00,41.5,29.5,29.92,SE,135,13.4,13.4,62,0.00,,,0.00,VWS V14.01,2013-04-06 13:51:00,
2013-04-06 08:52:00,41.5,29.5,29.92,SE,135,13.4,13.4,62,0.00,,,0.00,VWS V14.01,2013-04-06 13:52:00,
2013-04-06 08:53:00,41.5,29.5,29.92,SSE,158,14.0,14.0,62,0.00,,,0.00,VWS V14.01,2013-04-06 13:53:00,
2013-04-06 08:54:00,41.5,29.5,29.92,SSE,158,14.0,14.0,62,0.00,,,0.00,VWS V14.01,2013-04-06 13:54:00,
2013-04-06 08:55:00,41.5,29.5,29.92,SE,135,12.7,14.0,62,0.00,,,0.00,VWS V14.01,2013-04-06 13:55:00,
2013-04-06 08:56:00,41.5,29.5,29.92,SE,135,12.7,12.7,62,0.00,,,0.00,VWS V14.01,2013-04-06 13:56:00,
2013-04-06 08:57:00,41.5,29.5,29.92,SE,135,8.2,12.7,62,0.00,,,0.00,VWS V14.01,2013-04-06 13:57:00,
2013-04-06 08:58:00,41.5,29.5,29.91,SE,135,8.2,8.2,62,0.00,,,0.00,VWS V14.01,2013-04-06 13:58:00,
2013-04-06 08:59:00,41.5,29.5,29.91,SE,135,9.6,9.6,62,0.00,,,0.00,VWS V14.01,2013-04-06 13:59:00,
2013-04-06 09:00:00,41.5,29.5,29.91,SE,135,9.6,9.6,62,0.00,,,0.00,VWS V14.01,2013-04-06 14:00:00,
2013-04-06 09:01:00,41.5,29.5,29.91,SSE,158,8.9,9.6,62,0.00,,,0.00,VWS V14.01,2013-04-06 14:01:00,
2013-04-06 09:02:00,41.5,29.5,29.91,SSE,158,8.9,8.9,62,0.00,,,0.00,VWS V14.01,2013-04-06 14:02:00,
2013-04-06 09:03:00,41.5,29.5,29.91,SE,135,10.7,10.7,62,0.00,,,0.00,VWS V14.01,2013-04-06 14:03:00,
2013-04-06 09:04:00,41.5,29.5,29.91,SE,135,10.7,10.7,62,0.00,,,0.00,VWS V14.01,2013-04-06 14:04:00,
2013-04-06 09:05:00,41.5,29.5,29.91,SE,135,10.7,10.7,62,0.00,,,0.00,VWS V14.01,2013-04-06 14:05:00,
2013-04-06 09:06:00,41.5,29.5,29.91,SE,135,6.9,10.7,62,0.00,,,0.00,VWS V14.01,2013-04-06 14:06:00,
2013-04-06 09:07:00,41.5,29.5,29.91,SE,135,6.9,6.9,62,0.00,,,0.00,VWS V14.01,2013-04-06 14:07:00,
2013-04-06 09:08:00,41.5,29.5,29.91,SSE,158,11.6,11.6,62,0.00,,,0.00,VWS V14.01,2013-04-06 14:08:00,
2013-04-06 09:09:00,41.5,29.5,29.91,SSE,158,11.6,11.6,62,0.00,,,0.00,VWS V14.01,2013-04-06 14:09:00,
2013-04-06 09:10:00,41.5,29.5,29.90,SSE,158,5.8,11.6,62,0.00,,,0.00,VWS V14.01,2013-04-06 14:10:00,
2013-04-06 09:11:00,41.5,29.5,29.90,SSE,158,5.8,5.8,62,0.00,,,0.00,VWS V14.01,2013-04-06 14:11:00,
2013-04-06 09:12:00,41.5,29.9,29.90,SSE,158,6.7,6.7,63,0.00,,,0.00,VWS V14.01,2013-04-06 14:12:00,
2013-04-06 09:13:00,41.5,29.9,29.90,SSE,158,6.7,6.7,63,0.00,,,0.00,VWS V14.01,2013-04-06 14:13:00,
2013-04-06 09:14:00,41.5,29.9,29.90,SSE,158,6.7,6.7,63,0.00,,,0.00,VWS V14.01,2013-04-06 14:14:00,
2013-04-06 09:15:00,41.7,30.0,29.90,SSE,158,10.2,10.2,63,0.00,,,0.00,VWS V14.01,2013-04-06 14:15:00,
2013-04-06 09:16:00,41.7,30.0,29.90,SSE,158,7.3,10.2,63,0.00,,,0.00,VWS V14.01,2013-04-06 14:16:00,
2013-04-06 09:17:00,41.7,30.0,29.90,SSE,158,7.3,7.3,63,0.00,,,0.00,VWS V14.01,2013-04-06 14:17:00,
2013-04-06 09:18:00,41.9,30.2,29.90,SE,135,6.2,7.3,63,0.00,,,0.00,VWS V14.01,2013-04-06 14:18:00,
2013-04-06 09:19:00,41.9,30.2,29.90,SE,135,6.2,6.2,63,0.00,,,0.00,VWS V14.01,2013-04-06 14:19:00,
2013-04-06 09:20:00,41.9,30.2,29.90,SE,135,6.2,6.2,63,0.00,,,0.00,VWS V14.01,2013-04-06 14:20:00,
2013-04-06 09:21:00,42.0,30.3,29.90,ESE,112,10.9,10.9,63,0.00,,,0.00,VWS V14.01,2013-04-06 14:21:00,
2013-04-06 09:22:00,42.0,30.3,29.89,ESE,112,10.9,10.9,63,0.00,,,0.00,VWS V14.01,2013-04-06 14:22:00,
2013-04-06 09:23:00,42.0,30.3,29.89,SE,135,7.6,10.9,63,0.00,,,0.00,VWS V14.01,2013-04-06 14:23:00,
2013-04-06 09:24:00,42.0,30.3,29.89,SE,135,7.6,7.6,63,0.00,,,0.00,VWS V14.01,2013-04-06 14:24:00,
2013-04-06 09:25:00,42.4,30.7,29.89,SE,135,9.3,9.3,63,0.00,,,0.00,VWS V14.01,2013-04-06 14:25:00,
2013-04-06 09:26:00,42.4,30.7,29.89,SE,135,9.3,9.3,63,0.00,,,0.00,VWS V14.01,2013-04-06 14:26:00,
2013-04-06 09:27:00,42.6,30.9,29.88,SE,135,11.4,11.4,63,0.00,,,0.00,VWS V14.01,2013-04-06 14:27:00,
2013-04-06 09:28:00,42.6,30.9,29.88,SE,135,11.4,11.4,63,0.00,,,0.00,VWS V14.01,2013-04-06 14:28:00,
2013-04-06 09:29:00,42.9,31.2,29.88,ESE,112,7.1,11.4,63,0.00,,,0.00,VWS V14.01,2013-04-06 14:29:00,
2013-04-06 09:30:00,42.9,31.2,29.88,ESE,112,7.1,7.1,63,0.00,,,0.00,VWS V14.01,2013-04-06 14:30:00,
2013-04-06 09:31:00,43.1,31.4,29.88,SE,135,13.1,13.1,63,0.00,,,0.00,VWS V14.01,2013-04-06 14:31:00,
2013-04-06 09:32:00,43.1,31.4,29.88,SE,135,13.1,13.1,63,0.00,,,0.00,VWS V14.01,2013-04-06 14:32:00,
2013-04-06 09:33:00,43.1,31.4,29.88,SE,135,13.8,13.8,63,0.00,,,0.00,VWS V14.01,2013-04-06 14:33:00,
2013-04-06 09:34:00,43.3,31.6,29.88,SE,135,13.8,13.8,63,0.00,,,0.00,VWS V14.01,2013-04-06 14:34:00,
2013-04-06 09:35:00,43.3,31.6,29.88,SE,135,13.8,13.8,63,0.00,,,0.00,VWS V14.01,2013-04-06 14:35:00,
2013-04-06 09:36:00,43.5,31.8,29.88,SE,135,8.9,13.8,63,0.00,,,0.00,VWS V14.01,2013-04-06 14:36:00,
2013-04-06 09:37:00,43.5,31.8,29.88,SE,135,8.9,8.9,63,0.00,,,0.00,VWS V14.01,2013-04-06 14:37:00,
2013-04-06 09:38:00,43.5,31.4,29.88,SE,135,12.3,12.3,62,0.00,,,0.00,VWS V14.01,2013-04-06 14:38:00,
2013-04-06 09:39:00,43.5,31.4,29.88,SE,135,12.3,12.3,62,0.00,,,0.00,VWS V14.01,2013-04-06 14:39:00,
2013-04-06 09:40:00,43.8,31.6,29.88,SE,135,8.7,12.3,62,0.00,,,0.00,VWS V14.01,2013-04-06 14:40:00,
2013-04-06 09:41:00,43.8,31.6,29.88,SE,135,8.7,8.7,62,0.00,,,0.00,VWS V14.01,2013-04-06 14:41:00,
2013-04-06 09:42:00,43.8,31.6,29.87,SE,135,6.2,8.7,62,0.00,,,0.00,VWS V14.01,2013-04-06 14:42:00,
2013-04-06 09:43:00,43.8,31.6,29.87,SE,135,6.2,6.2,62,0.00,,,0.00,VWS V14.01,2013-04-06 14:43:00,
2013-04-06 09:44:00,43.8,31.6,29.87,SE,135,6.2,6.2,62,0.00,,,0.00,VWS V14.01,2013-04-06 14:44:00,
2013-04-06 09:45:00,44.2,32.0,29.87,SE,135,9.3,9.3,62,0.00,,,0.00,VWS V14.01,2013-04-06 14:45:00,
2013-04-06 09:46:00,44.4,32.2,29.87,SE,135,6.9,9.3,62,0.00,,,0.00,VWS V14.01,2013-04-06 14:46:00,
2013-04-06 09:47:00,44.4,32.2,29.87,SE,135,6.9,6.9,62,0.00,,,0.00,VWS V14.01,2013-04-06 14:47:00,
2013-04-06 09:48:00,44.7,32.5,29.87,SSE,158,14.5,14.5,62,0.00,,,0.00,VWS V14.01,2013-04-06 14:48:00,
2013-04-06 09:49:00,44.7,32.5,29.87,SSE,158,14.5,14.5,62,0.00,,,0.00,VWS V14.01,2013-04-06 14:49:00,
2013-04-06 09:50:00,44.7,32.5,29.87,SE,135,12.9,14.5,62,0.00,,,0.00,VWS V14.01,2013-04-06 14:50:00,
2013-04-06 09:51:00,44.9,32.7,29.87,SE,135,12.9,12.9,62,0.00,,,0.00,VWS V14.01,2013-04-06 14:51:00,
2013-04-06 09:52:00,44.9,32.7,29.87,SE,135,12.9,12.9,62,0.00,,,0.00,VWS V14.01,2013-04-06 14:52:00,
2013-04-06 09:53:00,45.1,32.5,29.87,SE,135,9.3,12.9,61,0.00,,,0.00,VWS V14.01,2013-04-06 14:53:00,
2013-04-06 09:54:00,45.1,32.5,29.87,SE,135,9.3,9.3,61,0.00,,,0.00,VWS V14.01,2013-04-06 14:54:00,
2013-04-06 09:55:00,45.3,32.7,29.87,SSE,158,10.9,10.9,61,0.00,,,0.00,VWS V14.01,2013-04-06 14:55:00,
2013-04-06 09:56:00,45.3,32.7,29.86,SSE,158,10.9,10.9,61,0.00,,,0.00,VWS V14.01,2013-04-06 14:56:00,
2013-04-06 09:57:00,45.6,32.9,29.87,SE,135,7.1,10.9,61,0.00,,,0.00,VWS V14.01,2013-04-06 14:57:00,
2013-04-06 09:58:00,45.6,32.9,29.86,SE,135,7.1,7.1,61,0.00,,,0.00,VWS V14.01,2013-04-06 14:58:00,
2013-04-06 09:59:00,46.0,33.3,29.86,ESE,112,11.6,11.6,61,0.00,,,0.00,VWS V14.01,2013-04-06 14:59:00,
2013-04-06 10:00:00,46.0,33.3,29.86,ESE,112,11.6,11.6,61,0.00,,,0.00,VWS V14.01,2013-04-06 15:00:00,
2013-04-06 10:01:00,46.2,33.5,29.86,SE,135,10.7,11.6,61,0.00,,,0.00,VWS V14.01,2013-04-06 15:01:00,
2013-04-06 10:02:00,46.2,33.5,29.86,SE,135,10.7,10.7,61,0.00,,,0.00,VWS V14.01,2013-04-06 15:02:00,
2013-04-06 10:03:00,46.5,33.8,29.86,SSE,158,8.9,10.7,61,0.00,,,0.00,VWS V14.01,2013-04-06 15:03:00,
2013-04-06 10:04:00,46.5,33.8,29.86,SSE,158,8.9,8.9,61,0.00,,,0.00,VWS V14.01,2013-04-06 15:04:00,
2013-04-06 10:05:00,46.5,33.8,29.86,SSE,158,11.1,11.1,61,0.00,,,0.00,VWS V14.01,2013-04-06 15:05:00,
2013-04-06 10:06:00,46.7,33.6,29.86,SSE,158,11.1,11.1,60,0.00,,,0.00,VWS V14.01,2013-04-06 15:06:00,
2013-04-06 10:07:00,46.7,33.6,29.86,SSE,158,11.1,11.1,60,0.00,,,0.00,VWS V14.01,2013-04-06 15:07:00,
2013-04-06 10:08:00,47.1,33.9,29.86,SE,135,15.2,15.2,60,0.00,,,0.00,VWS V14.01,2013-04-06 15:08:00,
2013-04-06 10:09:00,47.1,33.9,29.85,SE,135,15.2,15.2,60,0.00,,,0.00,VWS V14.01,2013-04-06 15:09:00,
2013-04-06 10:10:00,47.1,33.9,29.85,SE,135,15.2,15.2,60,0.00,,,0.00,VWS V14.01,2013-04-06 15:10:00,
2013-04-06 10:11:00,47.3,34.1,29.85,SSE,158,12.5,12.5,60,0.00,,,0.00,VWS V14.01,2013-04-06 15:11:00,
2013-04-06 10:12:00,47.4,34.2,29.85,SE,135,13.6,13.6,60,0.00,,,0.00,VWS V14.01,2013-04-06 15:12:00,
2013-04-06 10:13:00,47.4,34.2,29.85,SE,135,13.6,13.6,60,0.00,,,0.00,VWS V14.01,2013-04-06 15:13:00,
2013-04-06 10:14:00,48.0,34.4,29.85,ESE,112,12.7,13.6,59,0.00,,,0.00,VWS V14.01,2013-04-06 15:14:00,
2013-04-06 10:15:00,48.0,34.4,29.85,ESE,112,12.7,12.7,59,0.00,,,0.00,VWS V14.01,2013-04-06 15:15:00,
2013-04-06 10:16:00,48.3,34.7,29.85,SE,135,11.4,12.7,59,0.00,,,0.00,VWS V14.01,2013-04-06 15:16:00,
2013-04-06 10:17:00,48.3,34.7,29.84,SE,135,11.4,11.4,59,0.00,,,0.00,VWS V14.01,2013-04-06 15:17:00,
2013-04-06 10:18:00,48.7,35.0,29.84,South,180,11.8,11.8,59,0.00,,,0.00,VWS V14.01,2013-04-06 15:18:00,
2013-04-06 10:19:00,48.7,35.0,29.84,South,180,11.8,11.8,59,0.00,,,0.00,VWS V14.01,2013-04-06 15:19:00,
2013-04-06 10:20:00,48.7,35.0,29.84,South,180,11.8,11.8,59,0.00,,,0.00,VWS V14.01,2013-04-06 15:20:00,
2013-04-06 10:21:00,49.1,35.4,29.84,SE,135,11.1,11.8,59,0.00,,,0.00,VWS V14.01,2013-04-06 15:21:00,
2013-04-06 10:22:00,49.1,35.4,29.83,SE,135,11.1,11.1,59,0.00,,,0.00,VWS V14.01,2013-04-06 15:22:00,
2013-04-06 10:23:00,49.6,35.4,29.83,SE,135,14.7,14.7,58,0.00,,,0.00,VWS V14.01,2013-04-06 15:23:00,
2013-04-06 10:24:00,49.6,35.4,29.83,SE,135,14.7,14.7,58,0.00,,,0.00,VWS V14.01,2013-04-06 15:24:00,
2013-04-06 10:25:00,49.6,35.5,29.83,SE,135,14.7,14.7,58,0.00,,,0.00,VWS V14.01,2013-04-06 15:25:00,
2013-04-06 10:26:00,49.8,35.6,29.83,SSE,158,10.2,10.2,58,0.00,,,0.00,VWS V14.01,2013-04-06 15:26:00,
2013-04-06 10:27:00,50.1,35.5,29.84,South,180,8.9,10.2,57,0.00,,,0.00,VWS V14.01,2013-04-06 15:27:00,
2013-04-06 10:28:00,50.1,35.5,29.83,South,180,8.9,8.9,57,0.00,,,0.00,VWS V14.01,2013-04-06 15:28:00,
2013-04-06 10:29:00,50.9,36.2,29.83,SSE,158,10.7,10.7,57,0.00,,,0.00,VWS V14.01,2013-04-06 15:29:00,
2013-04-06 10:30:00,50.9,36.2,29.83,SSE,158,10.7,10.7,57,0.00,,,0.00,VWS V14.01,2013-04-06 15:30:00,
2013-04-06 10:31:00,51.4,36.7,29.83,SE,135,12.3,12.3,57,0.00,,,0.00,VWS V14.01,2013-04-06 15:31:00,
2013-04-06 10:32:00,51.4,36.7,29.83,SE,135,12.3,12.3,57,0.00,,,0.00,VWS V14.01,2013-04-06 15:32:00,
2013-04-06 10:33:00,51.4,36.7,29.83,SE,135,19.0,19.0,57,0.00,,,0.00,VWS V14.01,2013-04-06 15:33:00,
2013-04-06 10:34:00,51.9,36.7,29.82,SE,135,19.0,19.0,56,0.00,,,0.00,VWS V14.01,2013-04-06 15:34:00,
2013-04-06 10:35:00,51.9,36.7,29.82,SE,135,19.0,19.0,56,0.00,,,0.00,VWS V14.01,2013-04-06 15:35:00,
2013-04-06 10:36:00,52.5,37.3,29.82,SE,135,11.6,11.6,56,0.00,,,0.00,VWS V14.01,2013-04-06 15:36:00,
2013-04-06 10:37:00,52.5,37.3,29.82,SE,135,11.6,11.6,56,0.00,,,0.00,VWS V14.01,2013-04-06 15:37:00,
2013-04-06 10:38:00,53.4,38.1,29.82,SSE,158,9.6,11.6,56,0.00,,,0.00,VWS V14.01,2013-04-06 15:38:00,
2013-04-06 10:39:00,53.4,38.1,29.82,SSE,158,9.6,9.6,56,0.00,,,0.00,VWS V14.01,2013-04-06 15:39:00,
2013-04-06 10:40:00,53.4,38.1,29.82,SSE,158,9.6,9.6,56,0.00,,,0.00,VWS V14.01,2013-04-06 15:40:00,
2013-04-06 10:41:00,54.1,38.3,29.82,SE,135,8.2,8.2,55,0.00,,,0.00,VWS V14.01,2013-04-06 15:41:00,
2013-04-06 10:42:00,54.8,37.5,29.82,SSW,202,11.8,11.8,52,0.00,,,0.00,VWS V14.01,2013-04-06 15:42:00,
2013-04-06 10:43:00,54.8,37.5,29.82,SSW,202,11.8,11.8,52,0.00,,,0.00,VWS V14.01,2013-04-06 15:43:00,
2013-04-06 10:44:00,55.2,37.4,29.82,West,270,0.0,11.8,51,0.00,,,0.00,VWS V14.01,2013-04-06 15:44:00,
2013-04-06 10:45:00,55.2,37.4,29.82,West,270,0.0,0.0,51,0.00,,,0.00,VWS V14.01,2013-04-06 15:45:00,
2013-04-06 10:46:00,55.5,37.7,29.82,SSE,158,3.3,3.3,51,0.00,,,0.00,VWS V14.01,2013-04-06 15:46:00,
2013-04-06 10:47:00,55.5,37.7,29.82,SSE,158,3.3,3.3,51,0.00,,,0.00,VWS V14.01,2013-04-06 15:47:00,
2013-04-06 10:48:00,55.9,38.0,29.81,ESE,112,12.5,12.5,51,0.00,,,0.00,VWS V14.01,2013-04-06 15:48:00,
2013-04-06 10:49:00,55.9,38.0,29.81,ESE,112,12.5,12.5,51,0.00,,,0.00,VWS V14.01,2013-04-06 15:49:00,
2013-04-06 10:50:00,55.9,38.0,29.81,SSW,202,4.9,4.9,51,0.00,,,0.00,VWS V14.01,2013-04-06 15:50:00,
2013-04-06 10:51:00,55.9,37.5,29.81,SSW,202,4.9,4.9,50,0.00,,,0.00,VWS V14.01,2013-04-06 15:51:00,
2013-04-06 10:52:00,55.9,37.5,29.81,SSW,202,4.9,4.9,50,0.00,,,0.00,VWS V14.01,2013-04-06 15:52:00,
2013-04-06 10:53:00,56.4,38.5,29.80,ESE,112,1.5,4.9,51,0.00,,,0.00,VWS V14.01,2013-04-06 15:53:00,
2013-04-06 10:54:00,56.4,38.5,29.81,ESE,112,1.5,1.5,51,0.00,,,0.00,VWS V14.01,2013-04-06 15:54:00,
2013-04-06 10:55:00,57.3,38.8,29.81,NNW,338,7.1,7.1,50,0.00,,,0.00,VWS V14.01,2013-04-06 15:55:00,
2013-04-06 10:56:00,57.3,38.8,29.80,NNW,338,7.1,7.1,50,0.00,,,0.00,VWS V14.01,2013-04-06 15:56:00,
2013-04-06 10:57:00,58.2,39.2,29.81,SSW,202,6.0,7.1,49,0.00,,,0.00,VWS V14.01,2013-04-06 15:57:00,
2013-04-06 10:58:00,58.2,39.2,29.81,SSW,202,6.0,6.0,49,0.00,,,0.00,VWS V14.01,2013-04-06 15:58:00,
2013-04-06 10:59:00,58.6,38.5,29.80,WSW,248,6.9,6.9,47,0.00,,,0.00,VWS V14.01,2013-04-06 15:59:00,
2013-04-06 11:00:00,58.6,38.5,29.80,WSW,248,6.9,6.9,47,0.00,,,0.00,VWS V14.01,2013-04-06 16:00:00,
2013-04-06 11:01:00,58.8,38.1,29.80,SE,135,1.5,6.9,46,0.00,,,0.00,VWS V14.01,2013-04-06 16:01:00,
2013-04-06 11:02:00,58.8,38.1,29.80,SE,135,1.5,1.5,46,0.00,,,0.00,VWS V14.01,2013-04-06 16:02:00,
2013-04-06 11:03:00,59.3,39.1,29.81,SE,135,11.6,11.6,47,0.00,,,0.00,VWS V14.01,2013-04-06 16:03:00,
2013-04-06 11:04:00,59.3,39.1,29.81,SE,135,11.6,11.6,47,0.00,,,0.00,VWS V14.01,2013-04-06 16:04:00,
2013-04-06 11:05:00,59.3,38.5,29.81,NNW,338,3.8,3.8,46,0.00,,,0.00,VWS V14.01,2013-04-06 16:05:00,
2013-04-06 11:06:00,59.9,39.1,29.80,NNW,338,3.8,3.8,46,0.00,,,0.00,VWS V14.01,2013-04-06 16:06:00,
2013-04-06 11:07:00,59.9,39.1,29.81,NNW,338,3.8,3.8,46,0.00,,,0.00,VWS V14.01,2013-04-06 16:07:00,
2013-04-06 11:08:00,60.4,39.0,29.81,ESE,112,2.2,3.8,45,0.00,,,0.00,VWS V14.01,2013-04-06 16:08:00,
2013-04-06 11:09:00,60.4,39.0,29.81,ESE,112,2.2,2.2,45,0.00,,,0.00,VWS V14.01,2013-04-06 16:09:00,
2013-04-06 11:10:00,60.9,39.4,29.81,SW,225,6.2,6.2,45,0.00,,,0.00,VWS V14.01,2013-04-06 16:10:00,
2013-04-06 11:11:00,60.9,39.4,29.81,SW,225,6.2,6.2,45,0.00,,,0.00,VWS V14.01,2013-04-06 16:11:00,
2013-04-06 11:12:00,62.0,39.9,29.80,SW,225,7.1,7.1,44,0.00,,,0.00,VWS V14.01,2013-04-06 16:12:00,
2013-04-06 11:13:00,62.0,39.9,29.80,SW,225,7.1,7.1,44,0.00,,,0.00,VWS V14.01,2013-04-06 16:13:00,
2013-04-06 11:14:00,63.1,40.9,29.80,SE,135,7.8,7.8,44,0.00,,,0.00,VWS V14.01,2013-04-06 16:14:00,
2013-04-06 11:15:00,63.1,40.9,29.80,SE,135,7.8,7.8,44,0.00,,,0.00,VWS V14.01,2013-04-06 16:15:00,
2013-04-06 11:16:00,63.5,40.0,29.80,SSW,202,19.4,19.4,42,0.00,,,0.00,VWS V14.01,2013-04-06 16:16:00,
2013-04-06 11:17:00,63.5,40.0,29.80,SSW,202,19.4,19.4,42,0.00,,,0.00,VWS V14.01,2013-04-06 16:17:00,
2013-04-06 11:18:00,64.2,40.7,29.80,SSW,202,19.6,19.6,42,0.00,,,0.00,VWS V14.01,2013-04-06 16:18:00,
2013-04-06 11:19:00,64.2,40.7,29.80,SSW,202,19.6,19.6,42,0.00,,,0.00,VWS V14.01,2013-04-06 16:19:00,
2013-04-06 11:20:00,64.0,39.2,29.80,South,180,18.7,18.7,40,0.00,,,0.00,VWS V14.01,2013-04-06 16:20:00,
2013-04-06 11:21:00,64.0,39.2,29.79,South,180,18.7,18.7,40,0.00,,,0.00,VWS V14.01,2013-04-06 16:21:00,
2013-04-06 11:22:00,64.0,39.2,29.80,South,180,18.7,18.7,40,0.00,,,0.00,VWS V14.01,2013-04-06 16:22:00,
2013-04-06 11:23:00,63.3,39.2,29.80,SSW,202,14.7,18.7,41,0.00,,,0.00,VWS V14.01,2013-04-06 16:23:00,
2013-04-06 11:24:00,63.3,39.2,29.80,SSW,202,14.7,14.7,41,0.00,,,0.00,VWS V14.01,2013-04-06 16:24:00,
2013-04-06 11:25:00,62.9,40.1,29.80,SW,225,13.6,13.6,43,0.00,,,0.00,VWS V14.01,2013-04-06 16:25:00,
2013-04-06 11:26:00,62.9,40.1,29.80,SW,225,13.6,13.6,43,0.00,,,0.00,VWS V14.01,2013-04-06 16:26:00,
2013-04-06 11:27:00,62.7,38.7,29.80,SSW,202,31.9,31.9,41,0.00,,,0.00,VWS V14.01,2013-04-06 16:27:00,
2013-04-06 11:28:00,62.6,38.6,29.80,SSW,202,24.3,31.9,41,0.00,,,0.00,VWS V14.01,2013-04-06 16:28:00,
2013-04-06 11:29:00,62.6,39.2,29.80,SSW,202,15.6,24.3,42,0.00,,,0.00,VWS V14.01,2013-04-06 16:29:00,
2013-04-06 11:30:00,62.6,39.2,29.80,SSW,202,15.6,15.6,42,0.00,,,0.00,VWS V14.01,2013-04-06 16:30:00,
2013-04-06 11:31:00,63.6,39.5,29.79,SSW,202,23.2,23.2,41,0.00,,,0.00,VWS V14.01,2013-04-06 16:31:00,
2013-04-06 11:32:00,64.2,39.4,29.79,SSW,202,24.3,24.3,40,0.00,,,0.00,VWS V14.01,2013-04-06 16:32:00,
2013-04-06 11:33:00,64.5,39.7,29.79,SSE,158,19.6,24.3,40,0.00,,,0.00,VWS V14.01,2013-04-06 16:33:00,
2013-04-06 11:34:00,64.5,39.7,29.79,SSE,158,19.6,19.6,40,0.00,,,0.00,VWS V14.01,2013-04-06 16:34:00,
2013-04-06 11:35:00,64.5,39.7,29.79,SSW,202,34.4,34.4,40,0.00,,,0.00,VWS V14.01,2013-04-06 16:35:00,
2013-04-06 11:36:00,65.3,39.1,29.79,SSW,202,25.2,34.4,38,0.00,,,0.00,VWS V14.01,2013-04-06 16:36:00,
2013-04-06 11:37:00,65.3,39.7,29.79,SSW,202,15.8,25.2,39,0.00,,,0.00,VWS V14.01,2013-04-06 16:37:00,
2013-04-06 11:38:00,65.3,39.7,29.79,SSW,202,15.8,15.8,39,0.00,,,0.00,VWS V14.01,2013-04-06 16:38:00,
2013-04-06 11:39:00,66.0,40.4,29.80,SSW,202,18.5,18.5,39,0.00,,,0.00,VWS V14.01,2013-04-06 16:39:00,
2013-04-06 11:40:00,66.0,40.4,29.79,SSW,202,18.5,18.5,39,0.00,,,0.00,VWS V14.01,2013-04-06 16:40:00,
2013-04-06 11:41:00,66.7,40.3,29.79,SSW,202,18.5,18.5,38,0.00,,,0.00,VWS V14.01,2013-04-06 16:41:00,
2013-04-06 11:42:00,66.7,40.3,29.79,South,180,18.1,18.5,38,0.00,,,0.00,VWS V14.01,2013-04-06 16:42:00,
2013-04-06 11:43:00,66.7,40.3,29.79,SSW,202,11.8,18.1,38,0.00,,,0.00,VWS V14.01,2013-04-06 16:43:00,
2013-04-06 11:44:00,66.5,40.1,29.79,SSW,202,11.8,11.8,38,0.00,,,0.00,VWS V14.01,2013-04-06 16:44:00,
2013-04-06 11:45:00,66.5,40.1,29.79,SSW,202,11.8,11.8,38,0.00,,,0.00,VWS V14.01,2013-04-06 16:45:00,
2013-04-06 11:46:00,66.5,40.1,29.78,SSW,202,36.4,36.4,38,0.00,,,0.00,VWS V14.01,2013-04-06 16:46:00,
2013-04-06 11:47:00,66.0,39.0,29.79,SSW,202,24.8,36.4,37,0.00,,,0.00,VWS V14.01,2013-04-06 16:47:00,
2013-04-06 11:48:00,66.0,39.0,29.79,SSW,202,16.5,24.8,37,0.00,,,0.00,VWS V14.01,2013-04-06 16:48:00,
2013-04-06 11:49:00,66.0,39.0,29.79,SSW,202,16.5,16.5,37,0.00,,,0.00,VWS V14.01,2013-04-06 16:49:00,
2013-04-06 11:50:00,66.0,39.7,29.79,SSW,202,23.7,23.7,38,0.00,,,0.00,VWS V14.01,2013-04-06 16:50:00,
2013-04-06 11:51:00,66.0,40.4,29.79,SSW,202,15.6,23.7,39,0.00,,,0.00,VWS V14.01,2013-04-06 16:51:00,
2013-04-06 11:52:00,66.0,40.4,29.79,SSW,202,15.6,15.6,39,0.00,,,0.00,VWS V14.01,2013-04-06 16:52:00,
2013-04-06 11:53:00,66.3,40.6,29.79,SSW,202,16.5,16.5,39,0.00,,,0.00,VWS V14.01,2013-04-06 16:53:00,
2013-04-06 11:54:00,66.3,40.6,29.79,SSW,202,16.5,16.5,39,0.00,,,0.00,VWS V14.01,2013-04-06 16:54:00,
2013-04-06 11:55:00,67.2,40.8,29.78,SSW,202,29.7,29.7,38,0.00,,,0.00,VWS V14.01,2013-04-06 16:55:00,
2013-04-06 11:56:00,67.1,40.0,29.78,SSW,202,25.0,29.7,37,0.00,,,0.00,VWS V14.01,2013-04-06 16:56:00,
2013-04-06 11:57:00,67.1,40.0,29.78,SSW,202,21.6,25.0,37,0.00,,,0.00,VWS V14.01,2013-04-06 16:57:00,
2013-04-06 11:58:00,67.1,40.0,29.79,SSW,202,21.6,21.6,37,0.00,,,0.00,VWS V14.01,2013-04-06 16:58:00,
2013-04-06 11:59:00,66.9,39.8,29.78,SSW,202,21.0,21.6,37,0.00,,,0.00,VWS V14.01,2013-04-06 16:59:00,
2013-04-06 12:00:00,66.9,39.8,29.78,SSW,202,21.0,21.0,37,0.00,,,0.00,VWS V14.01,2013-04-06 17:00:00,
2013-04-06 12:01:00,66.0,39.7,29.78,SSW,202,21.9,21.9,38,0.00,,,0.00,VWS V14.01,2013-04-06 17:01:00,
2013-04-06 12:02:00,66.0,39.7,29.78,SSW,202,21.9,21.9,38,0.00,,,0.00,VWS V14.01,2013-04-06 17:02:00,
2013-04-06 12:03:00,66.0,41.0,29.78,SW,225,12.9,21.9,40,0.00,,,0.00,VWS V14.01,2013-04-06 17:03:00,
2013-04-06 12:04:00,66.0,41.0,29.78,SW,225,12.9,12.9,40,0.00,,,0.00,VWS V14.01,2013-04-06 17:04:00,
2013-04-06 12:05:00,66.0,41.0,29.78,SW,225,12.9,12.9,40,0.00,,,0.00,VWS V14.01,2013-04-06 17:05:00,
2013-04-06 12:06:00,66.7,41.0,29.78,SSW,202,20.5,20.5,39,0.00,,,0.00,VWS V14.01,2013-04-06 17:06:00,
2013-04-06 12:07:00,66.7,41.0,29.79,SSW,202,20.5,20.5,39,0.00,,,0.00,VWS V14.01,2013-04-06 17:07:00,
2013-04-06 12:08:00,67.1,40.0,29.78,SSW,202,38.0,38.0,37,0.00,,,0.00,VWS V14.01,2013-04-06 17:08:00,
2013-04-06 12:09:00,66.9,39.8,29.78,South,180,25.7,38.0,37,0.00,,,0.00,VWS V14.01,2013-04-06 17:09:00,
2013-04-06 12:10:00,66.9,39.8,29.78,SW,225,20.5,20.5,37,0.00,,,0.00,VWS V14.01,2013-04-06 17:10:00,
2013-04-06 12:11:00,66.9,39.8,29.78,SW,225,20.5,20.5,37,0.00,,,0.00,VWS V14.01,2013-04-06 17:11:00,
2013-04-06 12:12:00,66.7,39.6,29.78,SSW,202,19.4,20.5,37,0.00,,,0.00,VWS V14.01,2013-04-06 17:12:00,
2013-04-06 12:13:00,66.7,39.6,29.78,SSW,202,19.4,19.4,37,0.00,,,0.00,VWS V14.01,2013-04-06 17:13:00,
2013-04-06 12:14:00,66.7,39.6,29.78,SSW,202,28.8,28.8,37,0.00,,,0.00,VWS V14.01,2013-04-06 17:14:00,
2013-04-06 12:15:00,66.3,40.0,29.78,SSW,202,26.3,26.3,38,0.00,,,0.00,VWS V14.01,2013-04-06 17:15:00,
2013-04-06 12:16:00,66.0,39.7,29.78,SSW,202,21.4,26.3,38,0.00,,,0.00,VWS V14.01,2013-04-06 17:16:00,
2013-04-06 12:17:00,66.0,39.7,29.78,SSW,202,21.4,21.4,38,0.00,,,0.00,VWS V14.01,2013-04-06 17:17:00,
2013-04-06 12:18:00,66.0,40.4,29.78,SSW,202,18.3,21.4,39,0.00,,,0.00,VWS V14.01,2013-04-06 17:18:00,
2013-04-06 12:19:00,66.0,40.4,29.78,SSW,202,18.3,18.3,39,0.00,,,0.00,VWS V14.01,2013-04-06 17:19:00,
2013-04-06 12:20:00,66.0,39.7,29.78,SSW,202,19.4,19.4,38,0.00,,,0.00,VWS V14.01,2013-04-06 17:20:00,
2013-04-06 12:21:00,66.0,39.7,29.78,SSW,202,19.4,19.4,38,0.00,,,0.00,VWS V14.01,2013-04-06 17:21:00,
2013-04-06 12:22:00,66.3,40.0,29.77,SSW,202,22.8,22.8,38,0.00,,,0.00,VWS V14.01,2013-04-06 17:22:00,
2013-04-06 12:23:00,66.5,40.1,29.77,SSW,202,16.3,22.8,38,0.00,,,0.00,VWS V14.01,2013-04-06 17:23:00,
2013-04-06 12:24:00,66.5,40.1,29.77,SSW,202,16.3,16.3,38,0.00,,,0.00,VWS V14.01,2013-04-06 17:24:00,
2013-04-06 12:25:00,66.5,40.1,29.77,SSW,202,25.5,25.5,38,0.00,,,0.00,VWS V14.01,2013-04-06 17:25:00,
2013-04-06 12:26:00,66.9,39.8,29.77,SSW,202,17.4,25.5,37,0.00,,,0.00,VWS V14.01,2013-04-06 17:26:00,
2013-04-06 12:27:00,66.9,39.8,29.78,SSW,202,17.4,17.4,37,0.00,,,0.00,VWS V14.01,2013-04-06 17:27:00,
2013-04-06 12:28:00,66.9,39.8,29.77,SSW,202,40.2,40.2,37,0.00,,,0.00,VWS V14.01,2013-04-06 17:28:00,
2013-04-06 12:29:00,66.7,39.6,29.77,SSW,202,24.6,40.2,37,0.00,,,0.00,VWS V14.01,2013-04-06 17:29:00,
2013-04-06 12:30:00,66.3,40.0,29.77,SSW,202,27.7,27.7,38,0.00,,,0.00,VWS V14.01,2013-04-06 17:30:00,
2013-04-06 12:31:00,66.2,39.9,29.78,SSW,202,20.3,27.7,38,0.00,,,0.00,VWS V14.01,2013-04-06 17:31:00,
2013-04-06 12:32:00,66.2,39.9,29.78,SSW,202,20.3,20.3,38,0.00,,,0.00,VWS V14.01,2013-04-06 17:32:00,
2013-04-06 12:33:00,66.0,39.7,29.78,SSW,202,29.7,29.7,38,0.00,,,0.00,VWS V14.01,2013-04-06 17:33:00,
2013-04-06 12:34:00,65.8,39.5,29.77,SW,225,21.9,29.7,38,0.00,,,0.00,VWS V14.01,2013-04-06 17:34:00,
2013-04-06 12:35:00,65.8,39.5,29.78,SW,225,21.9,21.9,38,0.00,,,0.00,VWS V14.01,2013-04-06 17:35:00,
2013-04-06 12:36:00,65.8,39.5,29.78,SSW,202,18.1,21.9,38,0.00,,,0.00,VWS V14.01,2013-04-06 17:36:00,
2013-04-06 12:37:00,65.3,39.7,29.78,SSW,202,18.1,18.1,39,0.00,,,0.00,VWS V14.01,2013-04-06 17:37:00,
2013-04-06 12:38:00,65.1,39.5,29.78,SSW,202,22.8,22.8,39,0.00,,,0.00,VWS V14.01,2013-04-06 17:38:00,
2013-04-06 12:39:00,64.9,39.4,29.77,SSW,202,25.2,25.2,39,0.00,,,0.00,VWS V14.01,2013-04-06 17:39:00,
2013-04-06 12:40:00,64.9,39.4,29.77,SW,225,18.5,18.5,39,0.00,,,0.00,VWS V14.01,2013-04-06 17:40:00,
2013-04-06 12:41:00,64.7,39.8,29.78,SW,225,18.5,18.5,40,0.00,,,0.00,VWS V14.01,2013-04-06 17:41:00,
2013-04-06 12:42:00,64.7,39.8,29.78,SW,225,18.5,18.5,40,0.00,,,0.00,VWS V14.01,2013-04-06 17:42:00,
2013-04-06 12:43:00,64.7,39.8,29.78,South,180,22.3,22.3,40,0.00,,,0.00,VWS V14.01,2013-04-06 17:43:00,
2013-04-06 12:44:00,64.7,39.8,29.77,South,180,22.3,22.3,40,0.00,,,0.00,VWS V14.01,2013-04-06 17:44:00,
2013-04-06 12:45:00,64.5,39.7,29.77,SW,225,18.3,18.3,40,0.00,,,0.00,VWS V14.01,2013-04-06 17:45:00,
2013-04-06 12:46:00,64.5,39.7,29.77,SW,225,18.3,18.3,40,0.00,,,0.00,VWS V14.01,2013-04-06 17:46:00,
2013-04-06 12:47:00,64.4,40.2,29.77,SSW,202,18.1,18.3,41,0.00,,,0.00,VWS V14.01,2013-04-06 17:47:00,
2013-04-06 12:48:00,64.4,40.2,29.77,SSW,202,18.1,18.1,41,0.00,,,0.00,VWS V14.01,2013-04-06 17:48:00,
2013-04-06 12:49:00,64.2,40.7,29.77,SSW,202,12.5,18.1,42,0.00,,,0.00,VWS V14.01,2013-04-06 17:49:00,
2013-04-06 12:50:00,64.2,40.7,29.77,SSW,202,12.5,12.5,42,0.00,,,0.00,VWS V14.01,2013-04-06 17:50:00,
2013-04-06 12:51:00,64.2,40.7,29.77,SSW,202,24.1,24.1,42,0.00,,,0.00,VWS V14.01,2013-04-06 17:51:00,
2013-04-06 12:52:00,64.2,40.0,29.77,SSW,202,18.3,24.1,41,0.00,,,0.00,VWS V14.01,2013-04-06 17:52:00,
2013-04-06 12:53:00,64.2,40.0,29.77,SSW,202,18.3,18.3,41,0.00,,,0.00,VWS V14.01,2013-04-06 17:53:00,
2013-04-06 12:54:00,64.2,40.7,29.77,SSW,202,11.6,18.3,42,0.00,,,0.00,VWS V14.01,2013-04-06 17:54:00,
2013-04-06 12:55:00,64.2,40.7,29.77,SSW,202,11.6,11.6,42,0.00,,,0.00,VWS V14.01,2013-04-06 17:55:00,
2013-04-06 12:56:00,64.0,41.1,29.77,SSW,202,15.2,15.2,43,0.00,,,0.00,VWS V14.01,2013-04-06 17:56:00,
2013-04-06 12:57:00,64.0,41.1,29.77,SSW,202,15.2,15.2,43,0.00,,,0.00,VWS V14.01,2013-04-06 17:57:00,
2013-04-06 12:58:00,64.0,40.5,29.77,SSW,202,9.8,15.2,42,0.00,,,0.00,VWS V14.01,2013-04-06 17:58:00,
2013-04-06 12:59:00,64.0,40.5,29.77,SSW,202,9.8,9.8,42,0.00,,,0.00,VWS V14.01,2013-04-06 17:59:00,
2013-04-06 13:00:00,63.6,40.1,29.77,SSW,202,21.6,21.6,42,0.00,,,0.00,VWS V14.01,2013-04-06 18:00:00,
2013-04-06 13:01:00,63.6,40.1,29.77,SSW,202,21.6,21.6,42,0.00,,,0.00,VWS V14.01,2013-04-06 18:01:00,
2013-04-06 13:02:00,63.6,40.1,29.76,SSW,202,14.7,21.6,42,0.00,,,0.00,VWS V14.01,2013-04-06 18:02:00,
2013-04-06 13:03:00,63.6,40.1,29.76,SSW,202,14.7,14.7,42,0.00,,,0.00,VWS V14.01,2013-04-06 18:03:00,
2013-04-06 13:04:00,63.5,40.0,29.76,SSW,202,14.7,14.7,42,0.00,,,0.00,VWS V14.01,2013-04-06 18:04:00,
2013-04-06 13:05:00,63.5,40.6,29.76,SW,225,15.4,15.4,43,0.00,,,0.00,VWS V14.01,2013-04-06 18:05:00,
2013-04-06 13:06:00,63.5,40.6,29.76,SW,225,15.4,15.4,43,0.00,,,0.00,VWS V14.01,2013-04-06 18:06:00,
2013-04-06 13:07:00,63.3,40.4,29.76,SSW,202,16.7,16.7,43,0.00,,,0.00,VWS V14.01,2013-04-06 18:07:00,
2013-04-06 13:08:00,63.3,40.4,29.76,SSW,202,16.7,16.7,43,0.00,,,0.00,VWS V14.01,2013-04-06 18:08:00,
2013-04-06 13:09:00,63.1,40.9,29.76,SSW,202,17.4,17.4,44,0.00,,,0.00,VWS V14.01,2013-04-06 18:09:00,
2013-04-06 13:10:00,63.1,40.9,29.75,SSW,202,17.4,17.4,44,0.00,,,0.00,VWS V14.01,2013-04-06 18:10:00,
2013-04-06 13:11:00,62.9,40.7,29.75,SSW,202,21.6,21.6,44,0.00,,,0.00,VWS V14.01,2013-04-06 18:11:00,
2013-04-06 13:12:00,62.9,40.7,29.75,SSW,202,21.6,21.6,44,0.00,,,0.00,VWS V14.01,2013-04-06 18:12:00,
2013-04-06 13:13:00,62.9,40.1,29.75,SSW,202,19.4,21.6,43,0.00,,,0.00,VWS V14.01,2013-04-06 18:13:00,
2013-04-06 13:14:00,62.9,40.1,29.75,SSW,202,19.4,19.4,43,0.00,,,0.00,VWS V14.01,2013-04-06 18:14:00,
2013-04-06 13:15:00,62.7,40.5,29.75,South,180,17.6,17.6,44,0.00,,,0.00,VWS V14.01,2013-04-06 18:15:00,
2013-04-06 13:16:00,62.7,40.5,29.75,South,180,17.6,17.6,44,0.00,,,0.00,VWS V14.01,2013-04-06 18:16:00,
2013-04-06 13:17:00,62.7,40.5,29.75,SSW,202,17.0,17.6,44,0.00,,,0.00,VWS V14.01,2013-04-06 18:17:00,
2013-04-06 13:18:00,62.7,40.5,29.75,SSW,202,17.0,17.0,44,0.00,,,0.00,VWS V14.01,2013-04-06 18:18:00,
2013-04-06 13:19:00,62.7,40.5,29.75,SSW,202,17.0,17.0,44,0.00,,,0.00,VWS V14.01,2013-04-06 18:19:00,
2013-04-06 13:20:00,62.7,40.5,29.75,SSW,202,16.1,16.1,44,0.00,,,0.00,VWS V14.01,2013-04-06 18:20:00,
2013-04-06 13:21:00,62.7,40.5,29.75,SSW,202,16.1,16.1,44,0.00,,,0.00,VWS V14.01,2013-04-06 18:21:00,
2013-04-06 13:22:00,62.7,40.5,29.75,SW,225,14.5,16.1,44,0.00,,,0.00,VWS V14.01,2013-04-06 18:22:00,
2013-04-06 13:23:00,62.7,40.5,29.75,SW,225,14.5,14.5,44,0.00,,,0.00,VWS V14.01,2013-04-06 18:23:00,
2013-04-06 13:24:00,62.9,40.7,29.74,SSW,202,15.8,15.8,44,0.00,,,0.00,VWS V14.01,2013-04-06 18:24:00,
2013-04-06 13:25:00,62.9,40.7,29.74,SSW,202,15.8,15.8,44,0.00,,,0.00,VWS V14.01,2013-04-06 18:25:00,
2013-04-06 13:26:00,63.1,40.9,29.74,SSW,202,18.3,18.3,44,0.00,,,0.00,VWS V14.01,2013-04-06 18:26:00,
2013-04-06 13:27:00,63.1,40.9,29.74,SSW,202,18.3,18.3,44,0.00,,,0.00,VWS V14.01,2013-04-06 18:27:00,
2013-04-06 13:28:00,63.3,40.4,29.74,SSW,202,19.6,19.6,43,0.00,,,0.00,VWS V14.01,2013-04-06 18:28:00,
2013-04-06 13:29:00,63.3,40.4,29.74,SSW,202,19.6,19.6,43,0.00,,,0.00,VWS V14.01,2013-04-06 18:29:00,
2013-04-06 13:30:00,63.5,40.6,29.74,SSW,202,21.6,21.6,43,0.00,,,0.00,VWS V14.01,2013-04-06 18:30:00,
2013-04-06 13:31:00,63.5,40.6,29.74,SSW,202,21.6,21.6,43,0.00,,,0.00,VWS V14.01,2013-04-06 18:31:00,
2013-04-06 13:32:00,63.5,40.6,29.74,SSW,202,18.5,21.6,43,0.00,,,0.00,VWS V14.01,2013-04-06 18:32:00,
2013-04-06 13:33:00,63.5,40.6,29.74,SSW,202,18.5,18.5,43,0.00,,,0.00,VWS V14.01,2013-04-06 18:33:00,
2013-04-06 13:34:00,63.5,40.6,29.74,SSW,202,18.5,18.5,43,0.00,,,0.00,VWS V14.01,2013-04-06 18:34:00,
2013-04-06 13:35:00,63.6,40.7,29.74,SSW,202,17.4,17.4,43,0.00,,,0.00,VWS V14.01,2013-04-06 18:35:00,
2013-04-06 13:36:00,63.6,40.7,29.74,SSW,202,17.4,17.4,43,0.00,,,0.00,VWS V14.01,2013-04-06 18:36:00,
2013-04-06 13:37:00,63.6,41.3,29.74,SSW,202,10.9,17.4,44,0.00,,,0.00,VWS V14.01,2013-04-06 18:37:00,
2013-04-06 13:38:00,63.6,41.3,29.74,SSW,202,10.9,10.9,44,0.00,,,0.00,VWS V14.01,2013-04-06 18:38:00,
2013-04-06 13:39:00,63.6,40.7,29.73,SSW,202,21.6,21.6,43,0.00,,,0.00,VWS V14.01,2013-04-06 18:39:00,
2013-04-06 13:40:00,63.6,40.7,29.73,SSW,202,21.6,21.6,43,0.00,,,0.00,VWS V14.01,2013-04-06 18:40:00,
2013-04-06 13:41:00,63.8,40.9,29.73,SSW,202,22.1,22.1,43,0.00,,,0.00,VWS V14.01,2013-04-06 18:41:00,
2013-04-06 13:42:00,63.8,40.9,29.73,SSW,202,22.1,22.1,43,0.00,,,0.00,VWS V14.01,2013-04-06 18:42:00,
2013-04-06 13:43:00,64.0,41.1,29.73,SSW,202,21.2,22.1,43,0.00,,,0.00,VWS V14.01,2013-04-06 18:43:00,
2013-04-06 13:44:00,64.0,41.1,29.73,SSW,202,21.2,21.2,43,0.00,,,0.00,VWS V14.01,2013-04-06 18:44:00,
2013-04-06 13:45:00,64.4,40.8,29.72,SSW,202,26.6,26.6,42,0.00,,,0.00,VWS V14.01,2013-04-06 18:45:00,
2013-04-06 13:46:00,64.5,40.9,29.73,SSW,202,19.6,26.6,42,0.00,,,0.00,VWS V14.01,2013-04-06 18:46:00,
2013-04-06 13:47:00,64.5,40.9,29.73,SSW,202,19.6,19.6,42,0.00,,,0.00,VWS V14.01,2013-04-06 18:47:00,
2013-04-06 13:48:00,64.9,41.3,29.72,SSW,202,30.8,30.8,42,0.00,,,0.00,VWS V14.01,2013-04-06 18:48:00,
2013-04-06 13:49:00,64.9,41.3,29.73,SSW,202,15.6,30.8,42,0.00,,,0.00,VWS V14.01,2013-04-06 18:49:00,
2013-04-06 13:50:00,64.9,41.3,29.73,SSW,202,15.6,15.6,42,0.00,,,0.00,VWS V14.01,2013-04-06 18:50:00,
2013-04-06 13:51:00,65.1,42.7,29.73,SSW,202,19.6,19.6,44,0.00,,,0.00,VWS V14.01,2013-04-06 18:51:00,
2013-04-06 13:52:00,65.1,42.7,29.73,SSW,202,19.6,19.6,44,0.00,,,0.00,VWS V14.01,2013-04-06 18:52:00,
2013-04-06 13:53:00,64.9,42.5,29.73,SSW,202,20.1,20.1,44,0.00,,,0.00,VWS V14.01,2013-04-06 18:53:00,
2013-04-06 13:54:00,64.9,42.5,29.72,SSW,202,20.1,20.1,44,0.00,,,0.00,VWS V14.01,2013-04-06 18:54:00,
2013-04-06 13:55:00,64.7,42.3,29.72,SSW,202,23.9,23.9,44,0.00,,,0.00,VWS V14.01,2013-04-06 18:55:00,
2013-04-06 13:56:00,64.5,42.1,29.71,SSW,202,8.9,23.9,44,0.00,,,0.00,VWS V14.01,2013-04-06 18:56:00,
2013-04-06 13:57:00,64.5,42.1,29.72,SSW,202,8.9,8.9,44,0.00,,,0.00,VWS V14.01,2013-04-06 18:57:00,
2013-04-06 13:58:00,64.5,42.7,29.72,SSW,202,17.4,17.4,45,0.00,,,0.00,VWS V14.01,2013-04-06 18:58:00,
2013-04-06 13:59:00,64.5,42.7,29.72,SSW,202,17.4,17.4,45,0.00,,,0.00,VWS V14.01,2013-04-06 18:59:00,
2013-04-06 14:00:00,64.2,41.3,29.71,SSW,202,16.5,16.5,43,0.00,,,0.00,VWS V14.01,2013-04-06 19:00:00,
2013-04-06 14:01:00,64.2,41.3,29.71,SSW,202,16.5,16.5,43,0.00,,,0.00,VWS V14.01,2013-04-06 19:01:00,
2013-04-06 14:02:00,64.2,41.3,29.71,SSW,202,16.5,16.5,43,0.00,,,0.00,VWS V14.01,2013-04-06 19:02:00,
2013-04-06 14:03:00,64.2,41.8,29.71,SSW,202,18.7,18.7,44,0.00,,,0.00,VWS V14.01,2013-04-06 19:03:00,
2013-04-06 14:04:00,64.2,41.8,29.72,SSW,202,18.7,18.7,44,0.00,,,0.00,VWS V14.01,2013-04-06 19:04:00,
2013-04-06 14:05:00,64.2,41.3,29.71,SSW,202,19.2,19.2,43,0.00,,,0.00,VWS V14.01,2013-04-06 19:05:00,
2013-04-06 14:06:00,64.2,41.3,29.71,SSW,202,19.2,19.2,43,0.00,,,0.00,VWS V14.01,2013-04-06 19:06:00,
2013-04-06 14:07:00,64.5,42.1,29.71,South,180,16.1,19.2,44,0.00,,,0.00,VWS V14.01,2013-04-06 19:07:00,
2013-04-06 14:08:00,64.5,42.1,29.71,South,180,16.1,16.1,44,0.00,,,0.00,VWS V14.01,2013-04-06 19:08:00,
2013-04-06 14:09:00,64.4,42.6,29.71,SSW,202,12.5,16.1,45,0.00,,,0.00,VWS V14.01,2013-04-06 19:09:00,
2013-04-06 14:10:00,64.4,42.6,29.71,SSW,202,12.5,12.5,45,0.00,,,0.00,VWS V14.01,2013-04-06 19:10:00,
2013-04-06 14:11:00,64.2,41.8,29.71,SSW,202,19.6,19.6,44,0.00,,,0.00,VWS V14.01,2013-04-06 19:11:00,
2013-04-06 14:12:00,64.2,41.8,29.71,SSW,202,19.6,19.6,44,0.00,,,0.00,VWS V14.01,2013-04-06 19:12:00,
2013-04-06 14:13:00,64.2,41.8,29.71,SSW,202,19.6,19.6,44,0.00,,,0.00,VWS V14.01,2013-04-06 19:13:00,
2013-04-06 14:14:00,64.2,41.3,29.71,SSW,202,18.5,19.6,43,0.00,,,0.00,VWS V14.01,2013-04-06 19:14:00,
2013-04-06 14:15:00,64.2,41.3,29.71,SSW,202,18.5,18.5,43,0.00,,,0.00,VWS V14.01,2013-04-06 19:15:00,
2013-04-06 14:16:00,64.0,42.3,29.71,SSW,202,14.3,18.5,45,0.00,,,0.00,VWS V14.01,2013-04-06 19:16:00,
2013-04-06 14:17:00,64.0,42.3,29.71,SSW,202,14.3,14.3,45,0.00,,,0.00,VWS V14.01,2013-04-06 19:17:00,
2013-04-06 14:18:00,64.0,41.7,29.71,SSW,202,14.7,14.7,44,0.00,,,0.00,VWS V14.01,2013-04-06 19:18:00,
2013-04-06 14:19:00,64.0,41.7,29.71,SSW,202,14.7,14.7,44,0.00,,,0.00,VWS V14.01,2013-04-06 19:19:00,
2013-04-06 14:20:00,63.6,40.7,29.71,SSW,202,24.6,24.6,43,0.00,,,0.00,VWS V14.01,2013-04-06 19:20:00,
2013-04-06 14:21:00,63.8,40.9,29.71,SSW,202,17.8,24.6,43,0.00,,,0.00,VWS V14.01,2013-04-06 19:21:00,
2013-04-06 14:22:00,63.8,40.9,29.71,SSW,202,17.8,17.8,43,0.00,,,0.00,VWS V14.01,2013-04-06 19:22:00,
2013-04-06 14:23:00,64.0,41.7,29.71,SSW,202,22.1,22.1,44,0.00,,,0.00,VWS V14.01,2013-04-06 19:23:00,
2013-04-06 14:24:00,64.0,41.7,29.71,SSW,202,22.1,22.1,44,0.00,,,0.00,VWS V14.01,2013-04-06 19:24:00,
2013-04-06 14:25:00,64.0,42.3,29.71,SSW,202,18.3,18.3,45,0.00,,,0.00,VWS V14.01,2013-04-06 19:25:00,
2013-04-06 14:26:00,64.0,42.3,29.71,SSW,202,18.3,18.3,45,0.00,,,0.00,VWS V14.01,2013-04-06 19:26:00,
2013-04-06 14:27:00,64.0,41.7,29.71,SSW,202,18.3,18.3,44,0.00,,,0.00,VWS V14.01,2013-04-06 19:27:00,
2013-04-06 14:28:00,64.2,41.8,29.71,SSW,202,23.0,23.0,44,0.00,,,0.00,VWS V14.01,2013-04-06 19:28:00,
2013-04-06 14:29:00,64.2,41.8,29.71,SSW,202,19.4,23.0,44,0.00,,,0.00,VWS V14.01,2013-04-06 19:29:00,
2013-04-06 14:30:00,64.2,41.8,29.71,SSW,202,19.4,19.4,44,0.00,,,0.00,VWS V14.01,2013-04-06 19:30:00,
2013-04-06 14:31:00,64.2,41.3,29.71,SSW,202,19.4,19.4,43,0.00,,,0.00,VWS V14.01,2013-04-06 19:31:00,
2013-04-06 14:32:00,64.2,41.3,29.71,SSW,202,19.4,19.4,43,0.00,,,0.00,VWS V14.01,2013-04-06 19:32:00,
2013-04-06 14:33:00,64.2,42.4,29.71,SSW,202,16.7,19.4,45,0.00,,,0.00,VWS V14.01,2013-04-06 19:33:00,
2013-04-06 14:34:00,64.2,42.4,29.71,SSW,202,16.7,16.7,45,0.00,,,0.00,VWS V14.01,2013-04-06 19:34:00,
2013-04-06 14:35:00,64.2,42.4,29.71,SW,225,19.4,19.4,45,0.00,,,0.00,VWS V14.01,2013-04-06 19:35:00,
2013-04-06 14:36:00,64.2,42.4,29.71,SW,225,19.4,19.4,45,0.00,,,0.00,VWS V14.01,2013-04-06 19:36:00,
2013-04-06 14:37:00,64.2,42.4,29.71,SSW,202,14.0,19.4,45,0.00,,,0.00,VWS V14.01,2013-04-06 19:37:00,
2013-04-06 14:38:00,64.2,42.4,29.71,SSW,202,14.0,14.0,45,0.00,,,0.00,VWS V14.01,2013-04-06 19:38:00,
2013-04-06 14:39:00,64.2,41.8,29.71,SSW,202,22.1,22.1,44,0.00,,,0.00,VWS V14.01,2013-04-06 19:39:00,
2013-04-06 14:40:00,64.2,41.8,29.71,SSW,202,22.1,22.1,44,0.00,,,0.00,VWS V14.01,2013-04-06 19:40:00,
2013-04-06 14:41:00,64.2,41.3,29.71,SSW,202,35.5,35.5,43,0.00,,,0.00,VWS V14.01,2013-04-06 19:41:00,
2013-04-06 14:42:00,64.2,42.4,29.70,SSW,202,25.2,35.5,45,0.00,,,0.00,VWS V14.01,2013-04-06 19:42:00,
2013-04-06 14:43:00,64.2,42.4,29.70,SW,225,16.1,25.2,45,0.00,,,0.00,VWS V14.01,2013-04-06 19:43:00,
2013-04-06 14:44:00,64.2,42.4,29.71,SW,225,16.1,16.1,45,0.00,,,0.00,VWS V14.01,2013-04-06 19:44:00,
2013-04-06 14:45:00,64.2,42.4,29.71,SW,225,19.0,19.0,45,0.00,,,0.00,VWS V14.01,2013-04-06 19:45:00,
2013-04-06 14:46:00,64.2,42.4,29.71,SW,225,19.0,19.0,45,0.00,,,0.00,VWS V14.01,2013-04-06 19:46:00,
2013-04-06 14:47:00,64.0,42.3,29.70,SSW,202,19.4,19.4,45,0.00,,,0.00,VWS V14.01,2013-04-06 19:47:00,
2013-04-06 14:48:00,64.0,42.3,29.70,SSW,202,19.4,19.4,45,0.00,,,0.00,VWS V14.01,2013-04-06 19:48:00,
2013-04-06 14:49:00,63.8,42.1,29.70,SSW,202,19.4,19.4,45,0.00,,,0.00,VWS V14.01,2013-04-06 19:49:00,
2013-04-06 14:50:00,63.8,42.1,29.70,SSW,202,19.4,19.4,45,0.00,,,0.00,VWS V14.01,2013-04-06 19:50:00,
2013-04-06 14:51:00,63.8,42.1,29.70,SSW,202,19.4,19.4,45,0.00,,,0.00,VWS V14.01,2013-04-06 19:51:00,
2013-04-06 14:52:00,63.6,41.9,29.70,South,180,18.1,19.4,45,0.00,,,0.00,VWS V14.01,2013-04-06 19:52:00,
2013-04-06 14:53:00,63.6,41.9,29.70,South,180,18.1,18.1,45,0.00,,,0.00,VWS V14.01,2013-04-06 19:53:00,
2013-04-06 14:54:00,63.8,42.1,29.70,SSW,202,25.0,25.0,45,0.00,,,0.00,VWS V14.01,2013-04-06 19:54:00,
2013-04-06 14:55:00,64.0,42.8,29.69,SSW,202,23.2,23.2,46,0.00,,,0.00,VWS V14.01,2013-04-06 19:55:00,
2013-04-06 14:56:00,64.0,42.3,29.69,SSW,202,21.6,23.2,45,0.00,,,0.00,VWS V14.01,2013-04-06 19:56:00,
2013-04-06 14:57:00,64.0,42.3,29.70,SSW,202,21.6,21.6,45,0.00,,,0.00,VWS V14.01,2013-04-06 19:57:00,
2013-04-06 14:58:00,64.2,43.0,29.70,SW,225,12.5,21.6,46,0.00,,,0.00,VWS V14.01,2013-04-06 19:58:00,
2013-04-06 14:59:00,64.2,43.0,29.70,SW,225,12.5,12.5,46,0.00,,,0.00,VWS V14.01,2013-04-06 19:59:00,
2013-04-06 15:00:00,64.5,42.7,29.70,SSW,202,25.2,25.2,45,0.00,,,0.00,VWS V14.01,2013-04-06 20:00:00,
2013-04-06 15:01:00,64.9,43.1,29.70,SSW,202,17.6,25.2,45,0.00,,,0.00,VWS V14.01,2013-04-06 20:01:00,
2013-04-06 15:02:00,64.9,43.1,29.69,SSW,202,17.6,17.6,45,0.00,,,0.00,VWS V14.01,2013-04-06 20:02:00,
2013-04-06 15:03:00,65.8,43.9,29.69,SSW,202,19.9,19.9,45,0.00,,,0.00,VWS V14.01,2013-04-06 20:03:00,
2013-04-06 15:04:00,65.8,43.9,29.69,SSW,202,19.9,19.9,45,0.00,,,0.00,VWS V14.01,2013-04-06 20:04:00,
2013-04-06 15:05:00,65.8,43.9,29.69,SSW,202,19.9,19.9,45,0.00,,,0.00,VWS V14.01,2013-04-06 20:05:00,
2013-04-06 15:06:00,66.3,43.2,29.69,SW,225,16.1,19.9,43,0.00,,,0.00,VWS V14.01,2013-04-06 20:06:00,
2013-04-06 15:07:00,66.3,43.2,29.69,SW,225,16.1,16.1,43,0.00,,,0.00,VWS V14.01,2013-04-06 20:07:00,
2013-04-06 15:08:00,66.9,43.7,29.69,SSW,202,18.3,18.3,43,0.00,,,0.00,VWS V14.01,2013-04-06 20:08:00,
2013-04-06 15:09:00,66.9,43.7,29.70,SSW,202,18.3,18.3,43,0.00,,,0.00,VWS V14.01,2013-04-06 20:09:00,
2013-04-06 15:10:00,67.6,43.7,29.70,SW,225,14.0,14.0,42,0.00,,,0.00,VWS V14.01,2013-04-06 20:10:00,
2013-04-06 15:11:00,67.6,43.7,29.69,SW,225,14.0,14.0,42,0.00,,,0.00,VWS V14.01,2013-04-06 20:11:00,
2013-04-06 15:12:00,67.8,43.3,29.69,SSW,202,29.9,29.9,41,0.00,,,0.00,VWS V14.01,2013-04-06 20:12:00,
2013-04-06 15:13:00,67.8,43.3,29.69,SSW,202,35.3,35.3,41,0.00,,,0.00,VWS V14.01,2013-04-06 20:13:00,
2013-04-06 15:14:00,67.8,43.3,29.69,SSW,202,19.9,35.3,41,0.00,,,0.00,VWS V14.01,2013-04-06 20:14:00,
2013-04-06 15:15:00,67.8,43.3,29.68,SSW,202,19.9,19.9,41,0.00,,,0.00,VWS V14.01,2013-04-06 20:15:00,
2013-04-06 15:16:00,67.8,43.3,29.68,SSW,202,27.9,27.9,41,0.00,,,0.00,VWS V14.01,2013-04-06 20:16:00,
2013-04-06 15:17:00,67.6,43.1,29.68,South,180,22.3,27.9,41,0.00,,,0.00,VWS V14.01,2013-04-06 20:17:00,
2013-04-06 15:18:00,67.6,43.1,29.69,South,180,22.3,22.3,41,0.00,,,0.00,VWS V14.01,2013-04-06 20:18:00,
2013-04-06 15:19:00,67.6,43.1,29.69,SW,225,18.1,22.3,41,0.00,,,0.00,VWS V14.01,2013-04-06 20:19:00,
2013-04-06 15:20:00,67.2,43.4,29.69,SW,225,18.1,18.1,42,0.00,,,0.00,VWS V14.01,2013-04-06 20:20:00,
2013-04-06 15:21:00,67.2,43.3,29.69,SW,225,18.1,18.1,42,0.00,,,0.00,VWS V14.01,2013-04-06 20:21:00,
2013-04-06 15:22:00,66.9,43.7,29.69,SW,225,15.8,18.1,43,0.00,,,0.00,VWS V14.01,2013-04-06 20:22:00,
2013-04-06 15:23:00,66.9,43.7,29.69,SW,225,15.8,15.8,43,0.00,,,0.00,VWS V14.01,2013-04-06 20:23:00,
2013-04-06 15:24:00,66.7,43.5,29.69,SSW,202,14.7,15.8,43,0.00,,,0.00,VWS V14.01,2013-04-06 20:24:00,
2013-04-06 15:25:00,66.7,43.5,29.69,SSW,202,14.7,14.7,43,0.00,,,0.00,VWS V14.01,2013-04-06 20:25:00,
2013-04-06 15:26:00,66.5,43.3,29.69,SSW,202,21.6,21.6,43,0.00,,,0.00,VWS V14.01,2013-04-06 20:26:00,
2013-04-06 15:27:00,66.5,43.3,29.69,SSW,202,21.6,21.6,43,0.00,,,0.00,VWS V14.01,2013-04-06 20:27:00,
2013-04-06 15:28:00,66.3,43.2,29.69,SW,225,13.1,21.6,43,0.00,,,0.00,VWS V14.01,2013-04-06 20:28:00,
2013-04-06 15:29:00,66.3,43.2,29.69,SW,225,13.1,13.1,43,0.00,,,0.00,VWS V14.01,2013-04-06 20:29:00,
2013-04-06 15:30:00,66.5,43.3,29.69,SSW,202,20.5,20.5,43,0.00,,,0.00,VWS V14.01,2013-04-06 20:30:00,
2013-04-06 15:31:00,66.5,43.3,29.69,SSW,202,20.5,20.5,43,0.00,,,0.00,VWS V14.01,2013-04-06 20:31:00,
2013-04-06 15:32:00,67.2,44.0,29.69,SSW,202,22.8,22.8,43,0.00,,,0.00,VWS V14.01,2013-04-06 20:32:00,
2013-04-06 15:33:00,67.8,44.5,29.69,SW,225,14.3,22.8,43,0.00,,,0.00,VWS V14.01,2013-04-06 20:33:00,
2013-04-06 15:34:00,67.8,44.5,29.69,SW,225,14.3,14.3,43,0.00,,,0.00,VWS V14.01,2013-04-06 20:34:00,
2013-04-06 15:35:00,67.8,44.5,29.69,SW,225,14.3,14.3,43,0.00,,,0.00,VWS V14.01,2013-04-06 20:35:00,
2013-04-06 15:36:00,67.8,43.3,29.69,SSW,202,20.5,20.5,41,0.00,,,0.00,VWS V14.01,2013-04-06 20:36:00,
2013-04-06 15:37:00,67.8,43.3,29.69,SSW,202,20.5,20.5,41,0.00,,,0.00,VWS V14.01,2013-04-06 20:37:00,
2013-04-06 15:38:00,67.6,43.7,29.69,SSW,202,20.3,20.5,42,0.00,,,0.00,VWS V14.01,2013-04-06 20:38:00,
2013-04-06 15:39:00,67.6,43.7,29.69,SSW,202,20.3,20.3,42,0.00,,,0.00,VWS V14.01,2013-04-06 20:39:00,
2013-04-06 15:40:00,66.9,43.1,29.68,SSW,202,21.9,21.9,42,0.00,,,0.00,VWS V14.01,2013-04-06 20:40:00,
2013-04-06 15:41:00,66.9,43.1,29.69,SSW,202,21.9,21.9,42,0.00,,,0.00,VWS V14.01,2013-04-06 20:41:00,
2013-04-06 15:42:00,66.9,43.1,29.69,SSW,202,21.9,21.9,42,0.00,,,0.00,VWS V14.01,2013-04-06 20:42:00,
2013-04-06 15:43:00,66.0,42.9,29.69,WNW,292,15.8,21.9,43,0.00,,,0.00,VWS V14.01,2013-04-06 20:43:00,
2013-04-06 15:44:00,66.0,42.9,29.68,WNW,292,15.8,15.8,43,0.00,,,0.00,VWS V14.01,2013-04-06 20:44:00,
2013-04-06 15:45:00,65.4,42.9,29.69,SW,225,17.6,17.6,44,0.00,,,0.00,VWS V14.01,2013-04-06 20:45:00,
2013-04-06 15:46:00,65.4,42.9,29.68,SW,225,17.6,17.6,44,0.00,,,0.00,VWS V14.01,2013-04-06 20:46:00,
2013-04-06 15:47:00,65.1,42.7,29.68,SSW,202,21.2,21.2,44,0.00,,,0.00,VWS V14.01,2013-04-06 20:47:00,
2013-04-06 15:48:00,65.1,42.7,29.69,SSW,202,21.2,21.2,44,0.00,,,0.00,VWS V14.01,2013-04-06 20:48:00,
2013-04-06 15:49:00,65.1,43.3,29.69,SSW,202,23.2,23.2,45,0.00,,,0.00,VWS V14.01,2013-04-06 20:49:00,
2013-04-06 15:50:00,65.1,43.3,29.69,SSW,202,19.4,19.4,45,0.00,,,0.00,VWS V14.01,2013-04-06 20:50:00,
2013-04-06 15:51:00,65.1,43.3,29.69,SSW,202,19.4,19.4,45,0.00,,,0.00,VWS V14.01,2013-04-06 20:51:00,
2013-04-06 15:52:00,65.1,43.3,29.69,SW,225,14.3,19.4,45,0.00,,,0.00,VWS V14.01,2013-04-06 20:52:00,
2013-04-06 15:53:00,65.1,43.3,29.69,SW,225,14.3,14.3,45,0.00,,,0.00,VWS V14.01,2013-04-06 20:53:00,
2013-04-06 15:54:00,64.9,43.1,29.69,SSW,202,13.4,14.3,45,0.00,,,0.00,VWS V14.01,2013-04-06 20:54:00,
2013-04-06 15:55:00,64.9,43.1,29.69,SSW,202,13.4,13.4,45,0.00,,,0.00,VWS V14.01,2013-04-06 20:55:00,
2013-04-06 15:56:00,64.9,43.1,29.69,SSW,202,19.6,19.6,45,0.00,,,0.00,VWS V14.01,2013-04-06 20:56:00,
2013-04-06 15:57:00,64.9,43.1,29.69,SSW,202,19.6,19.6,45,0.00,,,0.00,VWS V14.01,2013-04-06 20:57:00,
2013-04-06 15:58:00,64.9,43.1,29.69,SSW,202,19.6,19.6,45,0.00,,,0.00,VWS V14.01,2013-04-06 20:58:00,
2013-04-06 15:59:00,64.9,43.7,29.69,SSW,202,16.7,19.6,46,0.00,,,0.00,VWS V14.01,2013-04-06 20:59:00,
2013-04-06 16:00:00,64.9,43.7,29.69,SSW,202,16.7,16.7,46,0.00,,,0.00,VWS V14.01,2013-04-06 21:00:00,
2013-04-06 16:01:00,64.7,44.0,29.69,SSW,202,10.2,16.7,47,0.00,,,0.00,VWS V14.01,2013-04-06 21:01:00,
2013-04-06 16:02:00,64.7,44.0,29.69,SSW,202,10.2,10.2,47,0.00,,,0.00,VWS V14.01,2013-04-06 21:02:00,
2013-04-06 16:03:00,64.7,44.0,29.69,SW,225,16.5,16.5,47,0.00,,,0.00,VWS V14.01,2013-04-06 21:03:00,
2013-04-06 16:04:00,64.7,44.0,29.69,SW,225,16.5,16.5,47,0.00,,,0.00,VWS V14.01,2013-04-06 21:04:00,
2013-04-06 16:05:00,64.5,43.8,29.69,SSW,202,19.0,19.0,47,0.00,,,0.00,VWS V14.01,2013-04-06 21:05:00,
2013-04-06 16:06:00,64.5,43.8,29.69,SSW,202,19.0,19.0,47,0.00,,,0.00,VWS V14.01,2013-04-06 21:06:00,
2013-04-06 16:07:00,64.2,44.1,29.69,SW,225,15.4,19.0,48,0.00,,,0.00,VWS V14.01,2013-04-06 21:07:00,
2013-04-06 16:08:00,64.2,44.1,29.69,SW,225,15.4,15.4,48,0.00,,,0.00,VWS V14.01,2013-04-06 21:08:00,
2013-04-06 16:09:00,64.2,45.2,29.69,SW,225,19.0,19.0,50,0.00,,,0.00,VWS V14.01,2013-04-06 21:09:00,
2013-04-06 16:10:00,63.8,44.8,29.69,SW,225,19.0,19.0,50,0.00,,,0.00,VWS V14.01,2013-04-06 21:10:00,
2013-04-06 16:11:00,63.8,44.8,29.69,WSW,248,8.0,19.0,50,0.00,,,0.00,VWS V14.01,2013-04-06 21:11:00,
2013-04-06 16:12:00,63.3,44.9,29.69,WSW,248,8.0,8.0,51,0.00,,,0.00,VWS V14.01,2013-04-06 21:12:00,
2013-04-06 16:13:00,63.3,44.9,29.69,WSW,248,8.0,8.0,51,0.00,,,0.00,VWS V14.01,2013-04-06 21:13:00,
2013-04-06 16:14:00,62.9,45.5,29.69,WNW,292,12.9,12.9,53,0.00,,,0.00,VWS V14.01,2013-04-06 21:14:00,
2013-04-06 16:15:00,62.9,45.5,29.69,WNW,292,12.9,12.9,53,0.00,,,0.00,VWS V14.01,2013-04-06 21:15:00,
2013-04-06 16:16:00,62.9,45.0,29.69,SW,225,20.8,20.8,52,0.00,,,0.00,VWS V14.01,2013-04-06 21:16:00,
2013-04-06 16:17:00,62.9,45.0,29.69,SW,225,20.8,20.8,52,0.00,,,0.00,VWS V14.01,2013-04-06 21:17:00,
2013-04-06 16:18:00,63.3,45.4,29.69,SW,225,10.5,20.8,52,0.00,,,0.00,VWS V14.01,2013-04-06 21:18:00,
2013-04-06 16:19:00,63.3,45.4,29.69,SW,225,10.5,10.5,52,0.00,,,0.00,VWS V14.01,2013-04-06 21:19:00,
2013-04-06 16:20:00,63.6,45.2,29.69,SSW,202,13.6,13.6,51,0.00,,,0.00,VWS V14.01,2013-04-06 21:20:00,
2013-04-06 16:21:00,63.6,45.2,29.69,SSW,202,13.6,13.6,51,0.00,,,0.00,VWS V14.01,2013-04-06 21:21:00,
2013-04-06 16:22:00,63.6,44.6,29.69,SW,225,16.1,16.1,50,0.00,,,0.00,VWS V14.01,2013-04-06 21:22:00,
2013-04-06 16:23:00,63.6,44.6,29.69,SW,225,16.1,16.1,50,0.00,,,0.00,VWS V14.01,2013-04-06 21:23:00,
2013-04-06 16:24:00,63.6,44.6,29.69,SW,225,13.6,16.1,50,0.00,,,0.00,VWS V14.01,2013-04-06 21:24:00,
2013-04-06 16:25:00,63.6,44.6,29.69,SW,225,13.6,13.6,50,0.00,,,0.00,VWS V14.01,2013-04-06 21:25:00,
2013-04-06 16:26:00,63.6,44.6,29.69,SSW,202,20.5,20.5,50,0.00,,,0.00,VWS V14.01,2013-04-06 21:26:00,
2013-04-06 16:27:00,63.5,44.5,29.68,SSW,202,20.5,20.5,50,0.00,,,0.00,VWS V14.01,2013-04-06 21:27:00,
2013-04-06 16:28:00,63.5,44.5,29.68,SSW,202,20.5,20.5,50,0.00,,,0.00,VWS V14.01,2013-04-06 21:28:00,
2013-04-06 16:29:00,63.5,44.5,29.69,SSW,202,16.1,20.5,50,0.00,,,0.00,VWS V14.01,2013-04-06 21:29:00,
2013-04-06 16:30:00,63.5,44.5,29.68,SSW,202,16.1,16.1,50,0.00,,,0.00,VWS V14.01,2013-04-06 21:30:00,
2013-04-06 16:31:00,63.6,44.6,29.67,SW,225,19.4,19.4,50,0.00,,,0.00,VWS V14.01,2013-04-06 21:31:00,
2013-04-06 16:32:00,63.6,44.6,29.68,SW,225,19.4,19.4,50,0.00,,,0.00,VWS V14.01,2013-04-06 21:32:00,
2013-04-06 16:33:00,63.6,44.1,29.68,SW,225,15.6,19.4,49,0.00,,,0.00,VWS V14.01,2013-04-06 21:33:00,
2013-04-06 16:34:00,63.6,44.1,29.69,SW,225,15.6,15.6,49,0.00,,,0.00,VWS V14.01,2013-04-06 21:34:00,
2013-04-06 16:35:00,64.0,45.0,29.69,SW,225,15.6,15.6,50,0.00,,,0.00,VWS V14.01,2013-04-06 21:35:00,
2013-04-06 16:36:00,64.0,45.0,29.68,SW,225,19.2,19.2,50,0.00,,,0.00,VWS V14.01,2013-04-06 21:36:00,
2013-04-06 16:37:00,64.0,45.0,29.68,SW,225,19.2,19.2,50,0.00,,,0.00,VWS V14.01,2013-04-06 21:37:00,
2013-04-06 16:38:00,64.0,44.5,29.68,SW,225,13.4,19.2,49,0.00,,,0.00,VWS V14.01,2013-04-06 21:38:00,
2013-04-06 16:39:00,64.0,44.5,29.68,SW,225,13.4,13.4,49,0.00,,,0.00,VWS V14.01,2013-04-06 21:39:00,
2013-04-06 16:40:00,64.0,45.0,29.68,SW,225,17.6,17.6,50,0.00,,,0.00,VWS V14.01,2013-04-06 21:40:00,
2013-04-06 16:41:00,64.0,45.0,29.68,SW,225,17.6,17.6,50,0.00,,,0.00,VWS V14.01,2013-04-06 21:41:00,
2013-04-06 16:42:00,64.0,44.5,29.68,SSW,202,20.1,20.1,49,0.00,,,0.00,VWS V14.01,2013-04-06 21:42:00,
2013-04-06 16:43:00,64.0,44.5,29.68,SSW,202,20.1,20.1,49,0.00,,,0.00,VWS V14.01,2013-04-06 21:43:00,
2013-04-06 16:44:00,64.0,44.5,29.68,SSW,202,20.1,20.1,49,0.00,,,0.00,VWS V14.01,2013-04-06 21:44:00,
2013-04-06 16:45:00,63.6,44.6,29.68,SSW,202,17.6,17.6,50,0.00,,,0.00,VWS V14.01,2013-04-06 21:45:00,
2013-04-06 16:46:00,63.6,44.6,29.68,SSW,202,17.6,17.6,50,0.00,,,0.00,VWS V14.01,2013-04-06 21:46:00,
2013-04-06 16:47:00,63.5,44.5,29.68,SW,225,17.2,17.6,50,0.00,,,0.00,VWS V14.01,2013-04-06 21:47:00,
2013-04-06 16:48:00,63.5,44.5,29.68,SW,225,17.2,17.2,50,0.00,,,0.00,VWS V14.01,2013-04-06 21:48:00,
2013-04-06 16:49:00,63.3,44.9,29.68,SW,225,11.1,17.2,51,0.00,,,0.00,VWS V14.01,2013-04-06 21:49:00,
2013-04-06 16:50:00,63.3,44.9,29.68,SW,225,11.1,11.1,51,0.00,,,0.00,VWS V14.01,2013-04-06 21:50:00,
2013-04-06 16:51:00,63.3,44.9,29.68,SW,225,11.1,11.1,51,0.00,,,0.00,VWS V14.01,2013-04-06 21:51:00,
2013-04-06 16:52:00,63.1,44.7,29.68,SSW,202,16.7,16.7,51,0.00,,,0.00,VWS V14.01,2013-04-06 21:52:00,
2013-04-06 16:53:00,62.9,44.5,29.68,SSW,202,12.0,16.7,51,0.00,,,0.00,VWS V14.01,2013-04-06 21:53:00,
2013-04-06 16:54:00,62.9,44.5,29.68,SSW,202,12.0,12.0,51,0.00,,,0.00,VWS V14.01,2013-04-06 21:54:00,
2013-04-06 16:55:00,62.7,44.3,29.68,SW,225,16.7,16.7,51,0.00,,,0.00,VWS V14.01,2013-04-06 21:55:00,
2013-04-06 16:56:00,62.7,44.3,29.68,SW,225,16.7,16.7,51,0.00,,,0.00,VWS V14.01,2013-04-06 21:56:00,
2013-04-06 16:57:00,62.4,44.6,29.68,SW,225,11.6,16.7,52,0.00,,,0.00,VWS V14.01,2013-04-06 21:57:00,
2013-04-06 16:58:00,62.4,44.6,29.68,SW,225,11.6,11.6,52,0.00,,,0.00,VWS V14.01,2013-04-06 21:58:00,
2013-04-06 16:59:00,62.4,44.6,29.68,SW,225,11.6,11.6,52,0.00,,,0.00,VWS V14.01,2013-04-06 21:59:00,
2013-04-06 17:00:00,62.4,44.0,29.68,SW,225,16.1,16.1,51,0.00,,,0.00,VWS V14.01,2013-04-06 22:00:00,
2013-04-06 17:01:00,62.4,44.0,29.68,SW,225,16.1,16.1,51,0.00,,,0.00,VWS V14.01,2013-04-06 22:01:00,
2013-04-06 17:02:00,62.2,44.4,29.68,SSW,202,12.9,16.1,52,0.00,,,0.00,VWS V14.01,2013-04-06 22:02:00,
2013-04-06 17:03:00,62.2,44.4,29.68,SSW,202,12.9,12.9,52,0.00,,,0.00,VWS V14.01,2013-04-06 22:03:00,
2013-04-06 17:04:00,61.8,45.0,29.68,SSW,202,12.9,12.9,54,0.00,,,0.00,VWS V14.01,2013-04-06 22:04:00,
2013-04-06 17:05:00,61.8,45.0,29.68,SSW,202,12.9,12.9,54,0.00,,,0.00,VWS V14.01,2013-04-06 22:05:00,
2013-04-06 17:06:00,61.8,45.0,29.68,SSW,202,12.9,12.9,54,0.00,,,0.00,VWS V14.01,2013-04-06 22:06:00,
2013-04-06 17:07:00,61.5,45.2,29.68,SW,225,12.5,12.5,55,0.00,,,0.00,VWS V14.01,2013-04-06 22:07:00,
2013-04-06 17:08:00,60.9,45.1,29.68,SW,225,11.4,12.5,56,0.00,,,0.00,VWS V14.01,2013-04-06 22:08:00,
2013-04-06 17:09:00,60.9,45.1,29.68,SW,225,11.4,11.4,56,0.00,,,0.00,VWS V14.01,2013-04-06 22:09:00,
2013-04-06 17:10:00,60.9,45.1,29.68,SSW,202,13.6,13.6,56,0.00,,,0.00,VWS V14.01,2013-04-06 22:10:00,
2013-04-06 17:11:00,60.9,45.1,29.68,SSW,202,13.6,13.6,56,0.00,,,0.00,VWS V14.01,2013-04-06 22:11:00,
2013-04-06 17:12:00,60.6,45.3,29.68,SW,225,12.7,13.6,57,0.00,,,0.00,VWS V14.01,2013-04-06 22:12:00,
2013-04-06 17:13:00,60.4,45.1,29.68,SW,225,12.7,12.7,57,0.00,,,0.00,VWS V14.01,2013-04-06 22:13:00,
2013-04-06 17:14:00,60.4,45.1,29.68,SW,225,12.7,12.7,57,0.00,,,0.00,VWS V14.01,2013-04-06 22:14:00,
2013-04-06 17:15:00,60.4,45.6,29.68,SSW,202,12.3,12.7,58,0.00,,,0.00,VWS V14.01,2013-04-06 22:15:00,
2013-04-06 17:16:00,60.4,45.6,29.68,SSW,202,12.3,12.3,58,0.00,,,0.00,VWS V14.01,2013-04-06 22:16:00,
2013-04-06 17:17:00,60.0,45.2,29.68,SSW,202,9.6,12.3,58,0.00,,,0.00,VWS V14.01,2013-04-06 22:17:00,
2013-04-06 17:18:00,60.0,45.2,29.68,SSW,202,9.6,9.6,58,0.00,,,0.00,VWS V14.01,2013-04-06 22:18:00,
2013-04-06 17:19:00,60.0,45.2,29.69,SSW,202,8.5,9.6,58,0.00,,,0.00,VWS V14.01,2013-04-06 22:19:00,
2013-04-06 17:20:00,60.0,45.2,29.69,SSW,202,8.5,8.5,58,0.00,,,0.00,VWS V14.01,2013-04-06 22:20:00,
2013-04-06 17:21:00,60.0,45.2,29.69,SSW,202,8.5,8.5,58,0.00,,,0.00,VWS V14.01,2013-04-06 22:21:00,
2013-04-06 17:22:00,60.0,45.7,29.68,SSW,202,10.5,10.5,59,0.00,,,0.00,VWS V14.01,2013-04-06 22:22:00,
2013-04-06 17:23:00,59.7,45.8,29.69,SW,225,8.0,10.5,60,0.00,,,0.00,VWS V14.01,2013-04-06 22:23:00,
2013-04-06 17:24:00,59.7,45.8,29.69,SW,225,8.0,8.0,60,0.00,,,0.00,VWS V14.01,2013-04-06 22:24:00,
2013-04-06 17:25:00,59.7,45.8,29.69,SSW,202,8.9,8.9,60,0.00,,,0.00,VWS V14.01,2013-04-06 22:25:00,
2013-04-06 17:26:00,59.7,45.8,29.69,SSW,202,8.9,8.9,60,0.00,,,0.00,VWS V14.01,2013-04-06 22:26:00,
2013-04-06 17:27:00,59.5,45.6,29.69,SSW,202,8.9,8.9,60,0.00,,,0.00,VWS V14.01,2013-04-06 22:27:00,
2013-04-06 17:28:00,59.1,46.1,29.69,SSW,202,9.1,9.1,62,0.00,,,0.00,VWS V14.01,2013-04-06 22:28:00,
2013-04-06 17:29:00,59.1,46.1,29.69,SSW,202,9.1,9.1,62,0.00,,,0.00,VWS V14.01,2013-04-06 22:29:00,
2013-04-06 17:30:00,58.8,46.2,29.69,SSW,202,6.7,9.1,63,0.00,,,0.00,VWS V14.01,2013-04-06 22:30:00,
2013-04-06 17:31:00,58.8,46.2,29.69,SSW,202,6.7,6.7,63,0.00,,,0.00,VWS V14.01,2013-04-06 22:31:00,
2013-04-06 17:32:00,58.8,46.7,29.69,SSW,202,11.8,11.8,64,0.00,,,0.00,VWS V14.01,2013-04-06 22:32:00,
2013-04-06 17:33:00,58.8,46.7,29.69,SSW,202,11.8,11.8,64,0.00,,,0.00,VWS V14.01,2013-04-06 22:33:00,
2013-04-06 17:34:00,58.6,47.3,29.69,SSW,202,9.1,11.8,66,0.00,,,0.00,VWS V14.01,2013-04-06 22:34:00,
2013-04-06 17:35:00,58.6,47.3,29.69,SSW,202,9.1,9.1,66,0.00,,,0.00,VWS V14.01,2013-04-06 22:35:00,
2013-04-06 17:36:00,58.6,47.3,29.69,SSW,202,9.1,9.1,66,0.00,,,0.00,VWS V14.01,2013-04-06 22:36:00,
2013-04-06 17:37:00,58.1,47.2,29.69,SSW,202,12.5,12.5,67,0.00,,,0.00,VWS V14.01,2013-04-06 22:37:00,
2013-04-06 17:38:00,57.9,47.0,29.69,SSW,202,8.2,12.5,67,0.00,,,0.00,VWS V14.01,2013-04-06 22:38:00,
2013-04-06 17:39:00,57.9,47.0,29.69,SSW,202,8.2,8.2,67,0.00,,,0.00,VWS V14.01,2013-04-06 22:39:00,
2013-04-06 17:40:00,57.7,47.2,29.69,SSW,202,9.8,9.8,68,0.00,,,0.00,VWS V14.01,2013-04-06 22:40:00,
2013-04-06 17:41:00,57.7,47.2,29.69,SSW,202,9.8,9.8,68,0.00,,,0.00,VWS V14.01,2013-04-06 22:41:00,
2013-04-06 17:42:00,57.7,47.2,29.69,SSW,202,7.8,9.8,68,0.00,,,0.00,VWS V14.01,2013-04-06 22:42:00,
2013-04-06 17:43:00,57.7,47.2,29.69,SSW,202,7.8,7.8,68,0.00,,,0.00,VWS V14.01,2013-04-06 22:43:00,
2013-04-06 17:44:00,57.7,47.2,29.69,SSW,202,7.8,7.8,68,0.00,,,0.00,VWS V14.01,2013-04-06 22:44:00,
2013-04-06 17:45:00,57.7,47.2,29.69,SSW,202,6.9,7.8,68,0.00,,,0.00,VWS V14.01,2013-04-06 22:45:00,
2013-04-06 17:46:00,57.7,47.2,29.69,SSW,202,6.9,6.9,68,0.00,,,0.00,VWS V14.01,2013-04-06 22:46:00,
2013-04-06 17:47:00,57.7,47.2,29.69,SSW,202,8.5,8.5,68,0.00,,,0.00,VWS V14.01,2013-04-06 22:47:00,
2013-04-06 17:48:00,57.7,47.2,29.69,SSW,202,8.5,8.5,68,0.00,,,0.00,VWS V14.01,2013-04-06 22:48:00,
2013-04-06 17:49:00,57.7,47.2,29.68,SSW,202,11.4,11.4,68,0.00,,,0.00,VWS V14.01,2013-04-06 22:49:00,
2013-04-06 17:50:00,57.7,47.2,29.68,SSW,202,11.4,11.4,68,0.00,,,0.00,VWS V14.01,2013-04-06 22:50:00,
2013-04-06 17:51:00,57.7,47.2,29.68,SSW,202,11.4,11.4,68,0.00,,,0.00,VWS V14.01,2013-04-06 22:51:00,
2013-04-06 17:52:00,57.7,47.2,29.68,SSW,202,9.8,9.8,68,0.00,,,0.00,VWS V14.01,2013-04-06 22:52:00,
2013-04-06 17:53:00,57.5,47.0,29.68,SSW,202,10.5,10.5,68,0.00,,,0.00,VWS V14.01,2013-04-06 22:53:00,
2013-04-06 17:54:00,57.5,47.0,29.68,SSW,202,10.5,10.5,68,0.00,,,0.00,VWS V14.01,2013-04-06 22:54:00,
2013-04-06 17:55:00,57.5,47.0,29.68,SSW,202,5.8,10.5,68,0.00,,,0.00,VWS V14.01,2013-04-06 22:55:00,
2013-04-06 17:56:00,57.5,47.0,29.68,SSW,202,5.8,5.8,68,0.00,,,0.00,VWS V14.01,2013-04-06 22:56:00,
2013-04-06 17:57:00,57.5,47.0,29.68,SSW,202,11.6,11.6,68,0.00,,,0.00,VWS V14.01,2013-04-06 22:57:00,
2013-04-06 17:58:00,57.5,47.4,29.68,SSW,202,11.6,11.6,69,0.00,,,0.00,VWS V14.01,2013-04-06 22:58:00,
2013-04-06 17:59:00,57.5,47.4,29.68,SSW,202,11.6,11.6,69,0.00,,,0.00,VWS V14.01,2013-04-06 22:59:00,
2013-04-06 18:00:00,57.5,47.4,29.68,SSW,202,12.0,12.0,69,0.00,,,0.00,VWS V14.01,2013-04-06 23:00:00,
2013-04-06 18:01:00,57.5,47.4,29.68,SSW,202,12.0,12.0,69,0.00,,,0.00,VWS V14.01,2013-04-06 23:01:00,
2013-04-06 18:02:00,57.5,47.4,29.68,SSW,202,11.1,12.0,69,0.00,,,0.00,VWS V14.01,2013-04-06 23:02:00,
2013-04-06 18:03:00,57.5,47.4,29.68,SSW,202,11.1,11.1,69,0.00,,,0.00,VWS V14.01,2013-04-06 23:03:00,
2013-04-06 18:04:00,57.3,47.6,29.68,SSW,202,12.7,12.7,70,0.00,,,0.00,VWS V14.01,2013-04-06 23:04:00,
2013-04-06 18:05:00,57.3,47.6,29.68,SSW,202,12.7,12.7,70,0.00,,,0.00,VWS V14.01,2013-04-06 23:05:00,
2013-04-06 18:06:00,57.3,47.6,29.68,SSW,202,12.7,12.7,70,0.00,,,0.00,VWS V14.01,2013-04-06 23:06:00,
2013-04-06 18:07:00,57.3,48.0,29.68,SSW,202,8.7,8.7,71,0.00,,,0.00,VWS V14.01,2013-04-06 23:07:00,
2013-04-06 18:08:00,57.0,47.7,29.68,SSW,202,13.6,13.6,71,0.00,,,0.00,VWS V14.01,2013-04-06 23:08:00,
2013-04-06 18:09:00,57.0,47.7,29.68,SSW,202,13.6,13.6,71,0.00,,,0.00,VWS V14.01,2013-04-06 23:09:00,
2013-04-06 18:10:00,57.3,48.0,29.68,South,180,11.4,13.6,71,0.00,,,0.00,VWS V14.01,2013-04-06 23:10:00,
2013-04-06 18:11:00,57.3,48.0,29.68,South,180,11.4,11.4,71,0.00,,,0.00,VWS V14.01,2013-04-06 23:11:00,
2013-04-06 18:12:00,57.3,47.6,29.68,SSW,202,10.7,11.4,70,0.00,,,0.00,VWS V14.01,2013-04-06 23:12:00,
2013-04-06 18:13:00,57.3,47.6,29.67,SSW,202,10.7,10.7,70,0.00,,,0.00,VWS V14.01,2013-04-06 23:13:00,
2013-04-06 18:14:00,57.3,47.6,29.67,SSW,202,10.7,10.7,70,0.00,,,0.00,VWS V14.01,2013-04-06 23:14:00,
2013-04-06 18:15:00,57.5,47.8,29.67,South,180,13.4,13.4,70,0.00,,,0.00,VWS V14.01,2013-04-06 23:15:00,
2013-04-06 18:16:00,57.5,47.8,29.67,South,180,13.4,13.4,70,0.00,,,0.00,VWS V14.01,2013-04-06 23:16:00,
2013-04-06 18:17:00,57.9,47.8,29.67,SSW,202,13.6,13.6,69,0.00,,,0.00,VWS V14.01,2013-04-06 23:17:00,
2013-04-06 18:18:00,57.9,47.8,29.67,SSW,202,13.6,13.6,69,0.00,,,0.00,VWS V14.01,2013-04-06 23:18:00,
2013-04-06 18:19:00,57.9,47.8,29.67,SSW,202,11.4,13.6,69,0.00,,,0.00,VWS V14.01,2013-04-06 23:19:00,
2013-04-06 18:20:00,57.9,47.8,29.67,SSW,202,11.4,11.4,69,0.00,,,0.00,VWS V14.01,2013-04-06 23:20:00,
2013-04-06 18:21:00,57.9,47.8,29.67,SSW,202,12.0,12.0,69,0.00,,,0.00,VWS V14.01,2013-04-06 23:21:00,
2013-04-06 18:22:00,57.9,47.8,29.67,SSW,202,12.0,12.0,69,0.00,,,0.00,VWS V14.01,2013-04-06 23:22:00,
2013-04-06 18:23:00,57.9,47.4,29.67,SSW,202,17.4,17.4,68,0.00,,,0.00,VWS V14.01,2013-04-06 23:23:00,
2013-04-06 18:24:00,57.9,47.4,29.67,SSW,202,17.4,17.4,68,0.00,,,0.00,VWS V14.01,2013-04-06 23:24:00,
2013-04-06 18:25:00,58.1,47.6,29.67,SSW,202,14.5,17.4,68,0.00,,,0.00,VWS V14.01,2013-04-06 23:25:00,
2013-04-06 18:26:00,58.1,47.6,29.67,SSW,202,14.5,14.5,68,0.00,,,0.00,VWS V14.01,2013-04-06 23:26:00,
2013-04-06 18:27:00,58.4,47.9,29.67,SW,225,16.7,16.7,68,0.00,,,0.00,VWS V14.01,2013-04-06 23:27:00,
2013-04-06 18:28:00,58.4,47.9,29.67,SW,225,16.7,16.7,68,0.00,,,0.00,VWS V14.01,2013-04-06 23:28:00,
2013-04-06 18:29:00,58.4,47.9,29.67,SW,225,16.7,16.7,68,0.00,,,0.00,VWS V14.01,2013-04-06 23:29:00,
2013-04-06 18:30:00,58.2,47.7,29.67,SSW,202,12.7,16.7,68,0.00,,,0.00,VWS V14.01,2013-04-06 23:30:00,
2013-04-06 18:31:00,58.2,47.7,29.67,SSW,202,12.7,12.7,68,0.00,,,0.00,VWS V14.01,2013-04-06 23:31:00,
2013-04-06 18:32:00,58.2,47.3,29.67,SSW,202,14.3,14.3,67,0.00,,,0.00,VWS V14.01,2013-04-06 23:32:00,
2013-04-06 18:33:00,58.2,47.3,29.67,SSW,202,14.3,14.3,67,0.00,,,0.00,VWS V14.01,2013-04-06 23:33:00,
2013-04-06 18:34:00,58.6,47.7,29.68,SSW,202,13.1,14.3,67,0.00,,,0.00,VWS V14.01,2013-04-06 23:34:00,
2013-04-06 18:35:00,58.6,47.7,29.67,SSW,202,13.1,13.1,67,0.00,,,0.00,VWS V14.01,2013-04-06 23:35:00,
2013-04-06 18:36:00,58.6,47.7,29.67,SSW,202,12.3,12.3,67,0.00,,,0.00,VWS V14.01,2013-04-06 23:36:00,
2013-04-06 18:37:00,58.6,47.7,29.67,SSW,202,12.3,12.3,67,0.00,,,0.00,VWS V14.01,2013-04-06 23:37:00,
2013-04-06 18:38:00,58.2,47.7,29.68,SSW,202,10.9,12.3,68,0.00,,,0.00,VWS V14.01,2013-04-06 23:38:00,
2013-04-06 18:39:00,58.2,47.7,29.67,SSW,202,10.9,10.9,68,0.00,,,0.00,VWS V14.01,2013-04-06 23:39:00,
2013-04-06 18:40:00,58.1,47.6,29.67,SSW,202,13.8,13.8,68,0.00,,,0.00,VWS V14.01,2013-04-06 23:40:00,
2013-04-06 18:41:00,58.1,47.6,29.67,SSW,202,13.8,13.8,68,0.00,,,0.00,VWS V14.01,2013-04-06 23:41:00,
2013-04-06 18:42:00,58.1,47.6,29.67,SSW,202,13.8,13.8,68,0.00,,,0.00,VWS V14.01,2013-04-06 23:42:00,
2013-04-06 18:43:00,58.1,47.6,29.67,SW,225,12.9,12.9,68,0.00,,,0.00,VWS V14.01,2013-04-06 23:43:00,
2013-04-06 18:44:00,58.1,47.6,29.67,SW,225,12.0,12.9,68,0.00,,,0.00,VWS V14.01,2013-04-06 23:44:00,
2013-04-06 18:45:00,58.1,47.6,29.67,SW,225,12.0,12.0,68,0.00,,,0.00,VWS V14.01,2013-04-06 23:45:00,
2013-04-06 18:46:00,58.1,47.6,29.67,SW,225,12.0,12.0,68,0.00,,,0.00,VWS V14.01,2013-04-06 23:46:00,
2013-04-06 18:47:00,58.1,47.6,29.67,SW,225,12.0,12.0,68,0.00,,,0.00,VWS V14.01,2013-04-06 23:47:00,
2013-04-06 18:48:00,58.1,47.6,29.67,SSW,202,13.8,13.8,68,0.00,,,0.00,VWS V14.01,2013-04-06 23:48:00,
2013-04-06 18:49:00,57.9,47.4,29.67,SSW,202,12.7,13.8,68,0.00,,,0.00,VWS V14.01,2013-04-06 23:49:00,
2013-04-06 18:50:00,57.9,47.4,29.67,SSW,202,12.7,12.7,68,0.00,,,0.00,VWS V14.01,2013-04-06 23:50:00,
2013-04-06 18:51:00,57.9,47.4,29.67,SSW,202,9.6,12.7,68,0.00,,,0.00,VWS V14.01,2013-04-06 23:51:00,
2013-04-06 18:52:00,57.9,47.4,29.67,SSW,202,9.6,9.6,68,0.00,,,0.00,VWS V14.01,2013-04-06 23:52:00,
2013-04-06 18:53:00,57.7,47.6,29.67,SSW,202,10.5,10.5,69,0.00,,,0.00,VWS V14.01,2013-04-06 23:53:00,
2013-04-06 18:54:00,57.7,47.6,29.67,SSW,202,10.5,10.5,69,0.00,,,0.00,VWS V14.01,2013-04-06 23:54:00,
2013-04-06 18:55:00,57.7,47.6,29.67,SSW,202,12.0,12.0,69,0.00,,,0.00,VWS V14.01,2013-04-06 23:55:00,
2013-04-06 18:56:00,57.7,47.6,29.67,SSW,202,12.0,12.0,69,0.00,,,0.00,VWS V14.01,2013-04-06 23:56:00,
2013-04-06 18:57:00,57.7,47.6,29.67,SSW,202,12.0,12.0,69,0.00,,,0.00,VWS V14.01,2013-04-06 23:57:00,
2013-04-06 18:58:00,57.7,47.6,29.67,SSW,202,7.6,7.6,69,0.00,,,0.00,VWS V14.01,2013-04-06 23:58:00,
2013-04-06 18:59:00,57.7,47.6,29.67,SSW,202,7.6,7.6,69,0.00,,,0.00,VWS V14.01,2013-04-06 23:59:00,
2013-04-06 19:00:00,57.7,47.2,29.67,SSW,202,12.5,12.5,68,0.00,,,0.00,VWS V14.01,2013-04-07 00:00:00,
2013-04-06 19:01:00,57.7,47.2,29.67,SSW,202,12.5,12.5,68,0.00,,,0.00,VWS V14.01,2013-04-07 00:01:00,
2013-04-06 19:02:00,57.7,47.2,29.67,SSW,202,12.5,12.5,68,0.00,,,0.00,VWS V14.01,2013-04-07 00:02:00,
2013-04-06 19:03:00,57.9,47.4,29.67,SSW,202,10.0,10.0,68,0.00,,,0.00,VWS V14.01,2013-04-07 00:03:00,
2013-04-06 19:04:00,57.7,47.2,29.67,SSW,202,12.9,12.9,68,0.00,,,0.00,VWS V14.01,2013-04-07 00:04:00,
2013-04-06 19:05:00,57.7,47.2,29.67,SSW,202,12.9,12.9,68,0.00,,,0.00,VWS V14.01,2013-04-07 00:05:00,
2013-04-06 19:06:00,57.7,47.2,29.67,SSW,202,15.4,15.4,68,0.00,,,0.00,VWS V14.01,2013-04-07 00:06:00,
2013-04-06 19:07:00,57.7,47.2,29.67,SSW,202,15.4,15.4,68,0.00,,,0.00,VWS V14.01,2013-04-07 00:07:00,
2013-04-06 19:08:00,57.9,47.0,29.67,SSW,202,10.9,15.4,67,0.00,,,0.00,VWS V14.01,2013-04-07 00:08:00,
2013-04-06 19:09:00,57.9,47.0,29.67,SSW,202,10.9,10.9,67,0.00,,,0.00,VWS V14.01,2013-04-07 00:09:00,
2013-04-06 19:10:00,57.9,47.0,29.67,SSW,202,11.8,11.8,67,0.00,,,0.00,VWS V14.01,2013-04-07 00:10:00,
2013-04-06 19:11:00,57.9,47.0,29.67,SSW,202,11.8,11.8,67,0.00,,,0.00,VWS V14.01,2013-04-07 00:11:00,
2013-04-06 19:12:00,57.9,47.0,29.67,SSW,202,11.8,11.8,67,0.00,,,0.00,VWS V14.01,2013-04-07 00:12:00,
2013-04-06 19:13:00,57.9,47.0,29.67,SSW,202,9.8,9.8,67,0.00,,,0.00,VWS V14.01,2013-04-07 00:13:00,
2013-04-06 19:14:00,57.9,47.0,29.67,SSW,202,9.8,9.8,67,0.00,,,0.00,VWS V14.01,2013-04-07 00:14:00,
2013-04-06 19:15:00,57.9,47.0,29.67,SSW,202,7.6,9.8,67,0.00,,,0.00,VWS V14.01,2013-04-07 00:15:00,
2013-04-06 19:16:00,57.9,47.0,29.67,SSW,202,7.6,7.6,67,0.00,,,0.00,VWS V14.01,2013-04-07 00:16:00,
2013-04-06 19:17:00,57.9,47.0,29.67,SSW,202,7.6,7.6,67,0.00,,,0.00,VWS V14.01,2013-04-07 00:17:00,
2013-04-06 19:18:00,57.9,47.4,29.67,WSW,248,5.5,5.5,68,0.00,,,0.00,VWS V14.01,2013-04-07 00:18:00,
2013-04-06 19:19:00,57.7,47.2,29.67,WSW,248,6.2,6.2,68,0.00,,,0.00,VWS V14.01,2013-04-07 00:19:00,
2013-04-06 19:20:00,57.7,47.2,29.67,WSW,248,6.2,6.2,68,0.00,,,0.00,VWS V14.01,2013-04-07 00:20:00,
2013-04-06 19:21:00,57.7,47.2,29.67,SW,225,8.7,8.7,68,0.00,,,0.00,VWS V14.01,2013-04-07 00:21:00,
2013-04-06 19:22:00,57.7,47.2,29.67,SW,225,8.7,8.7,68,0.00,,,0.00,VWS V14.01,2013-04-07 00:22:00,
2013-04-06 19:23:00,57.7,46.8,29.67,SW,225,9.1,9.1,67,0.00,,,0.00,VWS V14.01,2013-04-07 00:23:00,
2013-04-06 19:24:00,57.7,46.8,29.67,SW,225,9.1,9.1,67,0.00,,,0.00,VWS V14.01,2013-04-07 00:24:00,
2013-04-06 19:25:00,57.9,47.0,29.67,SSW,202,8.7,9.1,67,0.00,,,0.00,VWS V14.01,2013-04-07 00:25:00,
2013-04-06 19:26:00,57.9,47.0,29.67,SSW,202,8.7,8.7,67,0.00,,,0.00,VWS V14.01,2013-04-07 00:26:00,
2013-04-06 19:27:00,57.9,47.0,29.67,SSW,202,8.7,8.7,67,0.00,,,0.00,VWS V14.01,2013-04-07 00:27:00,
2013-04-06 19:28:00,57.9,47.0,29.67,SW,225,9.1,9.1,67,0.00,,,0.00,VWS V14.01,2013-04-07 00:28:00,
2013-04-06 19:29:00,57.9,47.0,29.67,SW,225,9.1,9.1,67,0.00,,,0.00,VWS V14.01,2013-04-07 00:29:00,
2013-04-06 19:30:00,57.7,47.2,29.67,SSW,202,7.1,9.1,68,0.00,,,0.00,VWS V14.01,2013-04-07 00:30:00,
2013-04-06 19:31:00,57.7,47.2,29.67,SSW,202,7.1,7.1,68,0.00,,,0.00,VWS V14.01,2013-04-07 00:31:00,
2013-04-06 19:32:00,57.7,47.2,29.67,SSW,202,7.1,7.1,68,0.00,,,0.00,VWS V14.01,2013-04-07 00:32:00,
2013-04-06 19:33:00,57.7,47.2,29.68,SW,225,3.3,3.3,68,0.00,,,0.00,VWS V14.01,2013-04-07 00:33:00,
2013-04-06 19:34:00,57.3,47.2,29.68,West,270,0.0,3.3,69,0.00,,,0.00,VWS V14.01,2013-04-07 00:34:00,
2013-04-06 19:35:00,57.3,47.2,29.67,West,270,0.0,0.0,69,0.00,,,0.00,VWS V14.01,2013-04-07 00:35:00,
2013-04-06 19:36:00,57.0,47.3,29.68,SW,225,1.3,1.3,70,0.00,,,0.00,VWS V14.01,2013-04-07 00:36:00,
2013-04-06 19:37:00,57.0,47.3,29.68,SW,225,1.3,1.3,70,0.00,,,0.00,VWS V14.01,2013-04-07 00:37:00,
2013-04-06 19:38:00,56.8,47.1,29.68,SW,225,10.2,10.2,70,0.00,,,0.00,VWS V14.01,2013-04-07 00:38:00,
2013-04-06 19:39:00,56.8,47.1,29.67,SW,225,10.2,10.2,70,0.00,,,0.00,VWS V14.01,2013-04-07 00:39:00,
2013-04-06 19:40:00,56.4,46.8,29.67,SSW,202,8.2,10.2,70,0.00,,,0.00,VWS V14.01,2013-04-07 00:40:00,
2013-04-06 19:41:00,56.4,46.8,29.67,SSW,202,8.2,8.2,70,0.00,,,0.00,VWS V14.01,2013-04-07 00:41:00,
2013-04-06 19:42:00,56.4,46.8,29.67,SSW,202,8.2,8.2,70,0.00,,,0.00,VWS V14.01,2013-04-07 00:42:00,
2013-04-06 19:43:00,56.6,46.9,29.68,WSW,248,2.0,8.2,70,0.00,,,0.00,VWS V14.01,2013-04-07 00:43:00,
2013-04-06 19:44:00,56.6,46.9,29.68,WSW,248,0.0,2.0,70,0.00,,,0.00,VWS V14.01,2013-04-07 00:44:00,
2013-04-06 19:45:00,56.8,47.1,29.68,WSW,248,0.0,0.0,70,0.00,,,0.00,VWS V14.01,2013-04-07 00:45:00,
2013-04-06 19:46:00,56.8,47.1,29.68,WSW,248,0.0,0.0,70,0.00,,,0.00,VWS V14.01,2013-04-07 00:46:00,
2013-04-06 19:47:00,56.4,47.1,29.68,West,270,0.0,0.0,71,0.00,,,0.00,VWS V14.01,2013-04-07 00:47:00,
2013-04-06 19:48:00,56.4,47.1,29.68,West,270,0.0,0.0,71,0.00,,,0.00,VWS V14.01,2013-04-07 00:48:00,
2013-04-06 19:49:00,56.1,47.6,29.68,WNW,292,5.8,5.8,73,0.00,,,0.00,VWS V14.01,2013-04-07 00:49:00,
2013-04-06 19:50:00,56.1,47.6,29.68,WNW,292,5.8,5.8,73,0.00,,,0.00,VWS V14.01,2013-04-07 00:50:00,
2013-04-06 19:51:00,55.5,47.7,29.68,West,270,0.0,5.8,75,0.00,,,0.00,VWS V14.01,2013-04-07 00:51:00,
2013-04-06 19:52:00,55.5,47.7,29.68,West,270,0.0,0.0,75,0.00,,,0.00,VWS V14.01,2013-04-07 00:52:00,
2013-04-06 19:53:00,55.2,47.8,29.68,WNW,292,4.9,4.9,76,0.00,,,0.00,VWS V14.01,2013-04-07 00:53:00,
2013-04-06 19:54:00,55.2,47.8,29.68,WNW,292,4.9,4.9,76,0.00,,,0.00,VWS V14.01,2013-04-07 00:54:00,
2013-04-06 19:55:00,54.8,47.7,29.68,SW,225,2.6,4.9,77,0.00,,,0.00,VWS V14.01,2013-04-07 00:55:00,
2013-04-06 19:56:00,54.8,47.7,29.68,SW,225,2.6,2.6,77,0.00,,,0.00,VWS V14.01,2013-04-07 00:56:00,
2013-04-06 19:57:00,54.6,47.5,29.68,WSW,248,0.8,0.8,77,0.00,,,0.00,VWS V14.01,2013-04-07 00:57:00,
2013-04-06 19:58:00,54.6,47.5,29.68,WSW,248,0.8,0.8,77,0.00,,,0.00,VWS V14.01,2013-04-07 00:58:00,
2013-04-06 19:59:00,54.6,47.5,29.68,SW,225,6.4,6.4,77,0.02,,,0.02,VWS V14.01,2013-04-07 00:59:00,
2013-04-06 20:00:00,54.5,47.8,29.69,SW,225,6.4,6.4,78,0.02,,,0.02,VWS V14.01,2013-04-07 01:00:00,
2013-04-06 20:01:00,54.5,47.8,29.69,SW,225,6.4,6.4,78,0.02,,,0.02,VWS V14.01,2013-04-07 01:01:00,
2013-04-06 20:02:00,54.5,47.8,29.69,SW,225,4.4,4.4,78,0.02,,,0.02,VWS V14.01,2013-04-07 01:02:00,
2013-04-06 20:03:00,54.5,47.8,29.69,SW,225,4.4,4.4,78,0.02,,,0.02,VWS V14.01,2013-04-07 01:03:00,
2013-04-06 20:04:00,54.3,47.6,29.69,SW,225,5.5,5.5,78,0.02,,,0.02,VWS V14.01,2013-04-07 01:04:00,
2013-04-06 20:05:00,54.3,47.6,29.69,SW,225,5.5,5.5,78,0.02,,,0.02,VWS V14.01,2013-04-07 01:05:00,
2013-04-06 20:06:00,54.3,47.9,29.69,SW,225,5.8,5.8,79,0.02,,,0.02,VWS V14.01,2013-04-07 01:06:00,
2013-04-06 20:07:00,54.3,47.9,29.69,SW,225,5.8,5.8,79,0.02,,,0.02,VWS V14.01,2013-04-07 01:07:00,
2013-04-06 20:08:00,54.3,48.3,29.68,SSW,202,12.9,12.9,80,0.04,,,0.04,VWS V14.01,2013-04-07 01:08:00,
2013-04-06 20:09:00,54.3,48.3,29.69,SSW,202,12.9,12.9,80,0.04,,,0.04,VWS V14.01,2013-04-07 01:09:00,
2013-04-06 20:10:00,54.3,48.3,29.68,SSW,202,12.5,12.9,80,0.04,,,0.04,VWS V14.01,2013-04-07 01:10:00,
2013-04-06 20:11:00,54.3,48.3,29.68,SSW,202,12.5,12.5,80,0.04,,,0.04,VWS V14.01,2013-04-07 01:11:00,
2013-04-06 20:12:00,54.5,48.8,29.67,SSW,202,6.2,6.2,81,0.04,,,0.04,VWS V14.01,2013-04-07 01:12:00,
2013-04-06 20:13:00,54.5,48.8,29.67,SSW,202,6.2,6.2,81,0.04,,,0.04,VWS V14.01,2013-04-07 01:13:00,
2013-04-06 20:14:00,54.5,48.8,29.67,SSW,202,6.7,6.7,81,0.04,,,0.04,VWS V14.01,2013-04-07 01:14:00,
2013-04-06 20:15:00,54.5,48.8,29.67,SSW,202,6.7,6.7,81,0.04,,,0.04,VWS V14.01,2013-04-07 01:15:00,
2013-04-06 20:16:00,54.5,48.8,29.67,SSW,202,6.7,6.7,81,0.04,,,0.04,VWS V14.01,2013-04-07 01:16:00,
2013-04-06 20:17:00,54.6,48.9,29.67,SSW,202,8.5,8.5,81,0.04,,,0.04,VWS V14.01,2013-04-07 01:17:00,
2013-04-06 20:18:00,54.6,48.9,29.67,SSW,202,8.5,8.5,81,0.04,,,0.04,VWS V14.01,2013-04-07 01:18:00,
2013-04-06 20:19:00,54.6,48.9,29.67,SW,225,3.8,8.5,81,0.04,,,0.04,VWS V14.01,2013-04-07 01:19:00,
2013-04-06 20:20:00,54.6,48.9,29.67,SW,225,3.8,3.8,81,0.04,,,0.04,VWS V14.01,2013-04-07 01:20:00,
2013-04-06 20:21:00,54.6,48.9,29.67,SW,225,3.8,3.8,81,0.04,,,0.04,VWS V14.01,2013-04-07 01:21:00,
2013-04-06 20:22:00,54.6,48.9,29.67,SW,225,3.8,3.8,81,0.04,,,0.04,VWS V14.01,2013-04-07 01:22:00,
2013-04-06 20:23:00,54.5,48.8,29.68,SW,225,6.7,6.7,81,0.04,,,0.04,VWS V14.01,2013-04-07 01:23:00,
2013-04-06 20:24:00,54.5,48.8,29.68,SW,225,6.7,6.7,81,0.04,,,0.04,VWS V14.01,2013-04-07 01:24:00,
2013-04-06 20:25:00,54.5,48.8,29.68,SW,225,5.8,6.7,81,0.04,,,0.04,VWS V14.01,2013-04-07 01:25:00,
2013-04-06 20:26:00,54.5,48.8,29.68,SW,225,5.8,5.8,81,0.04,,,0.04,VWS V14.01,2013-04-07 01:26:00,
2013-04-06 20:27:00,54.5,48.8,29.68,SSW,202,7.8,7.8,81,0.04,,,0.04,VWS V14.01,2013-04-07 01:27:00,
2013-04-06 20:28:00,54.5,48.8,29.68,SSW,202,7.8,7.8,81,0.04,,,0.04,VWS V14.01,2013-04-07 01:28:00,
2013-04-06 20:29:00,54.5,48.8,29.68,SW,225,7.3,7.8,81,0.04,,,0.04,VWS V14.01,2013-04-07 01:29:00,
2013-04-06 20:30:00,54.5,48.8,29.68,SW,225,7.3,7.3,81,0.04,,,0.04,VWS V14.01,2013-04-07 01:30:00,
2013-04-06 20:31:00,54.5,48.8,29.68,SW,225,7.3,7.3,81,0.04,,,0.04,VWS V14.01,2013-04-07 01:31:00,
2013-04-06 20:32:00,54.5,48.8,29.68,SW,225,5.5,5.5,81,0.04,,,0.04,VWS V14.01,2013-04-07 01:32:00,
2013-04-06 20:33:00,54.5,48.8,29.68,SW,225,5.5,5.5,81,0.04,,,0.04,VWS V14.01,2013-04-07 01:33:00,
2013-04-06 20:34:00,54.6,48.9,29.68,SW,225,5.5,5.5,81,0.04,,,0.04,VWS V14.01,2013-04-07 01:34:00,
2013-04-06 20:35:00,54.6,48.9,29.68,SW,225,5.5,5.5,81,0.04,,,0.04,VWS V14.01,2013-04-07 01:35:00,
2013-04-06 20:36:00,54.6,48.6,29.68,SW,225,5.3,5.5,80,0.04,,,0.04,VWS V14.01,2013-04-07 01:36:00,
2013-04-06 20:37:00,54.6,48.6,29.68,SW,225,5.3,5.3,80,0.04,,,0.04,VWS V14.01,2013-04-07 01:37:00,
2013-04-06 20:38:00,54.8,48.8,29.68,SW,225,6.2,6.2,80,0.04,,,0.04,VWS V14.01,2013-04-07 01:38:00,
2013-04-06 20:39:00,54.8,48.8,29.68,SW,225,6.2,6.2,80,0.04,,,0.04,VWS V14.01,2013-04-07 01:39:00,
2013-04-06 20:40:00,54.8,48.8,29.68,SW,225,4.4,6.2,80,0.04,,,0.04,VWS V14.01,2013-04-07 01:40:00,
2013-04-06 20:41:00,54.8,48.8,29.68,SW,225,4.4,4.4,80,0.04,,,0.04,VWS V14.01,2013-04-07 01:41:00,
2013-04-06 20:42:00,54.8,48.8,29.68,SW,225,3.3,3.3,80,0.04,,,0.04,VWS V14.01,2013-04-07 01:42:00,
2013-04-06 20:43:00,54.8,48.8,29.68,SW,225,3.3,3.3,80,0.04,,,0.04,VWS V14.01,2013-04-07 01:43:00,
2013-04-06 20:44:00,54.6,48.6,29.68,SW,225,2.9,3.3,80,0.04,,,0.04,VWS V14.01,2013-04-07 01:44:00,
2013-04-06 20:45:00,54.6,48.6,29.68,SW,225,2.9,2.9,80,0.04,,,0.04,VWS V14.01,2013-04-07 01:45:00,
2013-04-06 20:46:00,54.6,48.6,29.69,SW,225,2.9,2.9,80,0.04,,,0.04,VWS V14.01,2013-04-07 01:46:00,
2013-04-06 20:47:00,54.6,48.6,29.69,SW,225,0.8,0.8,80,0.04,,,0.04,VWS V14.01,2013-04-07 01:47:00,
2013-04-06 20:48:00,54.6,48.6,29.68,SW,225,0.8,0.8,80,0.04,,,0.04,VWS V14.01,2013-04-07 01:48:00,
2013-04-06 20:49:00,54.5,48.8,29.69,West,270,0.4,0.8,81,0.04,,,0.04,VWS V14.01,2013-04-07 01:49:00,
2013-04-06 20:50:00,54.5,48.8,29.69,West,270,0.4,0.4,81,0.04,,,0.04,VWS V14.01,2013-04-07 01:50:00,
2013-04-06 20:51:00,54.3,48.6,29.69,WSW,248,0.0,0.4,81,0.04,,,0.04,VWS V14.01,2013-04-07 01:51:00,
2013-04-06 20:52:00,54.3,48.6,29.69,WSW,248,0.0,0.0,81,0.04,,,0.04,VWS V14.01,2013-04-07 01:52:00,
2013-04-06 20:53:00,54.3,48.6,29.69,SW,225,3.3,3.3,81,0.04,,,0.04,VWS V14.01,2013-04-07 01:53:00,
2013-04-06 20:54:00,54.3,48.6,29.69,SW,225,3.3,3.3,81,0.04,,,0.04,VWS V14.01,2013-04-07 01:54:00,
2013-04-06 20:55:00,54.3,48.6,29.69,SW,225,6.9,6.9,81,0.04,,,0.04,VWS V14.01,2013-04-07 01:55:00,
2013-04-06 20:56:00,54.3,48.6,29.69,SW,225,6.9,6.9,81,0.04,,,0.04,VWS V14.01,2013-04-07 01:56:00,
2013-04-06 20:57:00,54.3,48.6,29.69,SW,225,9.3,9.3,81,0.04,,,0.04,VWS V14.01,2013-04-07 01:57:00,
2013-04-06 20:58:00,54.3,48.6,29.69,SW,225,9.3,9.3,81,0.04,,,0.04,VWS V14.01,2013-04-07 01:58:00,
2013-04-06 20:59:00,54.5,48.8,29.69,SW,225,6.9,9.3,81,0.04,,,0.04,VWS V14.01,2013-04-07 01:59:00,
2013-04-06 21:00:00,54.5,49.1,29.69,SW,225,6.9,6.9,82,0.02,,,0.04,VWS V14.01,2013-04-07 02:00:00,
2013-04-06 21:01:00,54.5,49.1,29.69,SW,225,6.9,6.9,82,0.02,,,0.04,VWS V14.01,2013-04-07 02:01:00,
2013-04-06 21:02:00,54.5,49.1,29.69,SW,225,7.1,7.1,82,0.02,,,0.04,VWS V14.01,2013-04-07 02:02:00,
2013-04-06 21:03:00,54.5,49.1,29.70,SW,225,7.1,7.1,82,0.02,,,0.04,VWS V14.01,2013-04-07 02:03:00,
2013-04-06 21:04:00,54.3,48.9,29.69,WSW,248,2.4,7.1,82,0.02,,,0.04,VWS V14.01,2013-04-07 02:04:00,
2013-04-06 21:05:00,54.3,48.9,29.69,WSW,248,2.4,2.4,82,0.02,,,0.04,VWS V14.01,2013-04-07 02:05:00,
2013-04-06 21:06:00,54.3,48.9,29.69,WSW,248,1.7,2.4,82,0.02,,,0.04,VWS V14.01,2013-04-07 02:06:00,
2013-04-06 21:07:00,54.3,48.9,29.70,WSW,248,1.7,1.7,82,0.02,,,0.04,VWS V14.01,2013-04-07 02:07:00,
2013-04-06 21:08:00,54.1,48.7,29.70,SW,225,3.1,3.1,82,0.02,,,0.04,VWS V14.01,2013-04-07 02:08:00,
2013-04-06 21:09:00,54.1,48.7,29.70,SW,225,3.1,3.1,82,0.00,,,0.04,VWS V14.01,2013-04-07 02:09:00,
2013-04-06 21:10:00,53.9,48.5,29.70,WSW,248,3.3,3.3,82,0.00,,,0.04,VWS V14.01,2013-04-07 02:10:00,
2013-04-06 21:11:00,53.9,48.5,29.70,WSW,248,3.3,3.3,82,0.00,,,0.04,VWS V14.01,2013-04-07 02:11:00,
2013-04-06 21:12:00,53.7,48.3,29.70,SW,225,2.0,2.0,82,0.00,,,0.04,VWS V14.01,2013-04-07 02:12:00,
2013-04-06 21:13:00,53.7,48.3,29.70,SW,225,2.0,2.0,82,0.00,,,0.04,VWS V14.01,2013-04-07 02:13:00,
2013-04-06 21:14:00,53.7,48.3,29.71,SW,225,5.3,5.3,82,0.00,,,0.04,VWS V14.01,2013-04-07 02:14:00,
2013-04-06 21:15:00,53.7,48.7,29.71,SW,225,5.3,5.3,83,0.00,,,0.04,VWS V14.01,2013-04-07 02:15:00,
2013-04-06 21:16:00,53.7,48.7,29.71,SW,225,5.3,5.3,83,0.00,,,0.04,VWS V14.01,2013-04-07 02:16:00,
2013-04-06 21:17:00,53.6,48.6,29.71,West,270,4.4,4.4,83,0.00,,,0.04,VWS V14.01,2013-04-07 02:17:00,
2013-04-06 21:18:00,53.6,48.6,29.71,West,270,4.4,4.4,83,0.00,,,0.04,VWS V14.01,2013-04-07 02:18:00,
2013-04-06 21:19:00,53.4,48.4,29.71,SW,225,7.1,7.1,83,0.00,,,0.04,VWS V14.01,2013-04-07 02:19:00,
2013-04-06 21:20:00,53.4,48.4,29.71,SW,225,7.1,7.1,83,0.00,,,0.04,VWS V14.01,2013-04-07 02:20:00,
2013-04-06 21:21:00,53.4,48.7,29.71,West,270,11.4,11.4,84,0.00,,,0.04,VWS V14.01,2013-04-07 02:21:00,
2013-04-06 21:22:00,53.4,48.7,29.71,West,270,11.4,11.4,84,0.00,,,0.04,VWS V14.01,2013-04-07 02:22:00,
2013-04-06 21:23:00,53.4,48.7,29.71,West,270,11.4,11.4,84,0.00,,,0.04,VWS V14.01,2013-04-07 02:23:00,
2013-04-06 21:24:00,53.4,48.7,29.71,West,270,6.9,6.9,84,0.00,,,0.04,VWS V14.01,2013-04-07 02:24:00,
2013-04-06 21:25:00,53.2,48.5,29.71,WSW,248,4.6,6.9,84,0.00,,,0.04,VWS V14.01,2013-04-07 02:25:00,
2013-04-06 21:26:00,53.2,48.5,29.71,WSW,248,4.6,4.6,84,0.00,,,0.04,VWS V14.01,2013-04-07 02:26:00,
2013-04-06 21:27:00,53.2,48.5,29.70,WNW,292,11.4,11.4,84,0.00,,,0.04,VWS V14.01,2013-04-07 02:27:00,
2013-04-06 21:28:00,53.2,48.5,29.70,WNW,292,11.4,11.4,84,0.00,,,0.04,VWS V14.01,2013-04-07 02:28:00,
2013-04-06 21:29:00,53.2,48.5,29.71,WNW,292,8.5,11.4,84,0.00,,,0.04,VWS V14.01,2013-04-07 02:29:00,
2013-04-06 21:30:00,53.2,48.2,29.71,WNW,292,8.5,8.5,83,0.00,,,0.04,VWS V14.01,2013-04-07 02:30:00,
2013-04-06 21:31:00,53.2,48.2,29.71,WNW,292,8.5,8.5,83,0.00,,,0.04,VWS V14.01,2013-04-07 02:31:00,
2013-04-06 21:32:00,53.0,48.0,29.71,West,270,5.1,8.5,83,0.00,,,0.04,VWS V14.01,2013-04-07 02:32:00,
2013-04-06 21:33:00,53.0,48.0,29.71,West,270,5.1,5.1,83,0.00,,,0.04,VWS V14.01,2013-04-07 02:33:00,
2013-04-06 21:34:00,52.8,48.1,29.72,West,270,6.7,6.7,84,0.00,,,0.04,VWS V14.01,2013-04-07 02:34:00,
2013-04-06 21:35:00,52.8,48.1,29.71,West,270,6.7,6.7,84,0.00,,,0.04,VWS V14.01,2013-04-07 02:35:00,
2013-04-06 21:36:00,52.8,48.1,29.71,West,270,7.8,7.8,84,0.00,,,0.04,VWS V14.01,2013-04-07 02:36:00,
2013-04-06 21:37:00,52.8,48.1,29.71,West,270,7.8,7.8,84,0.00,,,0.04,VWS V14.01,2013-04-07 02:37:00,
2013-04-06 21:38:00,52.8,48.1,29.71,West,270,7.8,7.8,84,0.00,,,0.04,VWS V14.01,2013-04-07 02:38:00,
2013-04-06 21:39:00,52.8,48.1,29.72,West,270,11.6,11.6,84,0.00,,,0.04,VWS V14.01,2013-04-07 02:39:00,
2013-04-06 21:40:00,52.7,48.0,29.72,WNW,292,6.2,11.6,84,0.00,,,0.04,VWS V14.01,2013-04-07 02:40:00,
2013-04-06 21:41:00,52.7,48.0,29.71,WNW,292,6.2,6.2,84,0.00,,,0.04,VWS V14.01,2013-04-07 02:41:00,
2013-04-06 21:42:00,52.5,48.1,29.72,WNW,292,11.4,11.4,85,0.00,,,0.04,VWS V14.01,2013-04-07 02:42:00,
2013-04-06 21:43:00,52.5,48.1,29.72,WNW,292,11.4,11.4,85,0.00,,,0.04,VWS V14.01,2013-04-07 02:43:00,
2013-04-06 21:44:00,52.3,47.6,29.71,WNW,292,12.5,12.5,84,0.00,,,0.04,VWS V14.01,2013-04-07 02:44:00,
2013-04-06 21:45:00,52.3,47.6,29.72,WNW,292,12.5,12.5,84,0.00,,,0.04,VWS V14.01,2013-04-07 02:45:00,
2013-04-06 21:46:00,52.3,47.6,29.72,WNW,292,12.5,12.5,84,0.00,,,0.04,VWS V14.01,2013-04-07 02:46:00,
2013-04-06 21:47:00,52.1,47.4,29.72,West,270,19.0,19.0,84,0.00,,,0.04,VWS V14.01,2013-04-07 02:47:00,
2013-04-06 21:48:00,52.1,47.4,29.72,West,270,19.0,19.0,84,0.00,,,0.04,VWS V14.01,2013-04-07 02:48:00,
2013-04-06 21:49:00,51.9,46.9,29.72,WNW,292,17.2,19.0,83,0.00,,,0.04,VWS V14.01,2013-04-07 02:49:00,
2013-04-06 21:50:00,51.9,46.9,29.72,WNW,292,17.2,17.2,83,0.00,,,0.04,VWS V14.01,2013-04-07 02:50:00,
2013-04-06 21:51:00,51.9,46.9,29.72,West,270,6.9,17.2,83,0.00,,,0.04,VWS V14.01,2013-04-07 02:51:00,
2013-04-06 21:52:00,51.9,46.9,29.72,West,270,6.9,6.9,83,0.00,,,0.04,VWS V14.01,2013-04-07 02:52:00,
2013-04-06 21:53:00,51.9,46.9,29.72,West,270,6.9,6.9,83,0.00,,,0.04,VWS V14.01,2013-04-07 02:53:00,
2013-04-06 21:54:00,51.6,46.6,29.73,WNW,292,16.7,16.7,83,0.00,,,0.04,VWS V14.01,2013-04-07 02:54:00,
2013-04-06 21:55:00,51.6,46.6,29.72,WNW,292,12.7,16.7,83,0.00,,,0.04,VWS V14.01,2013-04-07 02:55:00,
2013-04-06 21:56:00,51.6,46.6,29.72,WNW,292,12.7,12.7,83,0.00,,,0.04,VWS V14.01,2013-04-07 02:56:00,
2013-04-06 21:57:00,51.6,46.6,29.72,West,270,11.6,12.7,83,0.00,,,0.04,VWS V14.01,2013-04-07 02:57:00,
2013-04-06 21:58:00,51.6,46.6,29.72,West,270,11.6,11.6,83,0.00,,,0.04,VWS V14.01,2013-04-07 02:58:00,
2013-04-06 21:59:00,51.6,46.6,29.73,WNW,292,14.5,14.5,83,0.00,,,0.04,VWS V14.01,2013-04-07 02:59:00,
2013-04-06 22:00:00,51.4,46.4,29.73,WNW,292,14.5,14.5,83,0.00,,,0.04,VWS V14.01,2013-04-07 03:00:00,
2013-04-06 22:01:00,51.4,46.4,29.73,WNW,292,14.5,14.5,83,0.00,,,0.04,VWS V14.01,2013-04-07 03:01:00,
2013-04-06 22:02:00,51.4,46.7,29.73,WNW,292,13.1,14.5,84,0.00,,,0.04,VWS V14.01,2013-04-07 03:02:00,
2013-04-06 22:03:00,51.4,46.7,29.73,WNW,292,13.1,13.1,84,0.00,,,0.04,VWS V14.01,2013-04-07 03:03:00,
2013-04-06 22:04:00,51.0,46.0,29.73,West,270,11.1,13.1,83,0.00,,,0.04,VWS V14.01,2013-04-07 03:04:00,
2013-04-06 22:05:00,51.0,46.0,29.73,West,270,11.1,11.1,83,0.00,,,0.04,VWS V14.01,2013-04-07 03:05:00,
2013-04-06 22:06:00,51.0,46.0,29.73,West,270,9.8,11.1,83,0.00,,,0.04,VWS V14.01,2013-04-07 03:06:00,
2013-04-06 22:07:00,51.0,46.0,29.73,West,270,9.8,9.8,83,0.00,,,0.04,VWS V14.01,2013-04-07 03:07:00,
2013-04-06 22:08:00,51.0,46.0,29.73,West,270,9.8,9.8,83,0.00,,,0.04,VWS V14.01,2013-04-07 03:08:00,
2013-04-06 22:09:00,50.7,45.4,29.73,WNW,292,19.0,19.0,82,0.00,,,0.04,VWS V14.01,2013-04-07 03:09:00,
2013-04-06 22:10:00,50.3,45.0,29.73,WNW,292,12.5,19.0,82,0.00,,,0.04,VWS V14.01,2013-04-07 03:10:00,
2013-04-06 22:11:00,50.3,45.0,29.73,WNW,292,12.5,12.5,82,0.00,,,0.04,VWS V14.01,2013-04-07 03:11:00,
2013-04-06 22:12:00,50.0,44.7,29.73,NW,315,16.7,16.7,82,0.00,,,0.04,VWS V14.01,2013-04-07 03:12:00,
2013-04-06 22:13:00,50.0,44.7,29.73,NW,315,16.7,16.7,82,0.00,,,0.04,VWS V14.01,2013-04-07 03:13:00,
2013-04-06 22:14:00,50.0,44.7,29.74,NW,315,10.7,16.7,82,0.00,,,0.04,VWS V14.01,2013-04-07 03:14:00,
2013-04-06 22:15:00,49.8,44.5,29.74,NW,315,10.7,10.7,82,0.00,,,0.04,VWS V14.01,2013-04-07 03:15:00,
2013-04-06 22:16:00,49.8,44.5,29.74,NW,315,10.7,10.7,82,0.00,,,0.04,VWS V14.01,2013-04-07 03:16:00,
2013-04-06 22:17:00,49.6,44.7,29.74,NW,315,21.4,21.4,83,0.00,,,0.04,VWS V14.01,2013-04-07 03:17:00,
2013-04-06 22:18:00,49.6,44.7,29.74,NW,315,21.4,21.4,83,0.00,,,0.04,VWS V14.01,2013-04-07 03:18:00,
2013-04-06 22:19:00,49.2,44.3,29.74,WNW,292,16.7,21.4,83,0.00,,,0.04,VWS V14.01,2013-04-07 03:19:00,
2013-04-06 22:20:00,49.2,44.3,29.75,WNW,292,16.7,16.7,83,0.00,,,0.04,VWS V14.01,2013-04-07 03:20:00,
2013-04-06 22:21:00,49.2,44.3,29.75,WNW,292,7.6,16.7,83,0.00,,,0.04,VWS V14.01,2013-04-07 03:21:00,
2013-04-06 22:22:00,49.2,44.3,29.75,WNW,292,7.6,7.6,83,0.00,,,0.04,VWS V14.01,2013-04-07 03:22:00,
2013-04-06 22:23:00,49.2,44.3,29.75,WNW,292,7.6,7.6,83,0.00,,,0.04,VWS V14.01,2013-04-07 03:23:00,
2013-04-06 22:24:00,49.1,44.2,29.75,West,270,22.1,22.1,83,0.00,,,0.04,VWS V14.01,2013-04-07 03:24:00,
2013-04-06 22:25:00,49.1,44.2,29.75,NW,315,15.8,22.1,83,0.00,,,0.04,VWS V14.01,2013-04-07 03:25:00,
2013-04-06 22:26:00,49.1,44.2,29.75,NW,315,15.8,15.8,83,0.00,,,0.04,VWS V14.01,2013-04-07 03:26:00,
2013-04-06 22:27:00,48.9,44.0,29.75,WNW,292,16.1,16.1,83,0.00,,,0.04,VWS V14.01,2013-04-07 03:27:00,
2013-04-06 22:28:00,48.9,44.0,29.75,WNW,292,16.1,16.1,83,0.00,,,0.04,VWS V14.01,2013-04-07 03:28:00,
2013-04-06 22:29:00,48.9,44.0,29.75,West,270,20.1,20.1,83,0.00,,,0.04,VWS V14.01,2013-04-07 03:29:00,
2013-04-06 22:30:00,49.1,44.2,29.75,West,270,20.1,20.1,83,0.00,,,0.04,VWS V14.01,2013-04-07 03:30:00,
2013-04-06 22:31:00,49.1,44.2,29.75,West,270,20.1,20.1,83,0.00,,,0.04,VWS V14.01,2013-04-07 03:31:00,
2013-04-06 22:32:00,49.1,44.2,29.75,WNW,292,21.9,21.9,83,0.00,,,0.04,VWS V14.01,2013-04-07 03:32:00,
2013-04-06 22:33:00,49.1,44.2,29.75,WNW,292,21.9,21.9,83,0.00,,,0.04,VWS V14.01,2013-04-07 03:33:00,
2013-04-06 22:34:00,48.9,44.0,29.75,WNW,292,13.6,21.9,83,0.00,,,0.04,VWS V14.01,2013-04-07 03:34:00,
2013-04-06 22:35:00,48.9,44.0,29.76,WNW,292,13.6,13.6,83,0.00,,,0.04,VWS V14.01,2013-04-07 03:35:00,
2013-04-06 22:36:00,48.9,44.0,29.76,WNW,292,13.6,13.6,83,0.00,,,0.04,VWS V14.01,2013-04-07 03:36:00,
2013-04-06 22:37:00,48.9,44.0,29.76,WNW,292,18.7,18.7,83,0.00,,,0.04,VWS V14.01,2013-04-07 03:37:00,
2013-04-06 22:38:00,48.9,44.0,29.76,WNW,292,18.7,18.7,83,0.00,,,0.04,VWS V14.01,2013-04-07 03:38:00,
2013-04-06 22:39:00,48.9,44.0,29.75,WNW,292,18.5,18.5,83,0.00,,,0.04,VWS V14.01,2013-04-07 03:39:00,
2013-04-06 22:40:00,48.7,43.8,29.75,WNW,292,10.7,18.5,83,0.00,,,0.04,VWS V14.01,2013-04-07 03:40:00,
2013-04-06 22:41:00,48.7,43.8,29.76,WNW,292,10.7,10.7,83,0.00,,,0.04,VWS V14.01,2013-04-07 03:41:00,
2013-04-06 22:42:00,48.7,43.8,29.76,WNW,292,15.2,15.2,83,0.00,,,0.04,VWS V14.01,2013-04-07 03:42:00,
2013-04-06 22:43:00,48.7,43.8,29.76,WNW,292,15.2,15.2,83,0.00,,,0.04,VWS V14.01,2013-04-07 03:43:00,
2013-04-06 22:44:00,48.7,43.8,29.76,West,270,10.9,15.2,83,0.00,,,0.04,VWS V14.01,2013-04-07 03:44:00,
2013-04-06 22:45:00,48.7,43.8,29.75,West,270,10.9,10.9,83,0.00,,,0.04,VWS V14.01,2013-04-07 03:45:00,
2013-04-06 22:46:00,48.7,43.8,29.75,West,270,10.9,10.9,83,0.00,,,0.04,VWS V14.01,2013-04-07 03:46:00,
2013-04-06 22:47:00,48.7,43.8,29.76,WNW,292,16.5,16.5,83,0.00,,,0.04,VWS V14.01,2013-04-07 03:47:00,
2013-04-06 22:48:00,48.7,43.8,29.76,WNW,292,16.5,16.5,83,0.00,,,0.04,VWS V14.01,2013-04-07 03:48:00,
2013-04-06 22:49:00,48.7,43.8,29.76,West,270,11.8,16.5,83,0.00,,,0.04,VWS V14.01,2013-04-07 03:49:00,
2013-04-06 22:50:00,48.7,43.8,29.76,West,270,11.8,11.8,83,0.00,,,0.04,VWS V14.01,2013-04-07 03:50:00,
2013-04-06 22:51:00,48.7,43.8,29.76,West,270,13.4,13.4,83,0.00,,,0.04,VWS V14.01,2013-04-07 03:51:00,
2013-04-06 22:52:00,48.7,43.8,29.76,West,270,13.4,13.4,83,0.00,,,0.04,VWS V14.01,2013-04-07 03:52:00,
2013-04-06 22:53:00,48.7,43.8,29.76,West,270,13.4,13.4,83,0.00,,,0.04,VWS V14.01,2013-04-07 03:53:00,
2013-04-06 22:54:00,48.5,43.6,29.76,WNW,292,14.0,14.0,83,0.00,,,0.04,VWS V14.01,2013-04-07 03:54:00,
2013-04-06 22:55:00,48.5,43.6,29.76,West,270,8.7,14.0,83,0.00,,,0.04,VWS V14.01,2013-04-07 03:55:00,
2013-04-06 22:56:00,48.5,43.6,29.76,West,270,8.7,8.7,83,0.00,,,0.04,VWS V14.01,2013-04-07 03:56:00,
2013-04-06 22:57:00,48.5,43.9,29.76,WNW,292,10.2,10.2,84,0.00,,,0.04,VWS V14.01,2013-04-07 03:57:00,
2013-04-06 22:58:00,48.5,43.9,29.76,WNW,292,10.2,10.2,84,0.00,,,0.04,VWS V14.01,2013-04-07 03:58:00,
2013-04-06 22:59:00,48.5,43.9,29.76,WNW,292,10.2,10.2,84,0.00,,,0.04,VWS V14.01,2013-04-07 03:59:00,
2013-04-06 23:00:00,48.5,43.9,29.76,WNW,292,10.2,10.2,84,0.00,,,0.04,VWS V14.01,2013-04-07 04:00:00,
2013-04-06 23:01:00,48.3,43.7,29.76,West,270,14.9,14.9,84,0.00,,,0.04,VWS V14.01,2013-04-07 04:01:00,
2013-04-06 23:02:00,48.3,43.7,29.76,West,270,11.4,14.9,84,0.00,,,0.04,VWS V14.01,2013-04-07 04:02:00,
2013-04-06 23:03:00,48.3,43.7,29.76,West,270,11.4,11.4,84,0.00,,,0.04,VWS V14.01,2013-04-07 04:03:00,
2013-04-06 23:04:00,48.3,43.7,29.76,West,270,15.2,15.2,84,0.00,,,0.04,VWS V14.01,2013-04-07 04:04:00,
2013-04-06 23:05:00,48.3,43.7,29.76,West,270,15.2,15.2,84,0.00,,,0.04,VWS V14.01,2013-04-07 04:05:00,
2013-04-06 23:06:00,48.3,43.7,29.76,SSW,202,7.3,7.3,84,0.00,,,0.04,VWS V14.01,2013-04-07 04:06:00,
2013-04-06 23:07:00,48.3,43.7,29.76,SSW,202,7.3,7.3,84,0.00,,,0.04,VWS V14.01,2013-04-07 04:07:00,
2013-04-06 23:08:00,48.0,43.4,29.77,West,270,13.6,13.6,84,0.00,,,0.04,VWS V14.01,2013-04-07 04:08:00,
2013-04-06 23:09:00,48.0,43.4,29.77,West,270,13.6,13.6,84,0.00,,,0.04,VWS V14.01,2013-04-07 04:09:00,
2013-04-06 23:10:00,48.0,43.4,29.77,NW,315,16.1,16.1,84,0.00,,,0.04,VWS V14.01,2013-04-07 04:10:00,
2013-04-06 23:11:00,48.0,43.4,29.77,NW,315,16.1,16.1,84,0.00,,,0.00,VWS V14.01,2013-04-07 04:11:00,
2013-04-06 23:12:00,48.0,43.4,29.77,WNW,292,21.9,21.9,84,0.00,,,0.04,VWS V14.01,2013-04-07 04:12:00,
2013-04-06 23:13:00,47.8,43.2,29.77,WNW,292,21.9,21.9,84,0.00,,,0.04,VWS V14.01,2013-04-07 04:13:00,
2013-04-06 23:14:00,47.8,43.2,29.77,WNW,292,21.9,21.9,84,0.00,,,0.04,VWS V14.01,2013-04-07 04:14:00,
2013-04-06 23:15:00,47.8,43.2,29.77,WNW,292,8.5,21.9,84,0.00,,,0.04,VWS V14.01,2013-04-07 04:15:00,
2013-04-06 23:16:00,47.8,43.2,29.77,WNW,292,8.5,8.5,84,0.00,,,0.04,VWS V14.01,2013-04-07 04:16:00,
2013-04-06 23:17:00,47.8,43.2,29.77,WNW,292,8.5,8.5,84,0.00,,,0.04,VWS V14.01,2013-04-07 04:17:00,
2013-04-06 23:18:00,47.4,42.5,29.77,WNW,292,16.5,16.5,83,0.00,,,0.04,VWS V14.01,2013-04-07 04:18:00,
2013-04-06 23:19:00,47.4,42.5,29.77,WNW,292,15.4,16.5,83,0.00,,,0.04,VWS V14.01,2013-04-07 04:19:00,
2013-04-06 23:20:00,47.4,42.5,29.77,WNW,292,15.4,15.4,83,0.00,,,0.04,VWS V14.01,2013-04-07 04:20:00,
2013-04-06 23:21:00,47.3,42.4,29.77,WNW,292,11.8,15.4,83,0.00,,,0.04,VWS V14.01,2013-04-07 04:21:00,
2013-04-06 23:22:00,47.3,42.4,29.77,WNW,292,11.8,11.8,83,0.00,,,0.04,VWS V14.01,2013-04-07 04:22:00,
2013-04-06 23:23:00,47.1,42.2,29.77,WNW,292,7.8,11.8,83,0.00,,,0.04,VWS V14.01,2013-04-07 04:23:00,
2013-04-06 23:24:00,47.1,42.2,29.78,WNW,292,7.8,7.8,83,0.00,,,0.04,VWS V14.01,2013-04-07 04:24:00,
2013-04-06 23:25:00,47.1,42.2,29.77,WSW,248,7.8,7.8,83,0.00,,,0.04,VWS V14.01,2013-04-07 04:25:00,
2013-04-06 23:26:00,47.1,42.2,29.77,WSW,248,7.8,7.8,83,0.00,,,0.04,VWS V14.01,2013-04-07 04:26:00,
2013-04-06 23:27:00,47.1,42.2,29.77,WSW,248,7.8,7.8,83,0.00,,,0.04,VWS V14.01,2013-04-07 04:27:00,
2013-04-06 23:28:00,46.9,42.0,29.78,WSW,248,8.9,8.9,83,0.00,,,0.04,VWS V14.01,2013-04-07 04:28:00,
2013-04-06 23:29:00,46.9,42.0,29.78,WSW,248,8.9,8.9,83,0.00,,,0.04,VWS V14.01,2013-04-07 04:29:00,
2013-04-06 23:30:00,46.9,42.0,29.78,West,270,7.3,8.9,83,0.00,,,0.04,VWS V14.01,2013-04-07 04:30:00,
2013-04-06 23:31:00,46.9,42.0,29.78,West,270,7.3,7.3,83,0.00,,,0.04,VWS V14.01,2013-04-07 04:31:00,
2013-04-06 23:32:00,46.9,42.0,29.78,West,270,7.3,7.3,83,0.00,,,0.04,VWS V14.01,2013-04-07 04:32:00,
2013-04-06 23:33:00,46.7,41.8,29.78,WNW,292,9.3,9.3,83,0.00,,,0.04,VWS V14.01,2013-04-07 04:33:00,
2013-04-06 23:34:00,46.7,41.8,29.78,West,270,9.3,9.3,83,0.00,,,0.04,VWS V14.01,2013-04-07 04:34:00,
2013-04-06 23:35:00,46.7,41.8,29.78,West,270,9.3,9.3,83,0.00,,,0.04,VWS V14.01,2013-04-07 04:35:00,
2013-04-06 23:36:00,46.7,41.8,29.78,WNW,292,13.6,13.6,83,0.00,,,0.04,VWS V14.01,2013-04-07 04:36:00,
2013-04-06 23:37:00,46.7,41.8,29.78,WNW,292,13.6,13.6,83,0.00,,,0.04,VWS V14.01,2013-04-07 04:37:00,
2013-04-06 23:38:00,46.7,41.8,29.79,WNW,292,15.4,15.4,83,0.00,,,0.04,VWS V14.01,2013-04-07 04:38:00,
2013-04-06 23:39:00,46.7,41.8,29.78,WNW,292,15.4,15.4,83,0.00,,,0.04,VWS V14.01,2013-04-07 04:39:00,
2013-04-06 23:40:00,46.7,41.8,29.79,NW,315,5.8,15.4,83,0.00,,,0.04,VWS V14.01,2013-04-07 04:40:00,
2013-04-06 23:41:00,46.7,41.8,29.79,NW,315,5.8,5.8,83,0.00,,,0.04,VWS V14.01,2013-04-07 04:41:00,
2013-04-06 23:42:00,46.7,41.8,29.79,NW,315,5.8,5.8,83,0.00,,,0.04,VWS V14.01,2013-04-07 04:42:00,
2013-04-06 23:43:00,46.7,41.8,29.79,WNW,292,12.7,12.7,83,0.00,,,0.04,VWS V14.01,2013-04-07 04:43:00,
2013-04-06 23:44:00,46.7,41.8,29.79,WNW,292,12.7,12.7,83,0.00,,,0.04,VWS V14.01,2013-04-07 04:44:00,
2013-04-06 23:45:00,46.7,41.8,29.79,WNW,292,8.9,12.7,83,0.00,,,0.04,VWS V14.01,2013-04-07 04:45:00,
2013-04-06 23:46:00,46.7,41.8,29.79,WNW,292,8.9,8.9,83,0.00,,,0.04,VWS V14.01,2013-04-07 04:46:00,
2013-04-06 23:47:00,46.7,41.8,29.79,WNW,292,8.9,8.9,83,0.00,,,0.04,VWS V14.01,2013-04-07 04:47:00,
2013-04-06 23:48:00,46.7,41.8,29.79,WNW,292,8.9,8.9,83,0.00,,,0.04,VWS V14.01,2013-04-07 04:48:00,
2013-04-06 23:49:00,46.7,41.5,29.79,WNW,292,14.5,14.5,82,0.00,,,0.04,VWS V14.01,2013-04-07 04:49:00,
2013-04-06 23:50:00,46.7,41.5,29.78,WNW,292,14.5,14.5,82,0.00,,,0.04,VWS V14.01,2013-04-07 04:50:00,
2013-04-06 23:51:00,46.7,41.5,29.78,NW,315,11.4,14.5,82,0.00,,,0.04,VWS V14.01,2013-04-07 04:51:00,
2013-04-06 23:52:00,46.7,41.5,29.78,NW,315,11.4,11.4,82,0.00,,,0.04,VWS V14.01,2013-04-07 04:52:00,
2013-04-06 23:53:00,46.7,41.5,29.78,NNW,338,2.6,11.4,82,0.00,,,0.04,VWS V14.01,2013-04-07 04:53:00,
2013-04-06 23:54:00,46.7,41.5,29.78,NNW,338,2.6,2.6,82,0.00,,,0.04,VWS V14.01,2013-04-07 04:54:00,
2013-04-06 23:55:00,46.9,41.4,29.78,WNW,292,12.7,12.7,81,0.00,,,0.04,VWS V14.01,2013-04-07 04:55:00,
2013-04-06 23:56:00,46.9,41.4,29.78,WNW,292,12.7,12.7,81,0.00,,,0.04,VWS V14.01,2013-04-07 04:56:00,
2013-04-06 23:57:00,46.9,41.4,29.78,WNW,292,12.7,12.7,81,0.00,,,0.04,VWS V14.01,2013-04-07 04:57:00,
2013-04-06 23:58:00,46.9,41.4,29.78,WNW,292,8.9,8.9,81,0.00,,,0.04,VWS V14.01,2013-04-07 04:58:00,
2013-04-06 23:59:00,46.9,41.4,29.78,WNW,292,8.9,8.9,81,0.00,,,0.04,VWS V14.01,2013-04-07 04:59:00,